GEFSSGP_prec_meanprecacc_048.txt.gz
Total_Precipitation_Accumulation
0.00 0.00 0.00 0.00 0.00 0.00 0.00 0.01 0.03 0.04 0.05 0.05 0.07 0.08 0.06 0.06 0.12 0.24 0.09 0.05 0.03 0.01 0.00 0.01 0.01 0.02 0.02 0.02 0.02 0.02 0.04 0.07 0.08 0.07 0.06 0.05 0.04 0.04 0.05 0.07 0.10 0.15 0.17 0.15 0.15 0.15 0.17 0.17 0.13
0.00 0.00 0.00 0.00 0.00 0.00 0.01 0.02 0.04 0.05 0.08 0.07 0.08 0.06 0.01 0.00 0.00 0.00 0.01 0.03 0.03 0.01 0.00 0.00 0.01 0.02 0.04 0.03 0.04 0.03 0.05 0.08 0.12 0.13 0.11 0.07 0.04 0.04 0.06 0.08 0.10 0.14 0.15 0.13 0.11 0.10 0.10 0.08 0.05
0.00 0.00 0.00 0.00 0.00 0.00 0.02 0.04 0.04 0.07 0.09 0.08 0.09 0.05 0.01 0.00 0.00 0.00 0.01 0.03 0.02 0.02 0.01 0.00 0.01 0.02 0.05 0.06 0.06 0.06 0.07 0.11 0.15 0.17 0.17 0.12 0.06 0.04 0.07 0.10 0.11 0.12 0.15 0.17 0.14 0.10 0.06 0.04 0.03
0.00 0.00 0.00 0.00 0.00 0.00 0.02 0.04 0.03 0.06 0.10 0.08 0.05 0.03 0.01 0.00 0.00 0.00 0.01 0.02 0.01 0.01 0.00 0.00 0.01 0.02 0.05 0.08 0.09 0.09 0.10 0.13 0.17 0.21 0.20 0.13 0.06 0.05 0.08 0.12 0.15 0.17 0.20 0.25 0.22 0.20 0.13 0.08 0.05
0.00 0.00 0.00 0.00 0.00 0.00 0.01 0.03 0.03 0.04 0.06 0.05 0.03 0.02 0.01 0.00 0.01 0.01 0.02 0.02 0.01 0.02 0.01 0.00 0.02 0.03 0.06 0.08 0.07 0.08 0.11 0.13 0.18 0.21 0.17 0.11 0.06 0.04 0.07 0.14 0.17 0.21 0.24 0.24 0.21 0.19 0.14 0.12 0.10
0.00 0.00 0.00 0.00 0.00 0.00 0.01 0.01 0.02 0.04 0.06 0.05 0.03 0.03 0.02 0.01 0.02 0.03 0.04 0.05 0.03 0.02 0.01 0.00 0.01 0.03 0.10 0.15 0.10 0.07 0.08 0.10 0.15 0.19 0.16 0.10 0.08 0.09 0.13 0.15 0.18 0.21 0.19 0.16 0.17 0.16 0.13 0.15 0.17
0.00 0.00 0.00 0.00 0.00 0.00 0.00 0.01 0.01 0.03 0.07 0.07 0.05 0.05 0.02 0.02 0.05 0.09 0.09 0.10 0.09 0.08 0.05 0.02 0.02 0.02 0.05 0.06 0.05 0.04 0.04 0.07 0.12 0.17 0.20 0.16 0.13 0.20 0.24 0.21 0.22 0.25 0.21 0.16 0.17 0.18 0.15 0.19 0.23
0.00 0.00 0.00 0.00 0.00 0.00 0.00 0.01 0.01 0.03 0.07 0.06 0.04 0.04 0.04 0.02 0.05 0.13 0.16 0.19 0.21 0.30 0.38 0.16 0.09 0.04 0.02 0.02 0.01 0.01 0.01 0.02 0.05 0.08 0.12 0.13 0.15 0.19 0.21 0.18 0.16 0.19 0.14 0.11 0.10 0.12 0.12 0.10 0.08
0.00 0.00 0.00 0.00 0.00 0.00 0.00 0.02 0.02 0.03 0.05 0.04 0.02 0.02 0.03 0.02 0.05 0.12 0.18 0.28 0.35 0.54 0.71 0.49 0.18 0.04 0.01 0.02 0.01 0.00 0.00 0.00 0.01 0.02 0.04 0.09 0.18 0.21 0.19 0.12 0.09 0.07 0.04 0.02 0.02 0.02 0.01 0.01 0.01
0.00 0.00 0.00 0.00 0.00 0.00 0.00 0.01 0.02 0.02 0.03 0.03 0.03 0.04 0.05 0.04 0.07 0.13 0.29 0.71 0.76 0.64 0.60 0.47 0.11 0.03 0.01 0.01 0.01 0.02 0.01 0.01 0.03 0.05 0.04 0.11 0.18 0.20 0.13 0.06 0.03 0.01 0.00 0.00 0.00 0.00 0.00 0.00 0.00
0.00 0.00 0.00 0.00 0.00 0.00 0.00 0.00 0.01 0.02 0.02 0.03 0.06 0.08 0.06 0.04 0.06 0.09 0.22 0.69 0.89 0.57 0.32 0.16 0.10 0.06 0.03 0.01 0.01 0.02 0.02 0.02 0.02 0.04 0.04 0.09 0.08 0.05 0.02 0.01 0.01 0.00 0.00 0.00 0.00 0.00 0.00 0.00 0.00
0.00 0.00 0.00 0.00 0.00 0.00 0.00 0.00 0.00 0.01 0.01 0.04 0.08 0.12 0.08 0.03 0.02 0.06 0.17 0.28 0.30 0.32 0.23 0.13 0.10 0.07 0.05 0.02 0.01 0.02 0.02 0.02 0.02 0.02 0.02 0.04 0.06 0.05 0.04 0.03 0.02 0.02 0.01 0.01 0.01 0.00 0.00 0.00 0.00
0.00 0.00 0.00 0.00 0.00 0.00 0.00 0.00 0.00 0.00 0.01 0.02 0.05 0.10 0.06 0.03 0.03 0.07 0.22 0.27 0.25 0.31 0.29 0.16 0.11 0.07 0.04 0.02 0.01 0.01 0.01 0.01 0.01 0.01 0.01 0.01 0.03 0.04 0.05 0.05 0.03 0.02 0.03 0.03 0.02 0.02 0.01 0.00 0.00
0.00 0.00 0.00 0.00 0.00 0.00 0.00 0.00 0.00 0.00 0.00 0.01 0.02 0.05 0.05 0.05 0.06 0.10 0.27 0.33 0.36 0.49 0.46 0.23 0.11 0.04 0.03 0.02 0.01 0.01 0.01 0.03 0.03 0.04 0.03 0.02 0.04 0.06 0.06 0.06 0.05 0.03 0.02 0.03 0.03 0.03 0.02 0.01 0.01
0.00 0.00 0.00 0.00 0.00 0.00 0.00 0.00 0.00 0.00 0.00 0.01 0.02 0.05 0.08 0.10 0.10 0.12 0.23 0.29 0.43 0.69 0.64 0.30 0.10 0.03 0.02 0.02 0.02 0.02 0.03 0.05 0.05 0.06 0.05 0.04 0.04 0.06 0.05 0.06 0.05 0.04 0.03 0.03 0.04 0.03 0.03 0.03 0.03
0.00 0.00 0.00 0.00 0.00 0.00 0.00 0.00 0.00 0.00 0.00 0.00 0.02 0.03 0.05 0.06 0.07 0.10 0.22 0.36 0.63 1.01 1.00 0.42 0.10 0.04 0.04 0.05 0.06 0.06 0.07 0.06 0.06 0.07 0.06 0.05 0.05 0.06 0.06 0.06 0.06 0.06 0.06 0.07 0.08 0.09 0.07 0.08 0.07
0.00 0.00 0.00 0.00 0.00 0.00 0.00 0.00 0.00 0.00 0.00 0.00 0.01 0.02 0.02 0.02 0.04 0.09 0.22 0.50 0.95 1.49 1.28 0.51 0.17 0.10 0.10 0.11 0.13 0.17 0.18 0.16 0.14 0.13 0.13 0.12 0.10 0.09 0.10 0.12 0.14 0.15 0.15 0.15 0.16 0.18 0.17 0.16 0.13
0.00 0.00 0.00 0.00 0.00 0.00 0.00 0.00 0.00 0.00 0.00 0.00 0.00 0.01 0.02 0.03 0.05 0.09 0.25 0.63 1.25 1.92 1.44 0.69 0.44 0.35 0.25 0.20 0.21 0.24 0.26 0.25 0.25 0.22 0.20 0.19 0.19 0.21 0.23 0.26 0.28 0.26 0.24 0.24 0.25 0.24 0.19 0.15 0.11
0.00 0.00 0.00 0.00 0.00 0.00 0.00 0.00 0.00 0.00 0.00 0.00 0.00 0.00 0.01 0.02 0.05 0.12 0.31 0.58 0.76 0.93 0.84 0.70 0.62 0.55 0.46 0.44 0.45 0.51 0.50 0.43 0.37 0.37 0.36 0.39 0.42 0.47 0.47 0.40 0.37 0.31 0.28 0.25 0.21 0.16 0.12 0.09 0.06
0.00 0.00 0.00 0.00 0.00 0.00 0.00 0.00 0.00 0.00 0.00 0.00 0.00 0.01 0.01 0.02 0.05 0.13 0.27 0.36 0.41 0.55 0.68 0.70 0.62 0.57 0.60 0.69 0.74 0.78 0.76 0.70 0.64 0.62 0.67 0.69 0.67 0.62 0.53 0.44 0.34 0.28 0.23 0.17 0.14 0.11 0.08 0.05 0.03
0.00 0.00 0.00 0.00 0.00 0.00 0.00 0.00 0.00 0.00 0.00 0.00 0.01 0.01 0.01 0.02 0.05 0.08 0.14 0.22 0.30 0.46 0.65 0.71 0.67 0.71 0.82 0.90 0.99 1.03 0.98 0.86 0.84 0.83 0.86 0.81 0.75 0.67 0.57 0.45 0.32 0.22 0.17 0.13 0.10 0.07 0.04 0.02 0.01
0.00 0.00 0.00 0.00 0.00 0.00 0.00 0.00 0.00 0.00 0.01 0.01 0.01 0.01 0.01 0.02 0.04 0.06 0.09 0.18 0.33 0.52 0.66 0.71 0.74 0.85 1.00 1.07 1.10 1.12 1.09 1.02 1.00 0.87 0.83 0.75 0.63 0.55 0.45 0.32 0.23 0.17 0.11 0.08 0.04 0.03 0.02 0.02 0.01
0.00 0.00 0.00 0.00 0.00 0.00 0.00 0.00 0.00 0.00 0.00 0.01 0.01 0.01 0.02 0.02 0.03 0.06 0.10 0.19 0.36 0.54 0.66 0.71 0.79 0.95 1.08 1.13 1.16 1.22 1.19 1.08 0.93 0.76 0.65 0.53 0.41 0.32 0.25 0.17 0.12 0.08 0.05 0.03 0.02 0.01 0.01 0.01 0.01
0.00 0.00 0.00 0.00 0.00 0.00 0.00 0.00 0.00 0.00 0.00 0.00 0.01 0.02 0.02 0.03 0.04 0.06 0.11 0.19 0.30 0.40 0.53 0.60 0.70 0.89 1.03 1.10 1.11 1.06 0.99 0.82 0.64 0.54 0.46 0.36 0.26 0.19 0.14 0.10 0.06 0.04 0.02 0.01 0.01 0.01 0.01 0.02 0.02
0.00 0.00 0.00 0.00 0.00 0.00 0.00 0.00 0.00 0.00 0.00 0.00 0.01 0.02 0.03 0.03 0.04 0.07 0.13 0.19 0.27 0.33 0.42 0.52 0.64 0.76 0.88 0.89 0.83 0.72 0.59 0.46 0.40 0.36 0.30 0.22 0.16 0.11 0.07 0.04 0.03 0.02 0.02 0.01 0.01 0.02 0.02 0.03 0.03
0.00 0.00 0.00 0.00 0.00 0.00 0.00 0.00 0.01 0.01 0.01 0.03 0.03 0.03 0.03 0.04 0.05 0.09 0.17 0.23 0.27 0.33 0.44 0.54 0.64 0.71 0.72 0.64 0.55 0.45 0.36 0.30 0.25 0.19 0.14 0.10 0.07 0.05 0.03 0.02 0.02 0.01 0.01 0.02 0.02 0.02 0.02 0.03 0.04
0.00 0.00 0.00 0.00 0.00 0.00 0.00 0.00 0.01 0.01 0.02 0.04 0.06 0.05 0.05 0.07 0.10 0.17 0.24 0.28 0.30 0.33 0.40 0.47 0.50 0.50 0.44 0.34 0.25 0.21 0.18 0.15 0.12 0.09 0.07 0.05 0.04 0.03 0.02 0.02 0.02 0.03 0.03 0.04 0.05 0.05 0.05 0.07 0.08
0.00 0.00 0.00 0.00 0.00 0.00 0.00 0.00 0.01 0.01 0.02 0.03 0.05 0.05 0.07 0.10 0.16 0.23 0.28 0.29 0.27 0.28 0.30 0.30 0.26 0.23 0.19 0.15 0.12 0.11 0.11 0.09 0.07 0.06 0.05 0.04 0.04 0.03 0.03 0.03 0.04 0.04 0.05 0.06 0.07 0.08 0.08 0.10 0.10
0.00 0.00 0.00 0.00 0.00 0.00 0.00 0.01 0.01 0.01 0.03 0.04 0.07 0.10 0.12 0.16 0.25 0.32 0.32 0.26 0.21 0.18 0.16 0.15 0.13 0.11 0.10 0.09 0.08 0.07 0.06 0.05 0.04 0.04 0.04 0.04 0.04 0.04 0.05 0.05 0.05 0.06 0.06 0.07 0.09 0.09 0.09 0.09 0.09
0.00 0.00 0.00 0.00 0.00 0.00 0.00 0.02 0.01 0.02 0.05 0.07 0.11 0.12 0.17 0.24 0.30 0.33 0.30 0.22 0.17 0.15 0.13 0.12 0.12 0.11 0.09 0.08 0.07 0.05 0.04 0.04 0.04 0.04 0.04 0.05 0.05 0.06 0.07 0.07 0.07 0.07 0.06 0.07 0.09 0.09 0.08 0.09 0.09

GEFSSGP_prec_meanprecacc_054.txt.gz
Total_Precipitation_Accumulation
0.00 0.00 0.00 0.00 0.00 0.00 0.00 0.01 0.03 0.04 0.05 0.05 0.07 0.09 0.06 0.06 0.12 0.25 0.09 0.05 0.03 0.01 0.00 0.01 0.01 0.02 0.02 0.02 0.02 0.03 0.05 0.08 0.09 0.08 0.07 0.06 0.05 0.05 0.06 0.08 0.11 0.15 0.18 0.17 0.16 0.16 0.17 0.17 0.13
0.00 0.00 0.00 0.00 0.00 0.00 0.01 0.02 0.04 0.05 0.08 0.07 0.08 0.06 0.01 0.00 0.00 0.00 0.01 0.03 0.03 0.01 0.00 0.00 0.01 0.02 0.04 0.04 0.04 0.03 0.05 0.09 0.13 0.13 0.11 0.08 0.04 0.05 0.07 0.08 0.10 0.14 0.16 0.14 0.12 0.10 0.10 0.08 0.05
0.00 0.00 0.00 0.00 0.00 0.00 0.02 0.04 0.04 0.07 0.09 0.08 0.09 0.05 0.01 0.00 0.00 0.00 0.01 0.03 0.02 0.02 0.01 0.01 0.01 0.02 0.05 0.06 0.06 0.06 0.08 0.11 0.15 0.18 0.18 0.12 0.06 0.04 0.07 0.10 0.11 0.13 0.16 0.18 0.14 0.10 0.06 0.04 0.03
0.00 0.00 0.00 0.00 0.00 0.00 0.02 0.04 0.03 0.06 0.10 0.08 0.05 0.03 0.01 0.00 0.00 0.00 0.01 0.02 0.01 0.01 0.00 0.00 0.01 0.02 0.05 0.08 0.09 0.09 0.11 0.13 0.18 0.21 0.20 0.13 0.06 0.05 0.08 0.13 0.16 0.17 0.20 0.25 0.22 0.20 0.13 0.08 0.05
0.00 0.00 0.00 0.00 0.00 0.00 0.01 0.03 0.03 0.04 0.06 0.05 0.03 0.02 0.01 0.00 0.01 0.01 0.02 0.02 0.01 0.02 0.01 0.00 0.02 0.03 0.06 0.08 0.08 0.09 0.11 0.14 0.18 0.21 0.17 0.11 0.07 0.05 0.08 0.15 0.18 0.21 0.24 0.24 0.21 0.19 0.14 0.12 0.10
0.00 0.00 0.00 0.00 0.00 0.00 0.01 0.01 0.02 0.04 0.06 0.05 0.03 0.03 0.02 0.01 0.02 0.03 0.04 0.05 0.03 0.02 0.01 0.01 0.01 0.03 0.10 0.16 0.10 0.07 0.09 0.11 0.16 0.20 0.17 0.11 0.08 0.10 0.14 0.16 0.19 0.22 0.20 0.17 0.17 0.16 0.13 0.15 0.17
0.00 0.00 0.00 0.00 0.00 0.00 0.00 0.01 0.01 0.03 0.07 0.07 0.05 0.05 0.02 0.02 0.05 0.09 0.09 0.10 0.09 0.08 0.05 0.02 0.02 0.02 0.05 0.07 0.05 0.05 0.06 0.08 0.13 0.18 0.21 0.16 0.13 0.20 0.24 0.22 0.23 0.26 0.21 0.17 0.17 0.18 0.15 0.19 0.24
0.00 0.00 0.00 0.00 0.00 0.00 0.00 0.01 0.01 0.03 0.07 0.06 0.04 0.04 0.04 0.02 0.05 0.13 0.16 0.19 0.21 0.30 0.38 0.17 0.09 0.04 0.02 0.02 0.01 0.02 0.02 0.03 0.06 0.08 0.12 0.13 0.15 0.19 0.21 0.18 0.17 0.19 0.14 0.11 0.10 0.12 0.12 0.10 0.09
0.00 0.00 0.00 0.00 0.00 0.00 0.00 0.02 0.02 0.03 0.05 0.04 0.02 0.02 0.03 0.02 0.05 0.12 0.18 0.28 0.35 0.54 0.71 0.49 0.18 0.04 0.01 0.02 0.01 0.01 0.00 0.01 0.01 0.02 0.04 0.09 0.18 0.21 0.20 0.12 0.09 0.07 0.04 0.02 0.02 0.02 0.02 0.01 0.01
0.00 0.00 0.00 0.00 0.00 0.00 0.00 0.01 0.02 0.02 0.03 0.03 0.03 0.04 0.05 0.04 0.07 0.13 0.29 0.71 0.76 0.64 0.60 0.47 0.11 0.03 0.01 0.01 0.01 0.02 0.02 0.01 0.03 0.05 0.04 0.11 0.19 0.21 0.13 0.07 0.03 0.01 0.00 0.00 0.00 0.00 0.00 0.00 0.00
0.00 0.00 0.00 0.00 0.00 0.00 0.00 0.00 0.01 0.02 0.02 0.03 0.06 0.08 0.06 0.04 0.06 0.09 0.22 0.69 0.89 0.57 0.32 0.16 0.10 0.06 0.03 0.01 0.02 0.02 0.02 0.02 0.02 0.04 0.04 0.09 0.09 0.06 0.03 0.02 0.01 0.01 0.01 0.00 0.01 0.00 0.00 0.00 0.00
0.00 0.00 0.00 0.00 0.00 0.00 0.00 0.00 0.00 0.01 0.02 0.04 0.08 0.12 0.08 0.03 0.02 0.06 0.17 0.28 0.30 0.32 0.23 0.13 0.10 0.07 0.05 0.02 0.01 0.02 0.02 0.02 0.02 0.02 0.02 0.05 0.06 0.05 0.04 0.04 0.02 0.03 0.02 0.02 0.01 0.00 0.00 0.00 0.00
0.00 0.00 0.00 0.00 0.00 0.00 0.00 0.00 0.00 0.00 0.01 0.02 0.05 0.10 0.06 0.03 0.03 0.07 0.22 0.27 0.25 0.31 0.29 0.16 0.11 0.07 0.04 0.02 0.01 0.01 0.01 0.01 0.01 0.01 0.01 0.02 0.03 0.04 0.06 0.06 0.05 0.04 0.04 0.04 0.03 0.02 0.02 0.01 0.00
0.00 0.00 0.00 0.00 0.00 0.00 0.00 0.00 0.00 0.00 0.00 0.01 0.02 0.05 0.05 0.05 0.06 0.10 0.27 0.33 0.36 0.49 0.46 0.23 0.11 0.04 0.03 0.02 0.01 0.01 0.02 0.03 0.04 0.04 0.04 0.03 0.05 0.07 0.07 0.08 0.08 0.06 0.05 0.05 0.05 0.05 0.04 0.02 0.02
0.00 0.00 0.00 0.00 0.00 0.00 0.00 0.00 0.00 0.00 0.00 0.01 0.02 0.05 0.08 0.10 0.10 0.12 0.23 0.29 0.43 0.69 0.64 0.30 0.10 0.03 0.03 0.02 0.02 0.02 0.03 0.05 0.06 0.07 0.07 0.05 0.06 0.09 0.09 0.10 0.10 0.08 0.07 0.08 0.08 0.08 0.07 0.06 0.06
0.00 0.00 0.00 0.00 0.00 0.00 0.00 0.00 0.00 0.00 0.00 0.00 0.02 0.03 0.05 0.06 0.07 0.10 0.22 0.36 0.63 1.01 1.00 0.42 0.10 0.04 0.04 0.05 0.06 0.07 0.08 0.07 0.08 0.09 0.10 0.09 0.11 0.14 0.16 0.16 0.16 0.15 0.14 0.16 0.17 0.17 0.15 0.14 0.12
0.00 0.00 0.00 0.00 0.00 0.00 0.00 0.00 0.00 0.00 0.00 0.00 0.01 0.02 0.02 0.02 0.04 0.09 0.22 0.50 0.95 1.49 1.28 0.51 0.17 0.10 0.10 0.12 0.14 0.19 0.20 0.20 0.21 0.21 0.22 0.22 0.23 0.24 0.28 0.32 0.32 0.30 0.30 0.29 0.28 0.30 0.28 0.25 0.21
0.00 0.00 0.00 0.00 0.00 0.00 0.00 0.00 0.00 0.00 0.00 0.00 0.00 0.01 0.02 0.03 0.05 0.09 0.25 0.63 1.25 1.92 1.44 0.69 0.44 0.36 0.28 0.25 0.27 0.32 0.38 0.43 0.45 0.39 0.35 0.33 0.34 0.40 0.49 0.53 0.53 0.49 0.46 0.45 0.46 0.43 0.32 0.24 0.18
0.00 0.00 0.00 0.00 0.00 0.00 0.00 0.00 0.00 0.00 0.00 0.00 0.00 0.00 0.01 0.02 0.05 0.12 0.31 0.58 0.77 0.94 0.85 0.70 0.63 0.58 0.54 0.55 0.60 0.71 0.83 0.82 0.70 0.63 0.60 0.61 0.66 0.75 0.79 0.75 0.70 0.62 0.57 0.51 0.42 0.33 0.26 0.19 0.14
0.00 0.00 0.00 0.00 0.00 0.00 0.00 0.00 0.00 0.00 0.00 0.00 0.00 0.01 0.01 0.02 0.05 0.13 0.27 0.36 0.42 0.57 0.70 0.71 0.64 0.65 0.74 0.91 1.06 1.25 1.34 1.25 1.12 1.04 1.03 1.05 1.03 0.98 0.89 0.83 0.74 0.65 0.54 0.42 0.35 0.30 0.25 0.20 0.15
0.00 0.00 0.00 0.00 0.00 0.00 0.00 0.00 0.00 0.00 0.00 0.00 0.01 0.01 0.01 0.02 0.05 0.08 0.14 0.22 0.31 0.48 0.68 0.72 0.69 0.80 1.00 1.20 1.48 1.67 1.63 1.51 1.49 1.44 1.41 1.32 1.19 1.09 0.98 0.86 0.76 0.66 0.56 0.44 0.34 0.28 0.22 0.17 0.12
0.00 0.00 0.00 0.00 0.00 0.00 0.00 0.00 0.00 0.00 0.01 0.01 0.01 0.01 0.01 0.02 0.04 0.06 0.09 0.18 0.34 0.54 0.68 0.73 0.76 0.92 1.17 1.37 1.56 1.68 1.69 1.68 1.70 1.50 1.35 1.20 1.06 0.98 0.89 0.78 0.67 0.56 0.44 0.33 0.24 0.17 0.13 0.10 0.07
0.00 0.00 0.00 0.00 0.00 0.00 0.00 0.00 0.00 0.00 0.00 0.01 0.01 0.01 0.02 0.02 0.04 0.06 0.10 0.19 0.37 0.55 0.67 0.74 0.81 1.01 1.22 1.38 1.48 1.62 1.74 1.70 1.51 1.22 1.03 0.88 0.78 0.71 0.59 0.47 0.37 0.31 0.24 0.16 0.10 0.07 0.05 0.04 0.03
0.00 0.00 0.00 0.00 0.00 0.00 0.00 0.00 0.00 0.00 0.00 0.01 0.01 0.02 0.03 0.03 0.04 0.07 0.12 0.19 0.31 0.41 0.54 0.62 0.72 0.95 1.16 1.31 1.37 1.41 1.43 1.28 1.03 0.84 0.71 0.59 0.52 0.46 0.38 0.30 0.22 0.17 0.14 0.09 0.06 0.05 0.04 0.04 0.04
0.00 0.00 0.00 0.00 0.00 0.00 0.00 0.00 0.00 0.01 0.01 0.01 0.01 0.03 0.04 0.04 0.05 0.08 0.14 0.20 0.29 0.35 0.44 0.55 0.68 0.83 1.00 1.09 1.08 1.00 0.86 0.73 0.64 0.58 0.51 0.41 0.33 0.27 0.20 0.13 0.08 0.07 0.06 0.05 0.04 0.04 0.04 0.03 0.04
0.00 0.00 0.00 0.00 0.00 0.00 0.00 0.00 0.01 0.02 0.02 0.03 0.04 0.04 0.05 0.06 0.07 0.11 0.18 0.25 0.30 0.36 0.47 0.59 0.70 0.81 0.89 0.83 0.73 0.60 0.51 0.43 0.40 0.33 0.24 0.18 0.13 0.11 0.07 0.04 0.03 0.02 0.02 0.02 0.03 0.03 0.03 0.04 0.05
0.00 0.00 0.00 0.00 0.00 0.00 0.00 0.00 0.01 0.02 0.03 0.05 0.07 0.07 0.07 0.09 0.12 0.19 0.26 0.30 0.33 0.37 0.44 0.51 0.56 0.59 0.56 0.45 0.36 0.31 0.26 0.21 0.17 0.13 0.09 0.07 0.06 0.04 0.03 0.03 0.03 0.03 0.04 0.04 0.05 0.06 0.06 0.08 0.09
0.00 0.00 0.00 0.00 0.00 0.00 0.00 0.00 0.01 0.02 0.03 0.05 0.06 0.08 0.10 0.13 0.19 0.26 0.31 0.31 0.30 0.31 0.35 0.34 0.31 0.28 0.24 0.19 0.16 0.14 0.13 0.11 0.09 0.07 0.06 0.06 0.05 0.04 0.04 0.05 0.05 0.05 0.06 0.07 0.08 0.09 0.10 0.11 0.11
0.00 0.00 0.00 0.00 0.00 0.00 0.00 0.01 0.01 0.02 0.04 0.06 0.09 0.13 0.15 0.19 0.27 0.35 0.34 0.28 0.24 0.21 0.19 0.18 0.15 0.13 0.11 0.10 0.09 0.08 0.07 0.05 0.04 0.04 0.05 0.05 0.05 0.05 0.06 0.06 0.06 0.07 0.07 0.08 0.10 0.10 0.10 0.10 0.09
0.00 0.00 0.00 0.00 0.00 0.00 0.00 0.02 0.02 0.03 0.06 0.09 0.13 0.15 0.20 0.27 0.33 0.36 0.33 0.25 0.19 0.17 0.15 0.13 0.13 0.12 0.10 0.09 0.07 0.06 0.04 0.04 0.04 0.04 0.05 0.05 0.06 0.07 0.07 0.08 0.09 0.08 0.07 0.08 0.10 0.10 0.09 0.09 0.09

GEFSSGP_prec_meanprecacc_060.txt.gz
Total_Precipitation_Accumulation
0.00 0.00 0.00 0.00 0.00 0.00 0.00 0.01 0.03 0.05 0.06 0.05 0.07 0.09 0.06 0.06 0.12 0.29 0.10 0.05 0.03 0.01 0.00 0.01 0.01 0.02 0.02 0.02 0.02 0.04 0.07 0.11 0.13 0.12 0.10 0.08 0.08 0.08 0.09 0.10 0.12 0.17 0.21 0.19 0.18 0.17 0.18 0.17 0.13
0.00 0.00 0.00 0.00 0.00 0.00 0.01 0.02 0.05 0.06 0.08 0.07 0.08 0.06 0.01 0.00 0.00 0.01 0.01 0.03 0.03 0.01 0.00 0.00 0.01 0.02 0.04 0.04 0.04 0.04 0.07 0.11 0.16 0.17 0.15 0.11 0.08 0.08 0.10 0.10 0.12 0.17 0.19 0.16 0.14 0.11 0.11 0.08 0.05
0.00 0.00 0.00 0.00 0.00 0.00 0.03 0.04 0.05 0.07 0.09 0.08 0.09 0.05 0.01 0.00 0.00 0.00 0.01 0.03 0.02 0.02 0.01 0.01 0.01 0.02 0.05 0.06 0.07 0.07 0.10 0.14 0.19 0.22 0.22 0.16 0.09 0.07 0.11 0.13 0.13 0.15 0.18 0.19 0.15 0.10 0.07 0.04 0.03
0.00 0.00 0.00 0.00 0.00 0.00 0.02 0.04 0.03 0.06 0.10 0.08 0.05 0.03 0.01 0.00 0.00 0.00 0.01 0.02 0.01 0.01 0.00 0.00 0.01 0.02 0.05 0.08 0.09 0.11 0.13 0.17 0.22 0.26 0.25 0.17 0.10 0.08 0.11 0.15 0.18 0.19 0.22 0.26 0.22 0.20 0.13 0.08 0.05
0.00 0.00 0.00 0.00 0.00 0.00 0.01 0.03 0.03 0.04 0.06 0.05 0.03 0.02 0.01 0.01 0.01 0.01 0.02 0.02 0.01 0.02 0.01 0.00 0.02 0.03 0.06 0.08 0.08 0.11 0.15 0.18 0.24 0.27 0.23 0.16 0.11 0.08 0.11 0.17 0.20 0.23 0.25 0.25 0.21 0.19 0.14 0.12 0.10
0.00 0.00 0.00 0.00 0.00 0.00 0.01 0.01 0.02 0.04 0.06 0.05 0.03 0.03 0.03 0.01 0.02 0.03 0.04 0.05 0.03 0.02 0.01 0.01 0.01 0.03 0.10 0.16 0.11 0.09 0.12 0.15 0.21 0.26 0.22 0.15 0.11 0.13 0.16 0.18 0.21 0.23 0.20 0.17 0.17 0.16 0.13 0.15 0.17
0.00 0.00 0.00 0.00 0.00 0.00 0.00 0.01 0.01 0.03 0.07 0.07 0.05 0.05 0.03 0.02 0.05 0.09 0.09 0.10 0.09 0.08 0.05 0.02 0.02 0.02 0.05 0.07 0.06 0.06 0.07 0.11 0.16 0.21 0.24 0.19 0.15 0.22 0.25 0.23 0.24 0.27 0.21 0.17 0.17 0.18 0.15 0.19 0.24
0.00 0.00 0.00 0.00 0.00 0.00 0.00 0.01 0.01 0.03 0.07 0.06 0.04 0.04 0.04 0.02 0.05 0.13 0.16 0.19 0.21 0.30 0.38 0.17 0.09 0.04 0.02 0.02 0.02 0.02 0.02 0.04 0.07 0.10 0.13 0.14 0.16 0.19 0.21 0.19 0.18 0.20 0.15 0.11 0.10 0.12 0.12 0.10 0.09
0.00 0.00 0.00 0.00 0.00 0.00 0.00 0.02 0.02 0.03 0.05 0.05 0.02 0.02 0.03 0.02 0.05 0.12 0.18 0.28 0.35 0.54 0.71 0.49 0.18 0.04 0.01 0.02 0.01 0.01 0.01 0.01 0.02 0.03 0.05 0.09 0.19 0.23 0.21 0.13 0.10 0.07 0.04 0.02 0.02 0.02 0.02 0.01 0.01
0.00 0.00 0.00 0.00 0.00 0.00 0.00 0.01 0.02 0.02 0.03 0.03 0.03 0.04 0.05 0.04 0.07 0.13 0.29 0.71 0.76 0.64 0.60 0.47 0.11 0.03 0.01 0.01 0.01 0.02 0.02 0.01 0.03 0.05 0.05 0.12 0.21 0.23 0.17 0.11 0.05 0.02 0.01 0.01 0.01 0.00 0.00 0.00 0.00
0.00 0.00 0.00 0.00 0.00 0.00 0.00 0.00 0.01 0.02 0.02 0.03 0.06 0.08 0.06 0.04 0.06 0.09 0.22 0.69 0.89 0.57 0.32 0.16 0.10 0.06 0.03 0.01 0.02 0.02 0.02 0.03 0.03 0.05 0.06 0.12 0.11 0.07 0.05 0.05 0.04 0.02 0.02 0.02 0.02 0.01 0.00 0.00 0.00
0.00 0.00 0.00 0.00 0.00 0.00 0.00 0.00 0.00 0.01 0.02 0.04 0.08 0.13 0.08 0.04 0.02 0.06 0.17 0.28 0.30 0.32 0.23 0.13 0.10 0.07 0.05 0.02 0.01 0.02 0.02 0.02 0.02 0.04 0.04 0.07 0.09 0.07 0.06 0.07 0.07 0.07 0.06 0.06 0.04 0.03 0.02 0.01 0.01
0.00 0.00 0.00 0.00 0.00 0.00 0.00 0.00 0.00 0.00 0.01 0.02 0.06 0.11 0.07 0.04 0.04 0.07 0.22 0.27 0.25 0.31 0.29 0.16 0.11 0.07 0.04 0.02 0.01 0.01 0.01 0.01 0.02 0.02 0.03 0.03 0.05 0.06 0.08 0.08 0.08 0.08 0.09 0.09 0.08 0.05 0.04 0.04 0.05
0.00 0.00 0.00 0.00 0.00 0.00 0.00 0.00 0.00 0.00 0.00 0.01 0.03 0.07 0.06 0.06 0.07 0.11 0.27 0.33 0.36 0.49 0.46 0.23 0.11 0.04 0.03 0.02 0.01 0.01 0.02 0.04 0.04 0.05 0.05 0.04 0.07 0.11 0.11 0.12 0.13 0.09 0.10 0.12 0.10 0.08 0.07 0.06 0.09
0.00 0.00 0.00 0.00 0.00 0.00 0.00 0.00 0.00 0.00 0.00 0.01 0.02 0.05 0.09 0.11 0.10 0.13 0.23 0.29 0.43 0.69 0.64 0.30 0.10 0.03 0.03 0.02 0.02 0.03 0.04 0.06 0.08 0.10 0.09 0.06 0.09 0.14 0.15 0.17 0.17 0.14 0.14 0.14 0.13 0.12 0.12 0.14 0.15
0.00 0.00 0.00 0.00 0.00 0.00 0.00 0.00 0.00 0.00 0.00 0.00 0.02 0.03 0.05 0.06 0.08 0.11 0.23 0.36 0.63 1.01 1.00 0.42 0.10 0.04 0.04 0.06 0.07 0.08 0.09 0.09 0.10 0.13 0.14 0.11 0.14 0.20 0.25 0.27 0.27 0.26 0.24 0.25 0.25 0.24 0.22 0.22 0.19
0.00 0.00 0.00 0.00 0.00 0.00 0.00 0.00 0.00 0.00 0.00 0.00 0.01 0.02 0.02 0.02 0.04 0.10 0.24 0.51 0.95 1.49 1.28 0.51 0.17 0.10 0.11 0.13 0.15 0.20 0.22 0.23 0.24 0.26 0.28 0.28 0.29 0.31 0.37 0.42 0.44 0.45 0.45 0.41 0.36 0.36 0.35 0.35 0.31
0.00 0.00 0.00 0.00 0.00 0.00 0.00 0.00 0.00 0.00 0.00 0.00 0.00 0.01 0.02 0.03 0.05 0.09 0.26 0.64 1.26 1.92 1.44 0.70 0.45 0.37 0.29 0.26 0.29 0.33 0.40 0.47 0.48 0.43 0.40 0.38 0.41 0.47 0.58 0.62 0.63 0.61 0.58 0.56 0.56 0.52 0.42 0.33 0.28
0.00 0.00 0.00 0.00 0.00 0.00 0.00 0.00 0.00 0.00 0.00 0.00 0.00 0.00 0.01 0.03 0.05 0.12 0.32 0.59 0.78 0.95 0.85 0.72 0.65 0.60 0.55 0.58 0.62 0.74 0.86 0.87 0.76 0.68 0.66 0.67 0.74 0.83 0.89 0.86 0.81 0.72 0.68 0.64 0.55 0.46 0.37 0.30 0.24
0.00 0.00 0.00 0.00 0.00 0.00 0.00 0.00 0.00 0.00 0.00 0.00 0.00 0.01 0.01 0.03 0.07 0.14 0.27 0.38 0.45 0.59 0.71 0.73 0.67 0.68 0.77 0.94 1.10 1.31 1.43 1.35 1.23 1.15 1.12 1.13 1.12 1.07 0.99 0.95 0.85 0.76 0.65 0.55 0.47 0.42 0.37 0.33 0.26
0.00 0.00 0.00 0.00 0.00 0.00 0.00 0.00 0.00 0.00 0.00 0.00 0.01 0.01 0.01 0.03 0.06 0.10 0.16 0.25 0.35 0.52 0.70 0.76 0.77 0.88 1.06 1.27 1.57 1.79 1.76 1.65 1.64 1.58 1.54 1.41 1.27 1.16 1.07 0.96 0.88 0.78 0.68 0.58 0.49 0.41 0.36 0.29 0.22
0.00 0.00 0.00 0.00 0.00 0.00 0.00 0.00 0.00 0.00 0.01 0.01 0.01 0.01 0.01 0.02 0.04 0.07 0.15 0.25 0.38 0.60 0.74 0.82 0.90 1.05 1.29 1.48 1.68 1.82 1.83 1.81 1.83 1.63 1.48 1.30 1.14 1.05 0.96 0.85 0.75 0.65 0.55 0.45 0.35 0.27 0.21 0.17 0.13
0.00 0.00 0.00 0.00 0.00 0.00 0.00 0.00 0.00 0.00 0.01 0.01 0.01 0.02 0.02 0.03 0.04 0.06 0.12 0.25 0.40 0.59 0.73 0.84 0.95 1.16 1.37 1.53 1.63 1.74 1.85 1.82 1.64 1.36 1.13 0.95 0.84 0.76 0.64 0.52 0.43 0.38 0.31 0.24 0.16 0.12 0.09 0.08 0.07
0.00 0.00 0.00 0.00 0.00 0.00 0.00 0.00 0.00 0.01 0.01 0.01 0.02 0.02 0.03 0.03 0.04 0.07 0.13 0.21 0.33 0.48 0.64 0.72 0.83 1.08 1.34 1.51 1.56 1.56 1.56 1.41 1.17 0.96 0.79 0.64 0.57 0.50 0.42 0.33 0.25 0.20 0.16 0.11 0.08 0.07 0.06 0.06 0.06
0.00 0.00 0.00 0.00 0.00 0.00 0.00 0.00 0.01 0.01 0.01 0.01 0.02 0.03 0.04 0.05 0.05 0.08 0.15 0.21 0.31 0.39 0.49 0.61 0.74 0.92 1.12 1.25 1.26 1.17 1.03 0.88 0.77 0.69 0.59 0.46 0.37 0.30 0.22 0.14 0.09 0.08 0.06 0.05 0.05 0.05 0.04 0.04 0.05
0.00 0.00 0.00 0.00 0.00 0.00 0.00 0.01 0.03 0.02 0.03 0.04 0.05 0.04 0.05 0.06 0.08 0.12 0.20 0.27 0.32 0.39 0.51 0.63 0.74 0.88 0.98 0.95 0.88 0.75 0.66 0.58 0.52 0.42 0.29 0.20 0.15 0.11 0.08 0.04 0.03 0.03 0.03 0.03 0.03 0.03 0.03 0.04 0.06
0.00 0.00 0.00 0.00 0.00 0.00 0.00 0.01 0.04 0.03 0.04 0.06 0.08 0.07 0.08 0.10 0.14 0.21 0.28 0.32 0.36 0.40 0.47 0.54 0.60 0.65 0.64 0.55 0.48 0.42 0.37 0.30 0.23 0.16 0.11 0.08 0.06 0.05 0.04 0.03 0.03 0.04 0.04 0.04 0.06 0.06 0.07 0.08 0.10
0.00 0.00 0.00 0.00 0.00 0.00 0.00 0.02 0.03 0.05 0.05 0.07 0.07 0.09 0.11 0.15 0.20 0.28 0.33 0.34 0.33 0.34 0.38 0.38 0.36 0.33 0.30 0.26 0.23 0.20 0.17 0.13 0.10 0.08 0.07 0.06 0.05 0.05 0.04 0.05 0.06 0.06 0.06 0.07 0.09 0.10 0.10 0.12 0.12
0.00 0.00 0.00 0.00 0.00 0.00 0.01 0.05 0.07 0.09 0.11 0.11 0.13 0.14 0.16 0.20 0.29 0.37 0.37 0.31 0.26 0.23 0.23 0.24 0.21 0.18 0.16 0.15 0.13 0.11 0.09 0.06 0.05 0.04 0.05 0.05 0.05 0.05 0.06 0.06 0.07 0.07 0.08 0.08 0.10 0.10 0.10 0.10 0.09
0.00 0.00 0.00 0.00 0.00 0.00 0.01 0.10 0.09 0.19 0.26 0.22 0.19 0.17 0.22 0.28 0.34 0.37 0.35 0.27 0.22 0.21 0.19 0.18 0.17 0.16 0.14 0.12 0.09 0.07 0.06 0.04 0.04 0.04 0.05 0.05 0.06 0.07 0.07 0.08 0.09 0.08 0.08 0.08 0.10 0.10 0.09 0.09 0.10

GEFSSGP_prec_meanprecacc_066.txt.gz
Total_Precipitation_Accumulation
0.00 0.00 0.00 0.00 0.00 0.00 0.00 0.01 0.06 0.12 0.09 0.07 0.08 0.10 0.08 0.07 0.13 0.31 0.11 0.05 0.04 0.01 0.00 0.01 0.01 0.02 0.03 0.02 0.03 0.04 0.07 0.11 0.13 0.13 0.10 0.09 0.09 0.09 0.09 0.11 0.13 0.18 0.21 0.20 0.18 0.18 0.18 0.18 0.13
0.00 0.00 0.00 0.00 0.00 0.00 0.01 0.02 0.06 0.09 0.11 0.09 0.10 0.07 0.02 0.01 0.00 0.01 0.01 0.03 0.03 0.02 0.00 0.00 0.01 0.02 0.04 0.04 0.04 0.05 0.08 0.12 0.17 0.17 0.16 0.13 0.10 0.09 0.11 0.12 0.13 0.18 0.20 0.17 0.14 0.12 0.11 0.08 0.05
0.00 0.00 0.00 0.00 0.00 0.00 0.03 0.05 0.05 0.08 0.11 0.10 0.10 0.06 0.01 0.01 0.00 0.00 0.01 0.03 0.02 0.02 0.01 0.01 0.01 0.02 0.05 0.06 0.07 0.07 0.10 0.15 0.19 0.23 0.23 0.18 0.11 0.09 0.12 0.14 0.15 0.16 0.18 0.20 0.15 0.10 0.07 0.04 0.03
0.00 0.00 0.00 0.00 0.00 0.00 0.02 0.04 0.03 0.06 0.10 0.09 0.06 0.04 0.03 0.02 0.01 0.01 0.01 0.02 0.01 0.01 0.00 0.00 0.01 0.02 0.05 0.08 0.09 0.11 0.14 0.18 0.23 0.28 0.26 0.18 0.11 0.10 0.13 0.17 0.19 0.20 0.22 0.27 0.23 0.20 0.13 0.08 0.05
0.00 0.00 0.00 0.00 0.00 0.00 0.01 0.03 0.03 0.04 0.06 0.05 0.03 0.02 0.02 0.01 0.01 0.01 0.02 0.02 0.02 0.02 0.01 0.00 0.02 0.03 0.06 0.08 0.09 0.11 0.15 0.19 0.24 0.28 0.24 0.17 0.11 0.09 0.12 0.18 0.20 0.23 0.26 0.25 0.22 0.20 0.14 0.12 0.10
0.00 0.00 0.00 0.00 0.00 0.00 0.01 0.01 0.02 0.04 0.06 0.05 0.04 0.04 0.04 0.02 0.03 0.03 0.04 0.05 0.03 0.02 0.01 0.01 0.01 0.03 0.10 0.16 0.11 0.09 0.12 0.16 0.22 0.26 0.22 0.15 0.12 0.13 0.17 0.18 0.21 0.23 0.21 0.17 0.17 0.16 0.13 0.15 0.17
0.00 0.00 0.00 0.00 0.00 0.00 0.00 0.01 0.01 0.03 0.07 0.07 0.05 0.05 0.04 0.03 0.06 0.09 0.09 0.10 0.09 0.08 0.05 0.02 0.02 0.02 0.05 0.07 0.06 0.06 0.07 0.11 0.17 0.21 0.24 0.19 0.15 0.22 0.25 0.23 0.24 0.27 0.21 0.17 0.17 0.18 0.15 0.19 0.24
0.00 0.00 0.00 0.00 0.00 0.00 0.00 0.01 0.01 0.03 0.07 0.06 0.05 0.05 0.06 0.03 0.06 0.13 0.16 0.19 0.21 0.30 0.38 0.17 0.09 0.04 0.02 0.02 0.02 0.02 0.02 0.04 0.07 0.10 0.13 0.14 0.16 0.20 0.21 0.19 0.18 0.20 0.15 0.11 0.10 0.12 0.12 0.10 0.09
0.00 0.00 0.00 0.00 0.00 0.00 0.00 0.02 0.02 0.03 0.05 0.05 0.03 0.03 0.04 0.03 0.06 0.12 0.18 0.28 0.35 0.54 0.71 0.49 0.18 0.04 0.01 0.02 0.01 0.01 0.01 0.01 0.02 0.03 0.05 0.09 0.19 0.23 0.21 0.13 0.10 0.07 0.04 0.03 0.02 0.02 0.02 0.01 0.01
0.00 0.00 0.00 0.00 0.00 0.00 0.00 0.01 0.02 0.02 0.03 0.03 0.05 0.04 0.05 0.05 0.07 0.14 0.29 0.71 0.76 0.64 0.60 0.47 0.11 0.03 0.01 0.01 0.01 0.02 0.02 0.01 0.03 0.05 0.05 0.12 0.21 0.24 0.17 0.11 0.05 0.02 0.01 0.01 0.01 0.01 0.00 0.00 0.00
0.00 0.00 0.00 0.00 0.00 0.00 0.00 0.00 0.01 0.02 0.02 0.03 0.06 0.09 0.07 0.04 0.06 0.10 0.22 0.69 0.90 0.57 0.32 0.16 0.10 0.06 0.03 0.01 0.02 0.02 0.02 0.03 0.03 0.05 0.06 0.12 0.11 0.08 0.05 0.05 0.05 0.03 0.02 0.02 0.03 0.02 0.01 0.01 0.01
0.00 0.00 0.00 0.00 0.00 0.00 0.00 0.00 0.00 0.01 0.02 0.04 0.09 0.14 0.10 0.04 0.04 0.08 0.18 0.29 0.31 0.33 0.24 0.13 0.10 0.07 0.05 0.02 0.01 0.02 0.02 0.02 0.02 0.04 0.04 0.07 0.10 0.08 0.07 0.08 0.08 0.08 0.08 0.08 0.06 0.05 0.03 0.03 0.03
0.00 0.00 0.00 0.00 0.00 0.00 0.00 0.00 0.00 0.00 0.01 0.02 0.06 0.13 0.10 0.06 0.05 0.10 0.24 0.29 0.27 0.32 0.30 0.17 0.11 0.07 0.04 0.02 0.01 0.01 0.01 0.02 0.02 0.03 0.03 0.04 0.05 0.07 0.09 0.09 0.09 0.10 0.12 0.13 0.12 0.08 0.07 0.07 0.09
0.00 0.00 0.00 0.00 0.00 0.00 0.00 0.00 0.00 0.00 0.00 0.01 0.03 0.09 0.12 0.08 0.09 0.13 0.29 0.35 0.38 0.51 0.48 0.24 0.11 0.05 0.03 0.02 0.01 0.01 0.02 0.04 0.05 0.06 0.05 0.04 0.08 0.11 0.12 0.13 0.14 0.10 0.11 0.16 0.21 0.18 0.14 0.11 0.13
0.00 0.00 0.00 0.00 0.00 0.00 0.00 0.00 0.00 0.00 0.00 0.01 0.03 0.08 0.13 0.13 0.13 0.18 0.27 0.31 0.46 0.73 0.67 0.32 0.11 0.04 0.03 0.02 0.02 0.03 0.04 0.06 0.08 0.11 0.10 0.07 0.10 0.15 0.16 0.18 0.18 0.15 0.15 0.16 0.16 0.18 0.17 0.17 0.19
0.00 0.00 0.00 0.00 0.00 0.00 0.00 0.00 0.00 0.00 0.00 0.01 0.02 0.04 0.07 0.09 0.10 0.16 0.30 0.42 0.68 1.06 1.04 0.45 0.13 0.06 0.05 0.06 0.08 0.09 0.10 0.09 0.11 0.14 0.15 0.12 0.15 0.21 0.26 0.28 0.28 0.27 0.25 0.27 0.27 0.26 0.24 0.24 0.23
0.00 0.00 0.00 0.00 0.00 0.00 0.00 0.00 0.00 0.00 0.00 0.00 0.01 0.02 0.02 0.03 0.06 0.12 0.30 0.60 1.08 1.61 1.35 0.59 0.27 0.16 0.13 0.15 0.16 0.21 0.23 0.24 0.25 0.27 0.29 0.29 0.30 0.33 0.39 0.43 0.45 0.46 0.47 0.43 0.38 0.39 0.40 0.39 0.34
0.00 0.00 0.00 0.00 0.00 0.00 0.00 0.00 0.00 0.00 0.00 0.00 0.00 0.01 0.02 0.04 0.06 0.12 0.30 0.72 1.38 2.02 1.54 0.86 0.59 0.47 0.36 0.31 0.32 0.36 0.41 0.49 0.51 0.45 0.42 0.41 0.43 0.49 0.61 0.65 0.67 0.64 0.63 0.61 0.60 0.57 0.46 0.36 0.30
0.00 0.00 0.00 0.00 0.00 0.00 0.00 0.00 0.00 0.00 0.00 0.00 0.00 0.00 0.01 0.03 0.07 0.16 0.37 0.68 0.86 1.02 0.92 0.81 0.75 0.67 0.61 0.63 0.67 0.78 0.90 0.92 0.80 0.72 0.69 0.71 0.78 0.88 0.95 0.92 0.88 0.78 0.74 0.70 0.60 0.50 0.40 0.32 0.25
0.00 0.00 0.00 0.00 0.00 0.00 0.00 0.00 0.00 0.00 0.00 0.00 0.00 0.01 0.01 0.03 0.09 0.18 0.34 0.48 0.55 0.69 0.83 0.82 0.74 0.75 0.84 1.02 1.18 1.40 1.52 1.43 1.30 1.23 1.19 1.21 1.21 1.17 1.09 1.04 0.93 0.82 0.71 0.60 0.51 0.45 0.39 0.35 0.28
0.00 0.00 0.00 0.00 0.00 0.00 0.00 0.00 0.00 0.00 0.00 0.01 0.01 0.01 0.02 0.04 0.09 0.15 0.24 0.39 0.50 0.65 0.84 0.89 0.91 1.04 1.24 1.44 1.74 1.98 1.92 1.79 1.79 1.73 1.69 1.58 1.44 1.31 1.20 1.08 0.97 0.85 0.72 0.63 0.54 0.45 0.38 0.31 0.24
0.00 0.00 0.00 0.00 0.00 0.00 0.00 0.00 0.00 0.01 0.01 0.01 0.01 0.01 0.02 0.03 0.06 0.12 0.22 0.40 0.61 0.80 0.94 1.04 1.16 1.39 1.67 1.87 2.05 2.13 2.10 2.06 2.07 1.87 1.71 1.52 1.32 1.22 1.12 0.98 0.86 0.76 0.64 0.53 0.40 0.30 0.24 0.19 0.15
0.00 0.00 0.00 0.00 0.00 0.00 0.00 0.00 0.00 0.01 0.01 0.01 0.02 0.02 0.03 0.04 0.05 0.09 0.17 0.33 0.54 0.77 1.02 1.19 1.32 1.59 1.82 1.98 2.10 2.19 2.26 2.20 2.03 1.69 1.40 1.17 1.05 0.97 0.82 0.66 0.54 0.47 0.38 0.28 0.19 0.15 0.12 0.09 0.08
0.00 0.00 0.00 0.00 0.00 0.00 0.00 0.00 0.01 0.02 0.01 0.01 0.02 0.03 0.04 0.05 0.06 0.10 0.17 0.26 0.41 0.60 0.85 1.02 1.17 1.54 1.87 2.03 2.05 2.07 2.06 1.88 1.60 1.31 1.07 0.92 0.81 0.72 0.59 0.47 0.36 0.27 0.20 0.13 0.09 0.08 0.07 0.07 0.07
0.00 0.00 0.00 0.00 0.00 0.00 0.00 0.00 0.04 0.04 0.03 0.03 0.03 0.05 0.07 0.07 0.08 0.11 0.19 0.27 0.39 0.51 0.70 0.91 1.09 1.30 1.56 1.69 1.68 1.64 1.50 1.31 1.17 1.05 0.89 0.71 0.58 0.47 0.35 0.23 0.16 0.11 0.08 0.06 0.06 0.05 0.05 0.04 0.05
0.00 0.00 0.00 0.00 0.00 0.00 0.00 0.03 0.11 0.07 0.06 0.06 0.07 0.08 0.09 0.10 0.11 0.15 0.24 0.32 0.38 0.48 0.65 0.84 0.99 1.12 1.22 1.22 1.16 1.03 0.94 0.85 0.77 0.66 0.49 0.37 0.28 0.21 0.14 0.08 0.05 0.03 0.03 0.03 0.03 0.03 0.04 0.04 0.06
0.00 0.00 0.00 0.00 0.00 0.00 0.01 0.08 0.18 0.15 0.13 0.13 0.13 0.12 0.12 0.14 0.17 0.24 0.32 0.36 0.40 0.45 0.54 0.63 0.70 0.76 0.73 0.67 0.63 0.57 0.53 0.45 0.37 0.28 0.20 0.14 0.11 0.08 0.05 0.04 0.04 0.04 0.04 0.05 0.06 0.06 0.07 0.08 0.10
0.00 0.00 0.00 0.00 0.00 0.00 0.01 0.08 0.17 0.21 0.22 0.20 0.17 0.16 0.17 0.19 0.24 0.31 0.36 0.37 0.36 0.38 0.42 0.42 0.40 0.39 0.37 0.35 0.34 0.31 0.28 0.23 0.19 0.15 0.12 0.10 0.08 0.06 0.05 0.05 0.06 0.06 0.06 0.07 0.09 0.10 0.10 0.12 0.12
0.00 0.00 0.00 0.00 0.00 0.00 0.02 0.12 0.20 0.29 0.32 0.29 0.27 0.24 0.22 0.25 0.32 0.39 0.40 0.34 0.29 0.26 0.26 0.27 0.25 0.24 0.23 0.22 0.22 0.20 0.17 0.13 0.10 0.08 0.08 0.07 0.07 0.06 0.07 0.07 0.07 0.07 0.08 0.08 0.10 0.10 0.10 0.10 0.09
0.01 0.00 0.00 0.00 0.00 0.00 0.03 0.19 0.27 0.48 0.56 0.50 0.44 0.34 0.32 0.35 0.40 0.42 0.39 0.30 0.25 0.24 0.23 0.22 0.22 0.22 0.21 0.18 0.15 0.13 0.11 0.09 0.08 0.07 0.07 0.07 0.07 0.07 0.08 0.08 0.09 0.08 0.08 0.08 0.10 0.10 0.09 0.09 0.10

GEFSSGP_prec_meanprecacc_072.txt.gz
Total_Precipitation_Accumulation
0.00 0.00 0.00 0.00 0.00 0.00 0.00 0.01 0.06 0.12 0.10 0.08 0.10 0.12 0.10 0.08 0.14 0.31 0.11 0.05 0.04 0.01 0.00 0.01 0.02 0.03 0.03 0.02 0.03 0.04 0.07 0.11 0.13 0.13 0.10 0.09 0.09 0.09 0.09 0.11 0.13 0.19 0.22 0.20 0.18 0.18 0.18 0.18 0.13
0.00 0.00 0.00 0.00 0.00 0.00 0.01 0.02 0.06 0.09 0.12 0.11 0.12 0.08 0.03 0.01 0.01 0.01 0.01 0.03 0.03 0.02 0.00 0.00 0.01 0.03 0.04 0.04 0.04 0.05 0.08 0.12 0.17 0.17 0.16 0.13 0.10 0.09 0.11 0.12 0.13 0.18 0.20 0.18 0.14 0.12 0.11 0.09 0.06
0.00 0.00 0.00 0.00 0.00 0.00 0.03 0.05 0.05 0.08 0.11 0.11 0.11 0.07 0.02 0.01 0.00 0.00 0.01 0.03 0.02 0.02 0.01 0.01 0.01 0.02 0.05 0.06 0.07 0.07 0.10 0.15 0.19 0.23 0.23 0.18 0.11 0.09 0.12 0.15 0.15 0.16 0.19 0.20 0.16 0.11 0.07 0.04 0.03
0.00 0.00 0.00 0.00 0.00 0.00 0.02 0.04 0.03 0.06 0.11 0.10 0.07 0.05 0.03 0.02 0.01 0.01 0.01 0.02 0.01 0.01 0.00 0.01 0.01 0.02 0.05 0.08 0.09 0.11 0.14 0.18 0.23 0.28 0.26 0.18 0.12 0.10 0.13 0.17 0.19 0.20 0.23 0.27 0.23 0.20 0.13 0.08 0.05
0.00 0.00 0.00 0.00 0.00 0.00 0.01 0.03 0.03 0.04 0.07 0.06 0.03 0.03 0.02 0.01 0.01 0.01 0.02 0.02 0.02 0.02 0.01 0.00 0.02 0.03 0.06 0.08 0.09 0.11 0.15 0.19 0.24 0.28 0.24 0.17 0.12 0.09 0.12 0.18 0.21 0.24 0.26 0.25 0.22 0.20 0.14 0.12 0.10
0.00 0.00 0.00 0.00 0.00 0.00 0.01 0.01 0.02 0.04 0.06 0.05 0.04 0.04 0.04 0.02 0.03 0.04 0.04 0.05 0.03 0.02 0.01 0.01 0.02 0.03 0.10 0.16 0.11 0.09 0.12 0.16 0.22 0.26 0.22 0.15 0.12 0.13 0.17 0.18 0.22 0.24 0.21 0.17 0.17 0.16 0.13 0.15 0.17
0.00 0.00 0.00 0.00 0.00 0.00 0.01 0.01 0.01 0.03 0.07 0.07 0.06 0.05 0.04 0.03 0.06 0.09 0.09 0.10 0.09 0.08 0.05 0.02 0.02 0.02 0.05 0.07 0.06 0.06 0.08 0.11 0.17 0.21 0.24 0.19 0.15 0.22 0.25 0.23 0.24 0.27 0.22 0.17 0.17 0.18 0.15 0.19 0.24
0.00 0.00 0.00 0.00 0.00 0.00 0.01 0.01 0.01 0.03 0.07 0.07 0.05 0.05 0.06 0.04 0.06 0.14 0.16 0.19 0.21 0.30 0.38 0.17 0.09 0.04 0.02 0.02 0.02 0.02 0.02 0.04 0.07 0.10 0.13 0.14 0.16 0.20 0.21 0.19 0.18 0.20 0.15 0.11 0.10 0.12 0.12 0.10 0.09
0.00 0.00 0.00 0.00 0.01 0.00 0.00 0.02 0.02 0.03 0.05 0.05 0.03 0.03 0.04 0.03 0.06 0.12 0.18 0.28 0.35 0.54 0.71 0.49 0.18 0.04 0.01 0.02 0.01 0.01 0.01 0.01 0.02 0.03 0.05 0.09 0.19 0.23 0.21 0.13 0.10 0.07 0.04 0.03 0.02 0.02 0.02 0.01 0.01
0.00 0.00 0.00 0.00 0.00 0.01 0.00 0.01 0.02 0.02 0.03 0.03 0.05 0.04 0.05 0.05 0.07 0.14 0.29 0.71 0.76 0.64 0.61 0.47 0.11 0.03 0.01 0.01 0.01 0.02 0.02 0.01 0.03 0.05 0.05 0.12 0.21 0.24 0.17 0.11 0.05 0.03 0.01 0.01 0.01 0.01 0.01 0.00 0.00
0.00 0.00 0.00 0.00 0.00 0.00 0.00 0.00 0.01 0.02 0.02 0.03 0.07 0.09 0.07 0.04 0.06 0.10 0.22 0.69 0.90 0.57 0.32 0.16 0.10 0.06 0.03 0.01 0.02 0.02 0.02 0.03 0.03 0.05 0.06 0.12 0.11 0.08 0.05 0.05 0.05 0.03 0.02 0.03 0.03 0.02 0.01 0.01 0.01
0.00 0.00 0.00 0.00 0.00 0.00 0.00 0.00 0.00 0.01 0.02 0.04 0.09 0.14 0.10 0.04 0.04 0.08 0.18 0.29 0.31 0.33 0.24 0.13 0.10 0.07 0.05 0.02 0.01 0.02 0.02 0.02 0.02 0.04 0.04 0.07 0.10 0.08 0.07 0.08 0.08 0.09 0.09 0.08 0.06 0.05 0.04 0.03 0.03
0.00 0.00 0.00 0.00 0.00 0.00 0.00 0.00 0.00 0.00 0.01 0.02 0.06 0.13 0.10 0.06 0.05 0.10 0.24 0.29 0.27 0.33 0.31 0.17 0.11 0.07 0.04 0.02 0.01 0.01 0.01 0.02 0.02 0.03 0.03 0.04 0.05 0.07 0.09 0.10 0.10 0.10 0.12 0.14 0.12 0.08 0.08 0.07 0.09
0.00 0.00 0.00 0.00 0.00 0.00 0.00 0.00 0.00 0.00 0.00 0.01 0.03 0.09 0.13 0.08 0.09 0.13 0.29 0.35 0.39 0.52 0.49 0.24 0.11 0.05 0.03 0.02 0.01 0.01 0.02 0.04 0.05 0.06 0.05 0.04 0.08 0.12 0.13 0.14 0.15 0.11 0.12 0.17 0.22 0.19 0.15 0.12 0.14
0.00 0.00 0.00 0.00 0.00 0.00 0.00 0.00 0.00 0.00 0.00 0.01 0.03 0.08 0.14 0.14 0.14 0.19 0.28 0.32 0.46 0.74 0.68 0.32 0.12 0.05 0.04 0.03 0.03 0.04 0.05 0.07 0.09 0.12 0.11 0.08 0.11 0.16 0.18 0.20 0.20 0.17 0.17 0.18 0.19 0.20 0.18 0.18 0.20
0.00 0.00 0.00 0.00 0.00 0.00 0.00 0.00 0.00 0.00 0.00 0.01 0.02 0.04 0.07 0.09 0.11 0.16 0.30 0.43 0.69 1.07 1.06 0.46 0.14 0.07 0.07 0.10 0.11 0.11 0.12 0.12 0.13 0.17 0.17 0.13 0.16 0.25 0.30 0.32 0.31 0.30 0.28 0.30 0.31 0.30 0.28 0.27 0.26
0.00 0.00 0.00 0.00 0.00 0.00 0.00 0.00 0.00 0.00 0.00 0.00 0.01 0.02 0.02 0.03 0.06 0.13 0.30 0.60 1.09 1.63 1.36 0.60 0.28 0.21 0.20 0.22 0.26 0.30 0.29 0.28 0.29 0.31 0.31 0.32 0.34 0.36 0.43 0.48 0.50 0.50 0.53 0.50 0.45 0.47 0.48 0.46 0.40
0.00 0.00 0.00 0.00 0.00 0.00 0.00 0.00 0.00 0.00 0.00 0.00 0.01 0.01 0.02 0.04 0.07 0.12 0.30 0.73 1.39 2.03 1.55 0.89 0.65 0.57 0.51 0.47 0.50 0.52 0.56 0.60 0.60 0.55 0.51 0.48 0.49 0.55 0.69 0.75 0.77 0.75 0.73 0.71 0.71 0.67 0.53 0.40 0.34
0.00 0.00 0.00 0.00 0.00 0.00 0.00 0.00 0.00 0.00 0.00 0.00 0.00 0.01 0.01 0.03 0.08 0.17 0.38 0.69 0.87 1.03 0.94 0.83 0.81 0.75 0.71 0.74 0.80 0.93 1.07 1.09 0.99 0.93 0.90 0.91 0.98 1.07 1.15 1.14 1.09 0.98 0.92 0.88 0.76 0.61 0.49 0.37 0.30
0.00 0.00 0.00 0.00 0.00 0.00 0.00 0.00 0.00 0.00 0.00 0.00 0.01 0.01 0.01 0.04 0.10 0.19 0.35 0.49 0.57 0.71 0.86 0.86 0.81 0.86 0.98 1.21 1.42 1.69 1.84 1.77 1.64 1.54 1.49 1.52 1.51 1.45 1.40 1.35 1.22 1.08 0.93 0.79 0.66 0.58 0.51 0.45 0.37
0.00 0.00 0.00 0.00 0.00 0.00 0.00 0.00 0.01 0.01 0.01 0.01 0.01 0.01 0.02 0.05 0.11 0.17 0.26 0.41 0.54 0.70 0.89 0.96 1.01 1.20 1.44 1.74 2.14 2.45 2.45 2.31 2.25 2.11 2.05 1.93 1.78 1.65 1.55 1.40 1.28 1.12 0.96 0.83 0.70 0.60 0.51 0.42 0.31
0.00 0.00 0.00 0.00 0.00 0.00 0.00 0.00 0.01 0.01 0.01 0.02 0.02 0.02 0.03 0.05 0.08 0.15 0.26 0.46 0.68 0.89 1.05 1.17 1.33 1.63 1.99 2.27 2.55 2.74 2.76 2.64 2.57 2.32 2.13 1.92 1.70 1.57 1.45 1.31 1.15 1.02 0.89 0.76 0.64 0.52 0.40 0.29 0.22
0.00 0.00 0.00 0.00 0.00 0.00 0.00 0.00 0.01 0.02 0.02 0.02 0.03 0.04 0.05 0.06 0.08 0.13 0.22 0.40 0.63 0.89 1.18 1.37 1.52 1.88 2.24 2.45 2.57 2.70 2.83 2.80 2.58 2.18 1.85 1.60 1.41 1.29 1.13 0.96 0.82 0.75 0.67 0.56 0.44 0.33 0.22 0.16 0.11
0.00 0.00 0.00 0.00 0.00 0.00 0.00 0.00 0.01 0.04 0.03 0.03 0.04 0.05 0.07 0.08 0.10 0.15 0.22 0.34 0.50 0.71 0.99 1.19 1.38 1.84 2.27 2.47 2.54 2.60 2.59 2.38 2.02 1.67 1.40 1.23 1.13 1.03 0.89 0.77 0.63 0.50 0.38 0.27 0.20 0.15 0.12 0.09 0.08
0.00 0.00 0.00 0.00 0.00 0.00 0.00 0.01 0.06 0.07 0.05 0.04 0.05 0.08 0.10 0.10 0.12 0.17 0.25 0.34 0.47 0.60 0.83 1.07 1.30 1.57 1.89 2.08 2.10 2.08 1.97 1.77 1.60 1.43 1.24 1.06 0.91 0.78 0.64 0.45 0.31 0.22 0.15 0.11 0.08 0.07 0.06 0.05 0.05
0.00 0.00 0.00 0.00 0.00 0.00 0.01 0.05 0.14 0.10 0.08 0.08 0.09 0.10 0.11 0.13 0.15 0.21 0.32 0.41 0.49 0.59 0.78 1.02 1.20 1.37 1.49 1.52 1.50 1.37 1.25 1.17 1.10 0.96 0.79 0.65 0.51 0.41 0.32 0.19 0.12 0.09 0.06 0.04 0.04 0.04 0.04 0.05 0.06
0.00 0.00 0.00 0.00 0.00 0.00 0.02 0.12 0.24 0.21 0.16 0.16 0.16 0.14 0.15 0.18 0.21 0.30 0.39 0.45 0.51 0.57 0.67 0.80 0.90 0.98 0.95 0.85 0.81 0.77 0.72 0.65 0.56 0.45 0.34 0.28 0.23 0.17 0.12 0.08 0.07 0.06 0.06 0.06 0.07 0.07 0.07 0.09 0.10
0.00 0.00 0.00 0.00 0.00 0.00 0.02 0.11 0.23 0.28 0.28 0.25 0.22 0.21 0.21 0.24 0.29 0.36 0.43 0.46 0.47 0.49 0.54 0.55 0.54 0.54 0.51 0.48 0.46 0.43 0.40 0.34 0.29 0.24 0.20 0.17 0.15 0.12 0.09 0.08 0.08 0.07 0.07 0.08 0.10 0.10 0.10 0.12 0.12
0.00 0.00 0.00 0.00 0.00 0.00 0.02 0.15 0.26 0.37 0.38 0.34 0.33 0.30 0.28 0.30 0.38 0.46 0.47 0.43 0.40 0.38 0.37 0.38 0.38 0.35 0.33 0.33 0.31 0.28 0.24 0.19 0.16 0.14 0.12 0.11 0.09 0.08 0.08 0.08 0.08 0.08 0.08 0.09 0.11 0.11 0.10 0.10 0.10
0.01 0.01 0.00 0.00 0.00 0.00 0.03 0.22 0.33 0.55 0.63 0.56 0.49 0.40 0.39 0.41 0.45 0.49 0.46 0.39 0.34 0.34 0.34 0.32 0.33 0.31 0.29 0.26 0.24 0.20 0.17 0.13 0.12 0.11 0.11 0.10 0.10 0.10 0.10 0.10 0.11 0.10 0.09 0.09 0.11 0.11 0.09 0.10 0.10

GEFSSGP_prec_meanprecacc_078.txt.gz
Total_Precipitation_Accumulation
0.00 0.00 0.00 0.00 0.00 0.00 0.00 0.01 0.06 0.12 0.10 0.08 0.10 0.12 0.10 0.08 0.14 0.31 0.11 0.06 0.04 0.01 0.00 0.01 0.02 0.03 0.03 0.03 0.03 0.04 0.07 0.11 0.13 0.13 0.11 0.09 0.09 0.09 0.10 0.11 0.14 0.19 0.22 0.21 0.19 0.18 0.18 0.18 0.14
0.00 0.00 0.00 0.00 0.00 0.00 0.01 0.02 0.06 0.09 0.12 0.11 0.12 0.09 0.03 0.01 0.01 0.01 0.01 0.03 0.03 0.02 0.00 0.01 0.01 0.03 0.05 0.04 0.05 0.05 0.08 0.12 0.17 0.18 0.16 0.13 0.10 0.10 0.11 0.12 0.13 0.19 0.21 0.18 0.15 0.12 0.11 0.09 0.06
0.00 0.00 0.00 0.00 0.00 0.00 0.03 0.05 0.05 0.08 0.11 0.11 0.12 0.07 0.02 0.01 0.00 0.00 0.01 0.03 0.02 0.02 0.01 0.01 0.01 0.02 0.05 0.06 0.07 0.08 0.10 0.15 0.19 0.23 0.23 0.18 0.11 0.09 0.13 0.15 0.15 0.17 0.20 0.21 0.16 0.11 0.07 0.04 0.04
0.00 0.00 0.00 0.00 0.00 0.00 0.02 0.04 0.03 0.06 0.11 0.10 0.07 0.05 0.03 0.02 0.01 0.01 0.01 0.02 0.01 0.01 0.00 0.01 0.01 0.02 0.05 0.08 0.09 0.11 0.14 0.18 0.23 0.28 0.26 0.19 0.12 0.11 0.14 0.18 0.21 0.21 0.24 0.28 0.23 0.20 0.13 0.08 0.05
0.00 0.00 0.00 0.00 0.00 0.00 0.01 0.03 0.03 0.04 0.07 0.06 0.04 0.03 0.02 0.01 0.01 0.01 0.02 0.02 0.02 0.02 0.01 0.00 0.02 0.03 0.07 0.09 0.09 0.11 0.15 0.19 0.25 0.28 0.24 0.17 0.12 0.11 0.13 0.20 0.23 0.26 0.28 0.26 0.22 0.20 0.14 0.12 0.11
0.00 0.00 0.00 0.00 0.00 0.00 0.01 0.01 0.02 0.04 0.06 0.05 0.04 0.04 0.04 0.02 0.03 0.04 0.04 0.05 0.03 0.02 0.01 0.01 0.02 0.03 0.10 0.16 0.11 0.09 0.12 0.16 0.22 0.26 0.23 0.16 0.13 0.15 0.18 0.20 0.23 0.26 0.23 0.18 0.17 0.16 0.13 0.15 0.17
0.00 0.00 0.00 0.00 0.00 0.00 0.01 0.01 0.02 0.03 0.07 0.07 0.06 0.05 0.04 0.03 0.06 0.09 0.09 0.10 0.09 0.08 0.05 0.02 0.02 0.02 0.06 0.08 0.07 0.07 0.08 0.12 0.17 0.22 0.25 0.20 0.16 0.23 0.27 0.25 0.25 0.28 0.23 0.17 0.17 0.18 0.15 0.19 0.24
0.00 0.00 0.00 0.00 0.01 0.00 0.01 0.02 0.02 0.04 0.07 0.07 0.05 0.05 0.06 0.04 0.06 0.14 0.16 0.19 0.21 0.30 0.38 0.17 0.09 0.04 0.03 0.02 0.03 0.04 0.04 0.05 0.08 0.11 0.14 0.15 0.16 0.20 0.22 0.20 0.19 0.20 0.15 0.11 0.11 0.12 0.12 0.10 0.09
0.00 0.00 0.00 0.00 0.01 0.01 0.01 0.02 0.02 0.03 0.06 0.05 0.03 0.03 0.04 0.03 0.06 0.12 0.18 0.28 0.35 0.54 0.72 0.49 0.19 0.04 0.02 0.03 0.01 0.02 0.02 0.02 0.03 0.03 0.05 0.10 0.19 0.23 0.22 0.13 0.11 0.08 0.05 0.03 0.02 0.02 0.02 0.01 0.01
0.00 0.00 0.00 0.00 0.00 0.01 0.01 0.01 0.02 0.02 0.03 0.03 0.05 0.04 0.05 0.05 0.07 0.14 0.29 0.71 0.76 0.64 0.61 0.47 0.12 0.03 0.02 0.02 0.02 0.03 0.03 0.02 0.03 0.06 0.05 0.12 0.22 0.25 0.18 0.11 0.06 0.03 0.02 0.01 0.01 0.01 0.01 0.01 0.00
0.00 0.00 0.00 0.00 0.00 0.00 0.00 0.01 0.01 0.02 0.02 0.03 0.07 0.09 0.07 0.04 0.06 0.10 0.22 0.69 0.90 0.57 0.32 0.16 0.11 0.07 0.04 0.02 0.03 0.04 0.04 0.05 0.04 0.06 0.07 0.14 0.13 0.08 0.05 0.06 0.05 0.04 0.03 0.03 0.04 0.02 0.01 0.01 0.01
0.00 0.00 0.00 0.00 0.00 0.00 0.00 0.01 0.01 0.01 0.02 0.04 0.09 0.14 0.10 0.04 0.04 0.08 0.18 0.29 0.31 0.33 0.24 0.13 0.10 0.07 0.05 0.03 0.02 0.03 0.04 0.03 0.03 0.05 0.05 0.08 0.11 0.08 0.08 0.08 0.09 0.10 0.10 0.09 0.06 0.05 0.04 0.03 0.03
0.00 0.00 0.00 0.00 0.00 0.00 0.00 0.00 0.00 0.00 0.01 0.02 0.06 0.13 0.10 0.06 0.05 0.10 0.24 0.29 0.27 0.33 0.31 0.17 0.11 0.07 0.05 0.03 0.02 0.01 0.02 0.02 0.03 0.04 0.03 0.04 0.06 0.08 0.10 0.10 0.11 0.12 0.14 0.15 0.12 0.08 0.08 0.08 0.09
0.00 0.00 0.00 0.00 0.00 0.00 0.00 0.00 0.00 0.00 0.00 0.01 0.03 0.09 0.13 0.08 0.09 0.14 0.30 0.36 0.39 0.52 0.49 0.25 0.11 0.05 0.04 0.02 0.02 0.02 0.03 0.05 0.05 0.06 0.06 0.05 0.09 0.13 0.15 0.16 0.16 0.13 0.14 0.20 0.25 0.21 0.17 0.13 0.15
0.00 0.00 0.00 0.00 0.00 0.00 0.00 0.00 0.00 0.00 0.00 0.01 0.03 0.08 0.14 0.14 0.14 0.19 0.29 0.33 0.47 0.74 0.69 0.34 0.12 0.05 0.04 0.04 0.03 0.04 0.05 0.07 0.10 0.12 0.12 0.09 0.12 0.18 0.20 0.23 0.23 0.20 0.20 0.22 0.23 0.24 0.22 0.22 0.24
0.00 0.00 0.00 0.00 0.00 0.00 0.00 0.00 0.00 0.00 0.00 0.01 0.02 0.04 0.08 0.10 0.11 0.17 0.31 0.44 0.70 1.09 1.08 0.48 0.16 0.08 0.08 0.10 0.11 0.12 0.12 0.12 0.14 0.18 0.19 0.14 0.18 0.27 0.33 0.35 0.35 0.34 0.33 0.37 0.37 0.36 0.34 0.34 0.33
0.00 0.00 0.00 0.00 0.00 0.00 0.00 0.00 0.00 0.00 0.00 0.00 0.01 0.02 0.03 0.04 0.07 0.14 0.31 0.61 1.11 1.64 1.38 0.61 0.29 0.22 0.20 0.23 0.26 0.30 0.30 0.29 0.31 0.32 0.34 0.34 0.37 0.41 0.47 0.53 0.57 0.58 0.61 0.58 0.53 0.53 0.56 0.56 0.49
0.00 0.00 0.00 0.00 0.00 0.00 0.00 0.00 0.00 0.00 0.00 0.00 0.01 0.01 0.03 0.05 0.08 0.13 0.31 0.74 1.41 2.05 1.57 0.91 0.66 0.59 0.52 0.48 0.50 0.53 0.58 0.62 0.64 0.60 0.58 0.58 0.60 0.65 0.79 0.86 0.89 0.89 0.90 0.86 0.84 0.79 0.63 0.50 0.41
0.00 0.00 0.00 0.00 0.00 0.00 0.00 0.00 0.00 0.00 0.00 0.00 0.00 0.01 0.01 0.04 0.08 0.18 0.39 0.71 0.89 1.06 0.97 0.87 0.84 0.78 0.74 0.77 0.84 0.97 1.11 1.15 1.07 1.03 1.02 1.05 1.13 1.23 1.36 1.35 1.30 1.21 1.18 1.13 0.98 0.79 0.62 0.48 0.39
0.00 0.00 0.00 0.00 0.00 0.00 0.00 0.01 0.01 0.01 0.01 0.01 0.01 0.01 0.02 0.04 0.10 0.20 0.37 0.51 0.59 0.74 0.91 0.92 0.87 0.91 1.02 1.25 1.49 1.79 2.01 1.98 1.85 1.73 1.68 1.69 1.68 1.63 1.61 1.57 1.46 1.33 1.21 1.06 0.93 0.83 0.73 0.62 0.52
0.00 0.00 0.00 0.00 0.00 0.00 0.00 0.01 0.01 0.02 0.01 0.01 0.01 0.02 0.03 0.06 0.11 0.18 0.28 0.45 0.58 0.75 0.95 1.02 1.08 1.31 1.57 1.87 2.30 2.68 2.74 2.67 2.62 2.43 2.33 2.17 1.99 1.86 1.78 1.64 1.53 1.39 1.24 1.12 0.99 0.86 0.76 0.66 0.54
0.00 0.00 0.00 0.00 0.00 0.00 0.00 0.01 0.02 0.02 0.02 0.02 0.03 0.03 0.04 0.06 0.09 0.16 0.28 0.49 0.72 0.93 1.10 1.23 1.41 1.77 2.18 2.49 2.83 3.06 3.13 3.07 3.00 2.73 2.50 2.20 1.93 1.79 1.67 1.54 1.38 1.27 1.13 0.99 0.87 0.79 0.69 0.59 0.48
0.00 0.00 0.00 0.00 0.00 0.00 0.00 0.01 0.03 0.03 0.03 0.04 0.05 0.05 0.06 0.07 0.09 0.14 0.24 0.43 0.66 0.92 1.21 1.43 1.59 1.99 2.41 2.70 2.89 3.08 3.22 3.18 2.97 2.57 2.17 1.88 1.68 1.52 1.35 1.18 1.04 0.96 0.87 0.75 0.61 0.52 0.44 0.37 0.30
0.00 0.00 0.00 0.00 0.00 0.00 0.00 0.01 0.04 0.06 0.05 0.05 0.06 0.07 0.09 0.10 0.12 0.17 0.25 0.36 0.53 0.75 1.04 1.25 1.44 1.94 2.41 2.69 2.84 3.00 3.04 2.84 2.44 2.02 1.70 1.51 1.38 1.26 1.11 0.98 0.81 0.68 0.55 0.41 0.32 0.26 0.21 0.18 0.15
0.00 0.00 0.00 0.00 0.00 0.00 0.00 0.02 0.09 0.10 0.08 0.06 0.07 0.10 0.12 0.12 0.14 0.19 0.27 0.36 0.50 0.65 0.88 1.13 1.37 1.68 2.05 2.27 2.35 2.37 2.31 2.16 1.99 1.77 1.53 1.31 1.15 1.01 0.83 0.62 0.45 0.34 0.25 0.19 0.15 0.13 0.12 0.09 0.09
0.00 0.00 0.00 0.00 0.00 0.00 0.02 0.08 0.19 0.14 0.11 0.10 0.11 0.12 0.13 0.15 0.17 0.23 0.34 0.44 0.51 0.63 0.84 1.09 1.28 1.48 1.62 1.68 1.69 1.58 1.49 1.42 1.35 1.21 1.03 0.87 0.70 0.58 0.44 0.29 0.21 0.15 0.12 0.10 0.09 0.08 0.07 0.07 0.08
0.00 0.00 0.00 0.00 0.00 0.01 0.05 0.15 0.28 0.25 0.19 0.17 0.17 0.16 0.17 0.20 0.23 0.32 0.41 0.47 0.54 0.60 0.72 0.85 0.97 1.08 1.06 0.97 0.93 0.89 0.87 0.81 0.72 0.62 0.50 0.42 0.36 0.28 0.22 0.16 0.12 0.10 0.09 0.09 0.10 0.09 0.10 0.11 0.11
0.00 0.00 0.00 0.00 0.00 0.01 0.05 0.15 0.27 0.32 0.31 0.27 0.23 0.23 0.24 0.26 0.31 0.38 0.45 0.48 0.51 0.53 0.58 0.60 0.60 0.60 0.59 0.57 0.55 0.54 0.52 0.47 0.43 0.39 0.34 0.30 0.25 0.20 0.16 0.13 0.12 0.10 0.10 0.10 0.11 0.12 0.11 0.13 0.13
0.01 0.01 0.00 0.00 0.00 0.00 0.04 0.19 0.29 0.39 0.40 0.35 0.34 0.32 0.30 0.32 0.39 0.47 0.49 0.45 0.43 0.41 0.42 0.44 0.45 0.42 0.40 0.40 0.40 0.37 0.34 0.30 0.27 0.25 0.23 0.20 0.16 0.13 0.12 0.11 0.10 0.10 0.10 0.10 0.12 0.12 0.11 0.11 0.10
0.01 0.01 0.01 0.01 0.00 0.00 0.05 0.26 0.36 0.58 0.65 0.57 0.51 0.42 0.41 0.42 0.47 0.50 0.47 0.41 0.36 0.37 0.38 0.36 0.38 0.39 0.37 0.34 0.31 0.28 0.25 0.22 0.20 0.18 0.16 0.15 0.14 0.14 0.13 0.13 0.13 0.12 0.11 0.10 0.11 0.11 0.10 0.10 0.10

GEFSSGP_prec_meanprecacc_084.txt.gz
Total_Precipitation_Accumulation
0.00 0.00 0.00 0.00 0.00 0.00 0.01 0.03 0.08 0.14 0.11 0.09 0.11 0.13 0.11 0.11 0.19 0.43 0.15 0.06 0.04 0.01 0.00 0.01 0.02 0.03 0.03 0.03 0.03 0.04 0.08 0.11 0.13 0.13 0.11 0.09 0.09 0.09 0.10 0.11 0.14 0.19 0.23 0.21 0.19 0.18 0.19 0.18 0.14
0.00 0.00 0.00 0.00 0.00 0.00 0.02 0.03 0.07 0.10 0.13 0.12 0.12 0.09 0.04 0.04 0.02 0.02 0.02 0.03 0.03 0.02 0.00 0.01 0.01 0.03 0.05 0.04 0.05 0.05 0.08 0.12 0.17 0.18 0.16 0.13 0.10 0.10 0.11 0.12 0.14 0.19 0.22 0.19 0.15 0.12 0.11 0.09 0.06
0.00 0.00 0.00 0.00 0.00 0.00 0.04 0.07 0.07 0.08 0.11 0.11 0.12 0.07 0.03 0.03 0.01 0.01 0.01 0.03 0.03 0.02 0.01 0.01 0.01 0.02 0.05 0.06 0.07 0.08 0.11 0.15 0.20 0.23 0.24 0.18 0.12 0.10 0.13 0.16 0.16 0.17 0.20 0.21 0.17 0.11 0.07 0.04 0.04
0.00 0.00 0.00 0.00 0.00 0.00 0.03 0.05 0.05 0.07 0.11 0.10 0.07 0.06 0.04 0.02 0.01 0.01 0.01 0.02 0.01 0.01 0.00 0.01 0.01 0.02 0.06 0.08 0.10 0.12 0.14 0.18 0.24 0.28 0.27 0.20 0.13 0.12 0.15 0.19 0.21 0.22 0.24 0.28 0.23 0.21 0.13 0.08 0.05
0.00 0.00 0.00 0.00 0.00 0.00 0.01 0.03 0.04 0.06 0.07 0.06 0.04 0.04 0.06 0.02 0.01 0.01 0.02 0.02 0.02 0.02 0.01 0.00 0.02 0.03 0.07 0.09 0.10 0.12 0.16 0.20 0.26 0.30 0.26 0.19 0.14 0.12 0.14 0.21 0.23 0.26 0.28 0.26 0.22 0.20 0.15 0.12 0.11
0.00 0.00 0.00 0.00 0.00 0.00 0.01 0.02 0.02 0.04 0.06 0.06 0.04 0.04 0.06 0.03 0.03 0.04 0.04 0.05 0.03 0.02 0.01 0.01 0.02 0.03 0.11 0.17 0.12 0.11 0.14 0.18 0.24 0.29 0.25 0.18 0.14 0.16 0.20 0.21 0.24 0.26 0.23 0.18 0.17 0.16 0.14 0.15 0.18
0.00 0.00 0.00 0.00 0.00 0.00 0.01 0.01 0.02 0.03 0.07 0.07 0.06 0.06 0.06 0.05 0.06 0.09 0.09 0.10 0.09 0.08 0.05 0.02 0.02 0.02 0.06 0.09 0.08 0.09 0.11 0.14 0.20 0.24 0.28 0.22 0.17 0.24 0.28 0.26 0.26 0.29 0.23 0.18 0.17 0.18 0.15 0.19 0.24
0.00 0.00 0.00 0.00 0.01 0.00 0.01 0.02 0.02 0.04 0.07 0.07 0.05 0.06 0.11 0.10 0.10 0.15 0.16 0.19 0.21 0.31 0.39 0.17 0.09 0.04 0.03 0.02 0.04 0.06 0.07 0.09 0.12 0.13 0.16 0.16 0.17 0.21 0.23 0.20 0.19 0.21 0.16 0.11 0.11 0.12 0.12 0.10 0.09
0.00 0.00 0.00 0.00 0.01 0.01 0.01 0.02 0.02 0.04 0.06 0.05 0.03 0.05 0.14 0.14 0.11 0.15 0.18 0.29 0.35 0.54 0.72 0.50 0.19 0.05 0.03 0.03 0.02 0.03 0.03 0.05 0.05 0.04 0.06 0.11 0.20 0.25 0.23 0.14 0.11 0.08 0.05 0.03 0.02 0.02 0.02 0.01 0.01
0.00 0.00 0.00 0.00 0.00 0.01 0.01 0.01 0.02 0.02 0.04 0.04 0.05 0.06 0.08 0.08 0.11 0.17 0.29 0.72 0.76 0.64 0.61 0.47 0.12 0.04 0.03 0.03 0.03 0.04 0.04 0.03 0.04 0.07 0.06 0.14 0.30 0.34 0.23 0.17 0.07 0.03 0.02 0.02 0.01 0.01 0.01 0.01 0.01
0.00 0.00 0.00 0.00 0.00 0.00 0.01 0.01 0.02 0.02 0.02 0.03 0.07 0.11 0.09 0.05 0.07 0.11 0.23 0.71 0.90 0.58 0.33 0.17 0.12 0.08 0.05 0.05 0.06 0.07 0.08 0.08 0.08 0.12 0.11 0.20 0.21 0.13 0.09 0.11 0.08 0.05 0.04 0.05 0.06 0.03 0.02 0.02 0.01
0.00 0.00 0.00 0.00 0.00 0.00 0.00 0.01 0.01 0.01 0.02 0.04 0.09 0.15 0.13 0.05 0.04 0.09 0.18 0.31 0.33 0.34 0.24 0.14 0.11 0.08 0.06 0.05 0.06 0.07 0.08 0.08 0.09 0.12 0.10 0.16 0.18 0.13 0.12 0.14 0.14 0.15 0.14 0.14 0.10 0.07 0.05 0.04 0.03
0.00 0.00 0.00 0.00 0.00 0.00 0.00 0.00 0.01 0.01 0.01 0.03 0.07 0.15 0.13 0.08 0.07 0.12 0.26 0.34 0.34 0.35 0.31 0.17 0.12 0.08 0.06 0.06 0.05 0.04 0.06 0.07 0.10 0.12 0.10 0.10 0.11 0.12 0.15 0.15 0.16 0.16 0.18 0.19 0.15 0.10 0.10 0.09 0.10
0.00 0.00 0.00 0.00 0.00 0.00 0.00 0.00 0.00 0.00 0.01 0.01 0.04 0.13 0.15 0.10 0.11 0.16 0.34 0.49 0.53 0.58 0.49 0.25 0.11 0.05 0.04 0.04 0.04 0.05 0.06 0.10 0.14 0.14 0.12 0.09 0.14 0.20 0.20 0.21 0.22 0.17 0.18 0.24 0.28 0.25 0.21 0.16 0.17
0.00 0.00 0.00 0.00 0.00 0.00 0.00 0.00 0.00 0.00 0.00 0.01 0.03 0.11 0.16 0.15 0.15 0.22 0.34 0.43 0.57 0.79 0.71 0.34 0.13 0.06 0.06 0.06 0.06 0.08 0.09 0.11 0.16 0.20 0.18 0.13 0.16 0.25 0.27 0.30 0.29 0.25 0.24 0.27 0.28 0.29 0.28 0.27 0.28
0.00 0.00 0.00 0.00 0.00 0.00 0.00 0.00 0.00 0.00 0.00 0.01 0.03 0.06 0.11 0.12 0.13 0.20 0.38 0.47 0.72 1.11 1.09 0.49 0.17 0.09 0.10 0.13 0.15 0.15 0.15 0.17 0.18 0.22 0.23 0.18 0.22 0.32 0.39 0.41 0.41 0.40 0.39 0.46 0.48 0.47 0.47 0.46 0.43
0.00 0.00 0.00 0.00 0.00 0.00 0.00 0.01 0.01 0.00 0.00 0.01 0.03 0.06 0.07 0.07 0.10 0.17 0.39 0.67 1.12 1.66 1.38 0.62 0.31 0.25 0.23 0.27 0.30 0.35 0.34 0.33 0.34 0.37 0.38 0.39 0.41 0.45 0.53 0.61 0.67 0.67 0.72 0.71 0.64 0.68 0.73 0.72 0.64
0.00 0.00 0.00 0.00 0.00 0.00 0.00 0.01 0.01 0.00 0.01 0.01 0.03 0.06 0.06 0.07 0.11 0.21 0.42 0.83 1.45 2.08 1.59 0.93 0.69 0.63 0.56 0.53 0.57 0.60 0.64 0.67 0.68 0.65 0.63 0.63 0.65 0.70 0.87 0.96 1.00 1.01 1.04 1.02 1.02 0.97 0.79 0.66 0.57
0.00 0.00 0.00 0.00 0.00 0.00 0.01 0.01 0.01 0.01 0.01 0.02 0.03 0.02 0.05 0.08 0.15 0.30 0.58 0.83 0.94 1.10 1.02 0.93 0.90 0.83 0.78 0.82 0.89 1.02 1.17 1.22 1.15 1.11 1.09 1.12 1.20 1.31 1.44 1.45 1.42 1.34 1.33 1.30 1.16 0.98 0.80 0.66 0.56
0.00 0.00 0.00 0.00 0.00 0.00 0.01 0.01 0.02 0.01 0.02 0.04 0.07 0.06 0.07 0.13 0.22 0.37 0.55 0.70 0.73 0.84 1.01 1.02 0.96 0.98 1.07 1.31 1.56 1.87 2.09 2.07 1.97 1.85 1.79 1.79 1.76 1.70 1.68 1.66 1.57 1.46 1.37 1.25 1.13 1.02 0.93 0.82 0.71
0.00 0.00 0.00 0.00 0.00 0.01 0.01 0.02 0.03 0.03 0.02 0.03 0.05 0.07 0.09 0.13 0.21 0.37 0.45 0.58 0.73 0.96 1.15 1.21 1.24 1.43 1.68 1.97 2.39 2.78 2.84 2.78 2.75 2.56 2.46 2.29 2.08 1.94 1.86 1.73 1.64 1.51 1.36 1.25 1.14 1.03 0.96 0.84 0.71
0.00 0.00 0.00 0.00 0.00 0.00 0.01 0.05 0.08 0.06 0.04 0.03 0.05 0.05 0.07 0.09 0.14 0.25 0.41 0.60 0.80 1.08 1.30 1.45 1.63 1.96 2.33 2.63 2.95 3.20 3.27 3.22 3.15 2.88 2.63 2.32 2.05 1.89 1.76 1.63 1.50 1.38 1.25 1.13 1.01 0.93 0.83 0.73 0.63
0.00 0.00 0.00 0.00 0.00 0.00 0.00 0.05 0.15 0.13 0.08 0.06 0.06 0.06 0.07 0.09 0.11 0.17 0.29 0.49 0.72 1.01 1.33 1.58 1.77 2.18 2.60 2.90 3.08 3.28 3.41 3.37 3.16 2.73 2.30 2.01 1.81 1.64 1.47 1.28 1.15 1.08 1.00 0.88 0.74 0.64 0.55 0.48 0.41
0.00 0.00 0.00 0.01 0.00 0.00 0.00 0.04 0.17 0.25 0.16 0.08 0.08 0.09 0.10 0.11 0.13 0.19 0.27 0.39 0.59 0.83 1.11 1.35 1.58 2.09 2.59 2.93 3.11 3.25 3.29 3.06 2.66 2.24 1.88 1.66 1.51 1.38 1.22 1.08 0.93 0.80 0.67 0.54 0.43 0.36 0.31 0.28 0.26
0.00 0.00 0.01 0.01 0.00 0.00 0.01 0.06 0.23 0.30 0.20 0.11 0.09 0.12 0.13 0.13 0.15 0.20 0.29 0.38 0.54 0.73 1.00 1.24 1.48 1.82 2.21 2.45 2.53 2.57 2.51 2.35 2.18 1.97 1.71 1.47 1.28 1.11 0.92 0.71 0.55 0.44 0.35 0.27 0.22 0.19 0.16 0.14 0.13
0.00 0.00 0.01 0.02 0.01 0.01 0.05 0.16 0.29 0.22 0.17 0.13 0.13 0.13 0.15 0.16 0.18 0.25 0.36 0.46 0.55 0.68 0.92 1.21 1.38 1.57 1.75 1.82 1.85 1.74 1.67 1.58 1.49 1.32 1.13 0.96 0.79 0.66 0.53 0.38 0.29 0.23 0.17 0.14 0.13 0.12 0.11 0.10 0.11
0.00 0.00 0.00 0.01 0.01 0.05 0.14 0.26 0.36 0.30 0.23 0.19 0.19 0.18 0.19 0.22 0.25 0.34 0.43 0.49 0.57 0.64 0.76 0.91 1.03 1.15 1.15 1.07 1.04 1.02 0.99 0.93 0.83 0.70 0.57 0.48 0.41 0.34 0.27 0.21 0.16 0.13 0.12 0.12 0.13 0.13 0.13 0.14 0.15
0.00 0.00 0.01 0.01 0.02 0.08 0.16 0.28 0.39 0.39 0.34 0.29 0.26 0.25 0.25 0.27 0.32 0.39 0.47 0.50 0.53 0.55 0.61 0.64 0.65 0.66 0.65 0.64 0.62 0.62 0.61 0.56 0.51 0.47 0.43 0.38 0.32 0.26 0.21 0.18 0.16 0.14 0.13 0.13 0.14 0.15 0.15 0.17 0.16
0.02 0.01 0.01 0.01 0.01 0.05 0.19 0.45 0.55 0.57 0.48 0.42 0.39 0.33 0.31 0.33 0.41 0.49 0.50 0.47 0.45 0.44 0.45 0.47 0.48 0.46 0.45 0.46 0.45 0.43 0.40 0.36 0.34 0.32 0.29 0.26 0.21 0.17 0.15 0.14 0.13 0.12 0.12 0.13 0.14 0.14 0.13 0.13 0.12
0.03 0.02 0.02 0.02 0.01 0.02 0.17 0.60 0.70 0.86 0.79 0.64 0.55 0.43 0.41 0.43 0.48 0.51 0.49 0.43 0.39 0.40 0.41 0.41 0.42 0.43 0.42 0.39 0.36 0.33 0.30 0.27 0.24 0.22 0.20 0.18 0.17 0.16 0.15 0.15 0.14 0.13 0.12 0.12 0.13 0.12 0.11 0.11 0.11

GEFSSGP_prec_meanprecacc_090.txt.gz
Total_Precipitation_Accumulation
0.00 0.00 0.00 0.00 0.00 0.00 0.01 0.03 0.09 0.17 0.18 0.15 0.18 0.22 0.20 0.19 0.24 0.48 0.19 0.10 0.05 0.02 0.00 0.01 0.02 0.03 0.03 0.03 0.03 0.04 0.08 0.11 0.13 0.13 0.11 0.09 0.09 0.09 0.10 0.11 0.14 0.19 0.23 0.21 0.19 0.18 0.19 0.18 0.14
0.00 0.00 0.00 0.00 0.00 0.00 0.02 0.04 0.09 0.13 0.17 0.17 0.19 0.19 0.16 0.11 0.05 0.04 0.03 0.04 0.04 0.02 0.00 0.01 0.01 0.03 0.05 0.04 0.05 0.05 0.08 0.12 0.17 0.18 0.16 0.13 0.10 0.10 0.12 0.12 0.14 0.19 0.22 0.19 0.15 0.12 0.11 0.09 0.06
0.00 0.00 0.00 0.00 0.00 0.00 0.04 0.07 0.08 0.10 0.14 0.15 0.20 0.20 0.19 0.12 0.04 0.02 0.02 0.04 0.03 0.02 0.01 0.01 0.01 0.02 0.05 0.07 0.07 0.08 0.11 0.15 0.20 0.23 0.24 0.19 0.12 0.10 0.14 0.16 0.16 0.17 0.21 0.21 0.17 0.11 0.07 0.04 0.04
0.00 0.00 0.00 0.00 0.00 0.00 0.03 0.05 0.06 0.10 0.14 0.14 0.15 0.20 0.18 0.12 0.05 0.03 0.02 0.03 0.02 0.01 0.01 0.01 0.01 0.02 0.06 0.08 0.10 0.12 0.15 0.18 0.24 0.29 0.27 0.20 0.13 0.12 0.15 0.19 0.22 0.22 0.24 0.28 0.24 0.21 0.13 0.08 0.05
0.00 0.00 0.00 0.00 0.00 0.00 0.01 0.04 0.05 0.08 0.10 0.11 0.14 0.19 0.19 0.10 0.05 0.05 0.04 0.04 0.02 0.02 0.01 0.00 0.02 0.03 0.07 0.09 0.10 0.12 0.16 0.21 0.27 0.31 0.27 0.20 0.14 0.12 0.15 0.21 0.24 0.26 0.28 0.27 0.22 0.20 0.15 0.12 0.11
0.00 0.00 0.00 0.00 0.00 0.00 0.01 0.02 0.03 0.06 0.09 0.09 0.15 0.26 0.24 0.11 0.09 0.09 0.07 0.06 0.04 0.02 0.01 0.01 0.02 0.03 0.11 0.17 0.12 0.11 0.15 0.19 0.25 0.29 0.26 0.19 0.15 0.16 0.20 0.21 0.24 0.27 0.23 0.19 0.17 0.16 0.14 0.15 0.18
0.00 0.00 0.00 0.00 0.00 0.00 0.01 0.02 0.03 0.05 0.10 0.10 0.12 0.26 0.29 0.19 0.17 0.17 0.14 0.12 0.10 0.08 0.05 0.02 0.02 0.02 0.06 0.09 0.09 0.10 0.11 0.15 0.20 0.25 0.29 0.23 0.18 0.25 0.29 0.26 0.27 0.29 0.24 0.18 0.17 0.18 0.15 0.19 0.24
0.00 0.00 0.00 0.00 0.01 0.00 0.01 0.02 0.02 0.05 0.09 0.09 0.09 0.18 0.32 0.36 0.29 0.28 0.24 0.23 0.22 0.31 0.39 0.17 0.09 0.04 0.03 0.03 0.04 0.06 0.07 0.09 0.12 0.14 0.17 0.17 0.18 0.22 0.24 0.21 0.20 0.21 0.16 0.11 0.11 0.12 0.12 0.10 0.09
0.00 0.00 0.00 0.00 0.01 0.01 0.01 0.02 0.03 0.05 0.09 0.08 0.07 0.12 0.23 0.29 0.25 0.27 0.28 0.35 0.39 0.56 0.72 0.50 0.19 0.05 0.03 0.03 0.02 0.03 0.03 0.05 0.05 0.05 0.07 0.11 0.21 0.26 0.24 0.14 0.11 0.08 0.05 0.03 0.02 0.02 0.02 0.01 0.01
0.00 0.00 0.00 0.00 0.00 0.01 0.01 0.01 0.03 0.03 0.05 0.06 0.09 0.11 0.14 0.17 0.21 0.27 0.40 0.82 0.83 0.68 0.62 0.48 0.12 0.04 0.03 0.03 0.03 0.04 0.04 0.03 0.04 0.07 0.06 0.14 0.30 0.34 0.23 0.18 0.09 0.04 0.02 0.02 0.02 0.01 0.01 0.01 0.01
0.00 0.00 0.00 0.00 0.00 0.00 0.01 0.01 0.02 0.03 0.03 0.05 0.11 0.16 0.15 0.12 0.17 0.21 0.36 0.89 1.05 0.65 0.36 0.19 0.13 0.09 0.05 0.05 0.06 0.07 0.08 0.09 0.08 0.12 0.11 0.20 0.22 0.15 0.11 0.12 0.10 0.06 0.05 0.05 0.07 0.04 0.03 0.02 0.02
0.00 0.00 0.00 0.00 0.00 0.00 0.00 0.01 0.01 0.02 0.03 0.06 0.12 0.22 0.23 0.15 0.13 0.19 0.33 0.54 0.60 0.51 0.34 0.21 0.16 0.11 0.08 0.08 0.07 0.08 0.08 0.09 0.10 0.13 0.11 0.17 0.21 0.17 0.16 0.18 0.16 0.16 0.15 0.14 0.10 0.08 0.08 0.06 0.06
0.00 0.00 0.00 0.00 0.00 0.00 0.00 0.00 0.01 0.01 0.02 0.04 0.09 0.20 0.22 0.22 0.22 0.26 0.44 0.65 0.71 0.68 0.53 0.31 0.22 0.17 0.12 0.13 0.13 0.06 0.08 0.08 0.11 0.14 0.12 0.13 0.14 0.16 0.21 0.20 0.19 0.18 0.20 0.20 0.17 0.12 0.14 0.14 0.14
0.00 0.00 0.00 0.00 0.00 0.00 0.00 0.00 0.01 0.01 0.01 0.02 0.06 0.15 0.18 0.16 0.27 0.36 0.55 0.81 0.90 0.93 0.74 0.39 0.26 0.16 0.12 0.10 0.10 0.08 0.09 0.13 0.18 0.21 0.17 0.14 0.19 0.26 0.26 0.25 0.24 0.19 0.20 0.26 0.31 0.27 0.23 0.19 0.21
0.00 0.00 0.00 0.00 0.00 0.00 0.00 0.00 0.01 0.01 0.01 0.02 0.05 0.13 0.19 0.20 0.25 0.37 0.52 0.79 0.97 1.10 0.96 0.54 0.28 0.22 0.16 0.10 0.10 0.14 0.17 0.23 0.24 0.28 0.26 0.23 0.22 0.29 0.31 0.34 0.31 0.27 0.26 0.29 0.30 0.31 0.30 0.30 0.32
0.00 0.00 0.00 0.00 0.00 0.00 0.00 0.01 0.01 0.01 0.01 0.02 0.05 0.09 0.16 0.22 0.25 0.34 0.55 0.86 1.30 1.54 1.36 0.74 0.35 0.34 0.27 0.23 0.21 0.22 0.24 0.28 0.28 0.29 0.30 0.27 0.29 0.37 0.43 0.45 0.45 0.43 0.42 0.49 0.52 0.51 0.49 0.49 0.47
0.00 0.00 0.00 0.00 0.00 0.00 0.00 0.02 0.02 0.01 0.01 0.02 0.06 0.10 0.12 0.19 0.24 0.33 0.59 0.99 1.62 2.19 1.83 1.02 0.60 0.54 0.46 0.41 0.40 0.46 0.46 0.45 0.46 0.49 0.48 0.46 0.47 0.51 0.59 0.66 0.70 0.70 0.76 0.75 0.68 0.72 0.75 0.75 0.68
0.00 0.00 0.00 0.00 0.00 0.00 0.01 0.02 0.02 0.02 0.02 0.03 0.05 0.10 0.10 0.16 0.24 0.40 0.76 1.31 1.96 2.56 2.19 1.55 1.08 0.97 0.84 0.72 0.71 0.77 0.82 0.84 0.84 0.81 0.81 0.77 0.76 0.79 0.93 1.01 1.04 1.05 1.07 1.06 1.06 1.01 0.82 0.70 0.63
0.00 0.00 0.00 0.00 0.00 0.00 0.01 0.03 0.03 0.03 0.03 0.04 0.05 0.05 0.10 0.16 0.26 0.54 0.98 1.50 1.82 1.91 1.71 1.64 1.51 1.35 1.16 1.08 1.08 1.20 1.36 1.40 1.37 1.33 1.26 1.28 1.34 1.44 1.55 1.55 1.50 1.40 1.38 1.35 1.21 1.03 0.85 0.72 0.63
0.00 0.00 0.00 0.01 0.00 0.01 0.02 0.03 0.05 0.05 0.05 0.07 0.11 0.11 0.15 0.23 0.34 0.64 0.96 1.27 1.49 1.70 1.80 1.78 1.55 1.53 1.57 1.68 1.88 2.15 2.34 2.30 2.19 2.10 2.04 2.01 1.96 1.89 1.83 1.76 1.65 1.54 1.45 1.31 1.19 1.09 0.99 0.90 0.78
0.00 0.00 0.01 0.02 0.02 0.02 0.02 0.06 0.08 0.08 0.09 0.08 0.11 0.15 0.19 0.25 0.39 0.62 0.75 0.92 1.15 1.46 1.70 1.77 1.80 1.98 2.26 2.52 2.89 3.22 3.17 3.02 2.98 2.78 2.71 2.54 2.31 2.14 2.03 1.85 1.74 1.59 1.43 1.32 1.21 1.10 1.03 0.92 0.79
0.00 0.00 0.00 0.01 0.02 0.02 0.02 0.09 0.13 0.12 0.12 0.12 0.12 0.13 0.18 0.24 0.31 0.49 0.67 0.82 1.01 1.36 1.69 1.90 2.09 2.39 2.80 3.13 3.40 3.60 3.61 3.52 3.43 3.12 2.84 2.52 2.22 2.04 1.89 1.74 1.60 1.47 1.32 1.19 1.07 0.99 0.90 0.79 0.69
0.00 0.01 0.01 0.01 0.01 0.02 0.03 0.09 0.24 0.22 0.16 0.14 0.13 0.12 0.14 0.21 0.25 0.35 0.49 0.65 0.87 1.19 1.57 1.87 2.12 2.56 3.00 3.38 3.59 3.75 3.83 3.71 3.43 2.93 2.45 2.12 1.90 1.72 1.53 1.34 1.21 1.13 1.04 0.92 0.78 0.69 0.59 0.52 0.45
0.00 0.00 0.01 0.01 0.02 0.03 0.03 0.09 0.28 0.39 0.26 0.15 0.13 0.13 0.15 0.17 0.22 0.32 0.43 0.54 0.74 0.97 1.28 1.57 1.84 2.40 2.96 3.39 3.66 3.82 3.81 3.51 3.00 2.47 2.03 1.76 1.59 1.44 1.28 1.13 0.96 0.83 0.69 0.56 0.45 0.38 0.34 0.31 0.29
0.00 0.00 0.01 0.02 0.02 0.03 0.03 0.11 0.34 0.44 0.34 0.20 0.15 0.17 0.19 0.17 0.20 0.27 0.39 0.48 0.67 0.90 1.16 1.43 1.71 2.07 2.47 2.76 2.89 2.96 2.94 2.77 2.55 2.23 1.88 1.58 1.37 1.18 0.99 0.76 0.59 0.47 0.37 0.29 0.24 0.21 0.18 0.16 0.15
0.00 0.01 0.02 0.03 0.02 0.03 0.09 0.26 0.44 0.41 0.33 0.24 0.20 0.18 0.19 0.19 0.21 0.27 0.40 0.51 0.61 0.77 1.01 1.32 1.54 1.71 1.89 2.02 2.10 2.01 1.96 1.89 1.77 1.54 1.28 1.05 0.85 0.70 0.56 0.41 0.32 0.25 0.19 0.16 0.15 0.13 0.12 0.12 0.12
0.01 0.01 0.01 0.02 0.02 0.07 0.21 0.39 0.58 0.51 0.38 0.28 0.25 0.23 0.23 0.24 0.27 0.36 0.45 0.53 0.61 0.69 0.82 0.98 1.11 1.22 1.24 1.18 1.17 1.17 1.15 1.09 0.97 0.82 0.65 0.54 0.45 0.36 0.29 0.23 0.17 0.14 0.13 0.13 0.13 0.14 0.14 0.15 0.16
0.01 0.01 0.02 0.03 0.05 0.11 0.23 0.41 0.68 0.76 0.59 0.44 0.35 0.30 0.29 0.30 0.35 0.41 0.48 0.52 0.55 0.59 0.65 0.68 0.70 0.71 0.71 0.71 0.70 0.69 0.69 0.65 0.60 0.54 0.49 0.43 0.36 0.28 0.23 0.19 0.17 0.15 0.14 0.14 0.15 0.15 0.16 0.17 0.17
0.04 0.03 0.03 0.04 0.05 0.11 0.27 0.60 0.82 0.96 0.84 0.66 0.54 0.43 0.36 0.36 0.43 0.50 0.52 0.49 0.47 0.47 0.49 0.51 0.52 0.51 0.50 0.51 0.50 0.48 0.45 0.41 0.39 0.38 0.35 0.31 0.26 0.20 0.18 0.16 0.14 0.13 0.13 0.13 0.15 0.15 0.14 0.14 0.13
0.05 0.05 0.05 0.07 0.10 0.12 0.30 0.85 0.98 1.19 1.10 0.89 0.71 0.54 0.46 0.45 0.49 0.52 0.50 0.45 0.41 0.43 0.45 0.45 0.46 0.47 0.46 0.43 0.40 0.37 0.33 0.30 0.27 0.26 0.25 0.22 0.20 0.18 0.17 0.16 0.16 0.14 0.13 0.12 0.14 0.13 0.12 0.12 0.11

GEFSSGP_prec_meanprecacc_096.txt.gz
Total_Precipitation_Accumulation
0.00 0.00 0.00 0.00 0.00 0.00 0.01 0.03 0.09 0.17 0.18 0.15 0.19 0.23 0.21 0.23 0.30 0.54 0.22 0.11 0.05 0.02 0.00 0.01 0.02 0.03 0.03 0.03 0.03 0.04 0.08 0.11 0.13 0.13 0.11 0.09 0.09 0.09 0.10 0.11 0.14 0.19 0.23 0.22 0.19 0.19 0.19 0.18 0.14
0.00 0.00 0.00 0.00 0.00 0.00 0.02 0.04 0.09 0.13 0.17 0.17 0.19 0.21 0.19 0.17 0.10 0.07 0.06 0.06 0.04 0.02 0.00 0.01 0.01 0.03 0.05 0.04 0.05 0.05 0.08 0.12 0.17 0.18 0.16 0.13 0.10 0.10 0.12 0.12 0.14 0.19 0.22 0.19 0.15 0.13 0.12 0.09 0.06
0.00 0.00 0.00 0.00 0.00 0.00 0.04 0.07 0.08 0.10 0.14 0.16 0.21 0.23 0.27 0.20 0.10 0.08 0.06 0.06 0.03 0.02 0.01 0.01 0.01 0.02 0.05 0.07 0.07 0.08 0.11 0.15 0.20 0.23 0.24 0.19 0.12 0.10 0.14 0.16 0.16 0.18 0.21 0.22 0.17 0.11 0.07 0.05 0.04
0.00 0.00 0.00 0.00 0.00 0.00 0.03 0.05 0.06 0.10 0.14 0.14 0.16 0.22 0.23 0.16 0.10 0.08 0.07 0.05 0.03 0.02 0.01 0.01 0.02 0.03 0.06 0.08 0.10 0.12 0.15 0.18 0.24 0.29 0.27 0.20 0.13 0.12 0.15 0.19 0.22 0.22 0.25 0.28 0.24 0.21 0.14 0.08 0.05
0.00 0.00 0.00 0.00 0.00 0.00 0.01 0.04 0.05 0.08 0.10 0.11 0.14 0.22 0.23 0.13 0.10 0.09 0.09 0.07 0.04 0.03 0.01 0.01 0.02 0.03 0.07 0.09 0.10 0.12 0.16 0.21 0.27 0.31 0.27 0.20 0.14 0.13 0.15 0.21 0.24 0.27 0.29 0.27 0.23 0.20 0.15 0.12 0.11
0.00 0.00 0.00 0.00 0.00 0.00 0.01 0.02 0.03 0.06 0.09 0.09 0.15 0.27 0.29 0.17 0.14 0.14 0.15 0.12 0.08 0.05 0.02 0.01 0.02 0.04 0.11 0.17 0.12 0.11 0.15 0.19 0.25 0.29 0.26 0.19 0.15 0.17 0.21 0.22 0.25 0.27 0.24 0.19 0.18 0.16 0.14 0.15 0.18
0.00 0.00 0.00 0.00 0.00 0.00 0.01 0.02 0.03 0.05 0.10 0.10 0.13 0.27 0.36 0.28 0.24 0.25 0.22 0.19 0.13 0.12 0.07 0.03 0.02 0.02 0.06 0.09 0.09 0.10 0.11 0.15 0.20 0.25 0.29 0.23 0.18 0.26 0.29 0.27 0.27 0.30 0.24 0.18 0.17 0.18 0.15 0.19 0.24
0.00 0.00 0.00 0.00 0.01 0.00 0.01 0.02 0.02 0.05 0.09 0.09 0.10 0.18 0.35 0.42 0.41 0.40 0.32 0.31 0.27 0.34 0.41 0.18 0.10 0.05 0.03 0.03 0.05 0.07 0.08 0.10 0.13 0.15 0.17 0.17 0.19 0.23 0.25 0.22 0.20 0.21 0.16 0.12 0.11 0.12 0.12 0.10 0.09
0.00 0.00 0.00 0.00 0.01 0.01 0.01 0.02 0.03 0.05 0.09 0.08 0.07 0.12 0.25 0.34 0.37 0.46 0.41 0.45 0.46 0.60 0.77 0.53 0.20 0.06 0.05 0.05 0.03 0.05 0.04 0.06 0.06 0.06 0.08 0.12 0.21 0.26 0.25 0.15 0.12 0.09 0.06 0.04 0.03 0.02 0.02 0.01 0.01
0.00 0.00 0.00 0.00 0.00 0.01 0.01 0.01 0.03 0.03 0.05 0.06 0.09 0.12 0.14 0.20 0.30 0.44 0.54 0.91 0.90 0.72 0.66 0.51 0.15 0.06 0.05 0.05 0.05 0.06 0.05 0.05 0.05 0.08 0.07 0.14 0.30 0.34 0.24 0.18 0.10 0.05 0.03 0.02 0.02 0.02 0.02 0.01 0.01
0.00 0.00 0.00 0.00 0.00 0.00 0.01 0.01 0.02 0.03 0.03 0.05 0.11 0.17 0.16 0.15 0.23 0.31 0.47 0.97 1.13 0.72 0.39 0.22 0.17 0.12 0.07 0.07 0.07 0.09 0.10 0.11 0.10 0.14 0.12 0.21 0.23 0.15 0.12 0.13 0.10 0.07 0.06 0.06 0.07 0.04 0.03 0.03 0.02
0.00 0.00 0.00 0.00 0.00 0.00 0.00 0.01 0.01 0.02 0.03 0.06 0.12 0.22 0.25 0.18 0.19 0.29 0.48 0.64 0.71 0.60 0.40 0.25 0.21 0.17 0.13 0.12 0.10 0.10 0.10 0.11 0.11 0.14 0.12 0.19 0.22 0.19 0.19 0.21 0.18 0.17 0.16 0.15 0.11 0.08 0.08 0.07 0.07
0.00 0.00 0.00 0.00 0.00 0.00 0.00 0.01 0.01 0.01 0.02 0.04 0.09 0.21 0.25 0.27 0.31 0.36 0.55 0.76 0.80 0.78 0.61 0.37 0.30 0.23 0.18 0.19 0.16 0.09 0.09 0.10 0.13 0.16 0.15 0.16 0.17 0.19 0.24 0.23 0.22 0.21 0.23 0.22 0.18 0.13 0.15 0.16 0.16
0.00 0.00 0.00 0.00 0.00 0.00 0.00 0.01 0.01 0.01 0.02 0.04 0.07 0.17 0.21 0.22 0.40 0.51 0.70 0.95 1.04 1.06 0.83 0.45 0.32 0.22 0.18 0.17 0.15 0.14 0.14 0.18 0.22 0.26 0.21 0.18 0.22 0.29 0.29 0.28 0.28 0.23 0.25 0.31 0.35 0.30 0.26 0.22 0.24
0.00 0.00 0.00 0.00 0.00 0.00 0.00 0.01 0.01 0.02 0.03 0.04 0.07 0.15 0.22 0.25 0.33 0.47 0.66 0.99 1.19 1.31 1.09 0.62 0.35 0.32 0.28 0.23 0.20 0.21 0.25 0.29 0.29 0.34 0.31 0.27 0.25 0.33 0.35 0.40 0.37 0.32 0.32 0.37 0.37 0.37 0.36 0.34 0.36
0.00 0.00 0.00 0.00 0.00 0.00 0.00 0.01 0.02 0.03 0.03 0.05 0.08 0.12 0.19 0.26 0.29 0.40 0.64 1.01 1.51 1.81 1.54 0.88 0.46 0.47 0.44 0.39 0.35 0.33 0.33 0.38 0.37 0.39 0.39 0.36 0.37 0.47 0.52 0.55 0.54 0.52 0.50 0.57 0.60 0.58 0.56 0.55 0.52
0.00 0.00 0.00 0.00 0.00 0.00 0.01 0.02 0.03 0.03 0.04 0.06 0.09 0.13 0.16 0.21 0.28 0.39 0.66 1.09 1.77 2.39 2.02 1.21 0.77 0.74 0.70 0.66 0.64 0.67 0.66 0.65 0.66 0.68 0.67 0.63 0.64 0.69 0.75 0.81 0.84 0.83 0.88 0.86 0.79 0.82 0.84 0.83 0.74
0.00 0.00 0.00 0.00 0.00 0.00 0.01 0.03 0.03 0.04 0.05 0.06 0.09 0.13 0.14 0.20 0.29 0.46 0.83 1.40 2.06 2.71 2.41 1.83 1.35 1.23 1.14 1.05 1.05 1.07 1.10 1.13 1.13 1.12 1.09 1.01 1.00 1.02 1.15 1.20 1.21 1.20 1.22 1.19 1.19 1.13 0.93 0.78 0.70
0.00 0.00 0.00 0.00 0.00 0.01 0.02 0.04 0.06 0.06 0.06 0.07 0.09 0.09 0.15 0.21 0.32 0.64 1.10 1.62 1.95 2.06 1.98 1.96 1.84 1.67 1.53 1.48 1.48 1.61 1.75 1.77 1.71 1.68 1.61 1.62 1.68 1.75 1.84 1.80 1.71 1.58 1.54 1.48 1.34 1.14 0.95 0.79 0.70
0.00 0.00 0.00 0.01 0.01 0.02 0.03 0.07 0.09 0.10 0.10 0.12 0.16 0.16 0.20 0.27 0.39 0.70 1.04 1.39 1.68 1.91 2.01 1.99 1.87 1.92 2.03 2.22 2.44 2.60 2.74 2.70 2.60 2.53 2.47 2.43 2.36 2.25 2.17 2.07 1.91 1.75 1.63 1.46 1.32 1.19 1.08 0.97 0.85
0.00 0.00 0.01 0.02 0.04 0.05 0.05 0.11 0.13 0.14 0.15 0.15 0.17 0.21 0.25 0.30 0.43 0.67 0.82 1.01 1.31 1.64 1.87 1.96 2.11 2.46 2.78 3.14 3.61 3.87 3.67 3.45 3.37 3.17 3.09 2.91 2.66 2.47 2.33 2.10 1.94 1.77 1.58 1.44 1.32 1.20 1.13 1.02 0.87
0.00 0.00 0.01 0.02 0.03 0.05 0.06 0.13 0.20 0.19 0.18 0.17 0.18 0.20 0.23 0.29 0.35 0.54 0.73 0.90 1.14 1.50 1.84 2.09 2.40 2.84 3.34 3.74 4.08 4.30 4.23 4.01 3.83 3.45 3.14 2.78 2.46 2.27 2.08 1.91 1.76 1.63 1.48 1.32 1.18 1.11 1.02 0.91 0.78
0.00 0.01 0.01 0.01 0.02 0.03 0.06 0.13 0.29 0.28 0.20 0.18 0.18 0.17 0.19 0.25 0.29 0.39 0.54 0.72 0.99 1.34 1.72 2.04 2.37 2.89 3.38 3.80 4.11 4.33 4.40 4.22 3.83 3.22 2.67 2.33 2.09 1.91 1.70 1.49 1.36 1.27 1.16 1.02 0.87 0.77 0.67 0.60 0.52
0.00 0.01 0.02 0.03 0.03 0.04 0.05 0.11 0.33 0.45 0.32 0.19 0.17 0.19 0.20 0.21 0.27 0.36 0.49 0.64 0.87 1.13 1.44 1.71 2.02 2.65 3.25 3.69 4.02 4.31 4.29 3.94 3.38 2.77 2.25 1.94 1.75 1.60 1.43 1.26 1.08 0.94 0.79 0.64 0.52 0.45 0.40 0.37 0.34
0.00 0.01 0.02 0.03 0.03 0.03 0.04 0.14 0.37 0.50 0.40 0.25 0.20 0.23 0.23 0.22 0.25 0.32 0.45 0.58 0.83 1.06 1.33 1.62 1.92 2.30 2.74 3.07 3.22 3.35 3.35 3.13 2.87 2.52 2.13 1.77 1.53 1.32 1.11 0.86 0.67 0.54 0.44 0.36 0.29 0.26 0.23 0.21 0.20
0.01 0.01 0.03 0.04 0.03 0.03 0.11 0.29 0.47 0.47 0.40 0.29 0.24 0.22 0.23 0.24 0.26 0.33 0.46 0.58 0.71 0.89 1.14 1.47 1.72 1.94 2.14 2.28 2.40 2.32 2.24 2.13 2.00 1.76 1.49 1.24 1.00 0.82 0.65 0.48 0.37 0.30 0.23 0.19 0.18 0.16 0.14 0.14 0.15
0.01 0.01 0.01 0.02 0.03 0.08 0.24 0.42 0.62 0.59 0.47 0.34 0.29 0.26 0.26 0.28 0.31 0.40 0.50 0.58 0.67 0.78 0.94 1.11 1.24 1.38 1.44 1.38 1.35 1.35 1.31 1.23 1.09 0.93 0.75 0.61 0.50 0.41 0.34 0.26 0.20 0.16 0.15 0.15 0.15 0.15 0.15 0.16 0.17
0.01 0.01 0.02 0.03 0.05 0.12 0.25 0.45 0.72 0.82 0.67 0.50 0.40 0.36 0.33 0.34 0.38 0.45 0.52 0.57 0.61 0.66 0.79 0.84 0.84 0.84 0.87 0.90 0.86 0.82 0.79 0.75 0.69 0.62 0.56 0.50 0.41 0.33 0.26 0.22 0.20 0.17 0.15 0.14 0.16 0.16 0.16 0.18 0.17
0.04 0.04 0.03 0.04 0.05 0.12 0.28 0.63 0.85 1.02 0.91 0.72 0.61 0.52 0.45 0.42 0.48 0.55 0.55 0.53 0.52 0.53 0.57 0.59 0.61 0.60 0.58 0.60 0.62 0.60 0.54 0.49 0.46 0.44 0.42 0.37 0.31 0.26 0.22 0.19 0.16 0.15 0.14 0.14 0.15 0.15 0.14 0.14 0.13
0.05 0.05 0.06 0.07 0.10 0.13 0.31 0.87 1.01 1.23 1.16 0.95 0.79 0.65 0.60 0.56 0.55 0.56 0.53 0.47 0.45 0.47 0.50 0.51 0.53 0.52 0.51 0.48 0.46 0.43 0.39 0.35 0.33 0.32 0.30 0.26 0.23 0.21 0.20 0.19 0.19 0.17 0.15 0.14 0.14 0.14 0.12 0.12 0.12

GEFSSGP_prec_meanprecacc_102.txt.gz
Total_Precipitation_Accumulation
0.00 0.00 0.00 0.00 0.00 0.00 0.01 0.03 0.09 0.17 0.18 0.15 0.19 0.23 0.21 0.23 0.31 0.55 0.23 0.11 0.05 0.02 0.00 0.01 0.02 0.03 0.04 0.03 0.03 0.04 0.08 0.11 0.13 0.13 0.11 0.09 0.09 0.09 0.10 0.11 0.14 0.20 0.23 0.22 0.20 0.19 0.19 0.19 0.14
0.00 0.00 0.00 0.00 0.00 0.00 0.02 0.04 0.09 0.13 0.17 0.17 0.20 0.21 0.20 0.17 0.11 0.08 0.06 0.06 0.05 0.02 0.01 0.01 0.01 0.03 0.05 0.05 0.05 0.05 0.08 0.12 0.17 0.18 0.16 0.13 0.10 0.10 0.12 0.12 0.14 0.19 0.22 0.19 0.16 0.13 0.12 0.09 0.06
0.00 0.00 0.00 0.00 0.00 0.00 0.04 0.07 0.08 0.10 0.14 0.16 0.22 0.24 0.27 0.20 0.10 0.09 0.07 0.06 0.04 0.03 0.01 0.01 0.01 0.03 0.06 0.07 0.07 0.08 0.11 0.15 0.20 0.23 0.24 0.19 0.12 0.10 0.14 0.16 0.16 0.18 0.21 0.22 0.17 0.12 0.08 0.05 0.04
0.00 0.00 0.00 0.00 0.00 0.00 0.03 0.05 0.06 0.10 0.14 0.14 0.16 0.22 0.23 0.17 0.11 0.09 0.08 0.06 0.03 0.02 0.02 0.01 0.02 0.03 0.06 0.08 0.10 0.12 0.15 0.18 0.24 0.29 0.27 0.20 0.14 0.12 0.16 0.19 0.22 0.23 0.25 0.29 0.24 0.21 0.14 0.09 0.05
0.00 0.00 0.00 0.00 0.00 0.00 0.01 0.04 0.05 0.08 0.10 0.11 0.15 0.22 0.23 0.13 0.11 0.11 0.10 0.09 0.06 0.03 0.02 0.01 0.03 0.03 0.07 0.09 0.10 0.12 0.16 0.21 0.27 0.31 0.27 0.20 0.15 0.13 0.15 0.22 0.24 0.27 0.29 0.27 0.23 0.20 0.15 0.13 0.12
0.00 0.00 0.00 0.00 0.00 0.00 0.01 0.02 0.03 0.06 0.09 0.09 0.15 0.27 0.29 0.17 0.16 0.15 0.16 0.15 0.09 0.06 0.03 0.02 0.03 0.04 0.11 0.17 0.13 0.11 0.15 0.19 0.25 0.30 0.26 0.19 0.16 0.17 0.21 0.22 0.26 0.28 0.24 0.20 0.18 0.16 0.14 0.16 0.19
0.00 0.00 0.00 0.00 0.00 0.00 0.01 0.02 0.03 0.05 0.10 0.10 0.13 0.27 0.36 0.28 0.25 0.25 0.23 0.22 0.14 0.14 0.09 0.04 0.03 0.03 0.06 0.10 0.10 0.10 0.12 0.16 0.21 0.26 0.29 0.24 0.19 0.26 0.30 0.28 0.28 0.30 0.25 0.19 0.18 0.18 0.15 0.20 0.24
0.00 0.00 0.00 0.00 0.01 0.00 0.01 0.02 0.02 0.05 0.09 0.09 0.10 0.18 0.35 0.43 0.41 0.40 0.33 0.33 0.29 0.36 0.43 0.20 0.11 0.05 0.04 0.03 0.06 0.08 0.09 0.11 0.14 0.15 0.18 0.18 0.19 0.23 0.26 0.23 0.22 0.22 0.17 0.12 0.11 0.13 0.12 0.11 0.09
0.00 0.00 0.00 0.00 0.01 0.01 0.01 0.02 0.03 0.05 0.09 0.08 0.07 0.12 0.25 0.34 0.37 0.47 0.44 0.48 0.51 0.65 0.81 0.57 0.23 0.09 0.06 0.06 0.05 0.07 0.06 0.08 0.08 0.07 0.09 0.13 0.22 0.28 0.26 0.16 0.14 0.10 0.07 0.05 0.03 0.03 0.02 0.01 0.01
0.00 0.00 0.00 0.00 0.00 0.01 0.01 0.01 0.03 0.03 0.05 0.06 0.09 0.12 0.15 0.20 0.31 0.45 0.56 0.94 0.94 0.79 0.74 0.57 0.19 0.09 0.08 0.07 0.06 0.08 0.06 0.06 0.06 0.10 0.09 0.17 0.34 0.38 0.26 0.21 0.12 0.07 0.05 0.03 0.03 0.03 0.02 0.02 0.02
0.00 0.00 0.00 0.00 0.00 0.00 0.01 0.01 0.02 0.03 0.03 0.05 0.11 0.17 0.16 0.15 0.23 0.32 0.48 0.98 1.18 0.77 0.45 0.26 0.22 0.18 0.13 0.10 0.13 0.14 0.14 0.15 0.15 0.18 0.17 0.28 0.30 0.20 0.15 0.16 0.13 0.10 0.08 0.09 0.09 0.05 0.04 0.04 0.05
0.00 0.00 0.00 0.00 0.00 0.00 0.00 0.01 0.02 0.02 0.03 0.06 0.12 0.22 0.25 0.19 0.20 0.30 0.49 0.66 0.76 0.66 0.45 0.30 0.26 0.24 0.24 0.25 0.23 0.26 0.27 0.21 0.17 0.20 0.19 0.30 0.37 0.30 0.26 0.27 0.23 0.23 0.23 0.22 0.15 0.11 0.11 0.10 0.10
0.00 0.00 0.00 0.00 0.00 0.00 0.00 0.01 0.01 0.02 0.02 0.04 0.10 0.21 0.25 0.28 0.32 0.38 0.57 0.78 0.84 0.83 0.68 0.44 0.38 0.32 0.31 0.39 0.39 0.31 0.32 0.29 0.24 0.25 0.24 0.26 0.26 0.29 0.33 0.31 0.30 0.29 0.32 0.31 0.26 0.19 0.20 0.20 0.19
0.00 0.00 0.00 0.00 0.00 0.00 0.00 0.01 0.01 0.02 0.02 0.04 0.08 0.18 0.22 0.24 0.42 0.53 0.72 0.98 1.07 1.11 0.91 0.53 0.41 0.32 0.29 0.30 0.31 0.32 0.30 0.33 0.35 0.36 0.35 0.30 0.34 0.43 0.42 0.39 0.38 0.32 0.34 0.41 0.44 0.39 0.34 0.30 0.31
0.00 0.00 0.00 0.00 0.00 0.00 0.00 0.01 0.02 0.02 0.03 0.05 0.08 0.16 0.24 0.28 0.36 0.51 0.69 1.02 1.23 1.38 1.17 0.69 0.44 0.43 0.43 0.38 0.34 0.37 0.38 0.42 0.43 0.51 0.50 0.43 0.40 0.46 0.47 0.50 0.47 0.41 0.39 0.45 0.46 0.47 0.45 0.43 0.44
0.00 0.00 0.00 0.00 0.00 0.00 0.00 0.01 0.02 0.03 0.04 0.06 0.09 0.14 0.22 0.30 0.34 0.44 0.67 1.05 1.56 1.87 1.63 0.99 0.60 0.67 0.65 0.59 0.57 0.56 0.56 0.56 0.54 0.58 0.61 0.57 0.58 0.62 0.66 0.68 0.64 0.61 0.59 0.67 0.71 0.71 0.68 0.66 0.63
0.00 0.00 0.00 0.00 0.00 0.00 0.01 0.02 0.04 0.04 0.05 0.07 0.10 0.15 0.19 0.25 0.32 0.43 0.70 1.15 1.83 2.47 2.12 1.34 0.96 0.95 0.92 0.88 0.90 0.99 1.04 0.98 0.93 0.89 0.86 0.80 0.81 0.84 0.89 0.95 0.97 0.94 0.98 0.97 0.89 0.92 0.94 0.93 0.85
0.00 0.00 0.00 0.00 0.00 0.00 0.01 0.03 0.04 0.05 0.06 0.08 0.10 0.15 0.16 0.23 0.33 0.51 0.89 1.46 2.14 2.80 2.51 1.97 1.53 1.40 1.31 1.21 1.25 1.34 1.39 1.40 1.40 1.37 1.33 1.25 1.22 1.24 1.36 1.40 1.38 1.33 1.33 1.28 1.26 1.21 1.02 0.87 0.80
0.00 0.00 0.00 0.00 0.01 0.01 0.03 0.05 0.07 0.07 0.08 0.09 0.11 0.12 0.17 0.24 0.35 0.67 1.14 1.67 2.01 2.14 2.08 2.08 1.97 1.81 1.68 1.64 1.65 1.79 1.97 2.02 1.93 1.89 1.83 1.84 1.89 1.95 2.03 1.99 1.89 1.72 1.64 1.57 1.43 1.23 1.04 0.88 0.79
0.00 0.00 0.00 0.01 0.02 0.03 0.05 0.08 0.11 0.12 0.12 0.15 0.19 0.19 0.23 0.31 0.42 0.75 1.08 1.43 1.73 1.96 2.08 2.08 1.97 2.06 2.20 2.40 2.63 2.82 2.98 2.93 2.83 2.75 2.67 2.63 2.59 2.46 2.34 2.23 2.07 1.89 1.76 1.58 1.42 1.29 1.17 1.07 0.94
0.00 0.00 0.01 0.03 0.04 0.06 0.08 0.14 0.16 0.17 0.19 0.19 0.21 0.24 0.29 0.34 0.46 0.71 0.85 1.04 1.35 1.69 1.92 2.04 2.19 2.58 2.97 3.36 3.87 4.17 3.99 3.73 3.65 3.43 3.32 3.13 2.89 2.71 2.57 2.29 2.09 1.91 1.71 1.55 1.41 1.30 1.23 1.10 0.95
0.00 0.00 0.01 0.02 0.03 0.07 0.08 0.17 0.23 0.23 0.22 0.22 0.23 0.25 0.28 0.32 0.38 0.56 0.75 0.92 1.17 1.54 1.89 2.16 2.49 2.96 3.50 3.91 4.31 4.60 4.60 4.37 4.17 3.76 3.39 3.00 2.66 2.48 2.31 2.10 1.90 1.77 1.62 1.43 1.28 1.21 1.12 1.00 0.86
0.00 0.01 0.01 0.01 0.02 0.04 0.08 0.16 0.33 0.34 0.25 0.22 0.22 0.22 0.23 0.28 0.32 0.41 0.56 0.75 1.01 1.37 1.77 2.12 2.46 2.99 3.50 3.93 4.26 4.51 4.62 4.46 4.12 3.53 2.99 2.60 2.32 2.12 1.90 1.69 1.55 1.46 1.31 1.14 0.96 0.86 0.76 0.68 0.59
0.00 0.01 0.02 0.03 0.04 0.06 0.06 0.15 0.38 0.52 0.38 0.25 0.22 0.23 0.24 0.25 0.29 0.39 0.51 0.66 0.89 1.16 1.49 1.81 2.13 2.76 3.35 3.80 4.15 4.46 4.47 4.17 3.64 3.06 2.57 2.27 2.04 1.82 1.61 1.43 1.24 1.10 0.93 0.75 0.61 0.54 0.49 0.45 0.41
0.00 0.01 0.04 0.05 0.05 0.05 0.06 0.17 0.42 0.54 0.46 0.31 0.24 0.26 0.26 0.24 0.27 0.35 0.48 0.61 0.86 1.09 1.38 1.71 2.03 2.41 2.84 3.19 3.36 3.51 3.56 3.38 3.13 2.78 2.37 2.04 1.81 1.59 1.35 1.05 0.84 0.69 0.59 0.49 0.40 0.34 0.30 0.27 0.25
0.01 0.01 0.04 0.05 0.04 0.06 0.15 0.34 0.50 0.51 0.45 0.35 0.28 0.25 0.25 0.26 0.28 0.35 0.48 0.61 0.75 0.93 1.20 1.55 1.81 2.05 2.25 2.39 2.52 2.48 2.43 2.32 2.19 1.95 1.67 1.43 1.20 1.02 0.84 0.64 0.52 0.43 0.36 0.32 0.27 0.22 0.19 0.17 0.17
0.01 0.02 0.02 0.03 0.03 0.11 0.30 0.46 0.64 0.63 0.54 0.39 0.32 0.29 0.29 0.31 0.33 0.42 0.53 0.61 0.71 0.83 0.99 1.17 1.31 1.46 1.52 1.47 1.44 1.48 1.46 1.38 1.23 1.07 0.87 0.73 0.61 0.51 0.43 0.36 0.30 0.25 0.22 0.20 0.19 0.19 0.18 0.18 0.19
0.02 0.02 0.03 0.05 0.07 0.15 0.29 0.50 0.76 0.86 0.78 0.62 0.47 0.40 0.36 0.37 0.41 0.47 0.56 0.61 0.66 0.71 0.84 0.90 0.89 0.90 0.95 1.01 0.99 0.94 0.93 0.89 0.83 0.76 0.68 0.60 0.50 0.40 0.33 0.28 0.26 0.22 0.19 0.18 0.18 0.19 0.18 0.19 0.19
0.04 0.04 0.04 0.05 0.07 0.14 0.32 0.68 0.89 1.06 0.97 0.84 0.71 0.57 0.49 0.46 0.51 0.58 0.59 0.57 0.57 0.58 0.62 0.64 0.65 0.66 0.67 0.71 0.73 0.71 0.63 0.57 0.55 0.55 0.53 0.47 0.39 0.32 0.28 0.24 0.21 0.19 0.18 0.17 0.17 0.17 0.15 0.15 0.14
0.05 0.05 0.07 0.10 0.13 0.16 0.35 0.91 1.03 1.27 1.21 1.02 0.85 0.69 0.64 0.60 0.59 0.60 0.56 0.52 0.50 0.53 0.56 0.56 0.58 0.58 0.58 0.56 0.54 0.53 0.46 0.41 0.39 0.38 0.38 0.34 0.31 0.28 0.26 0.24 0.23 0.21 0.17 0.15 0.16 0.15 0.14 0.13 0.13

GEFSSGP_prec_meanprecacc_108.txt.gz
Total_Precipitation_Accumulation
0.00 0.00 0.00 0.00 0.00 0.00 0.01 0.03 0.09 0.17 0.18 0.15 0.19 0.23 0.21 0.24 0.34 0.66 0.31 0.14 0.05 0.02 0.01 0.01 0.02 0.03 0.04 0.03 0.03 0.05 0.08 0.12 0.14 0.13 0.11 0.09 0.09 0.09 0.10 0.11 0.14 0.20 0.23 0.22 0.20 0.19 0.20 0.20 0.15
0.00 0.00 0.00 0.00 0.00 0.00 0.02 0.04 0.09 0.13 0.17 0.17 0.20 0.21 0.20 0.17 0.11 0.09 0.08 0.07 0.05 0.02 0.01 0.01 0.01 0.03 0.05 0.05 0.05 0.05 0.08 0.12 0.17 0.18 0.16 0.14 0.11 0.10 0.12 0.12 0.14 0.19 0.22 0.19 0.16 0.13 0.12 0.10 0.07
0.00 0.00 0.00 0.00 0.00 0.00 0.04 0.07 0.08 0.10 0.14 0.16 0.22 0.24 0.27 0.21 0.11 0.10 0.09 0.08 0.05 0.03 0.02 0.01 0.01 0.03 0.06 0.07 0.07 0.09 0.11 0.16 0.20 0.24 0.24 0.19 0.12 0.11 0.14 0.16 0.16 0.18 0.21 0.22 0.17 0.12 0.08 0.05 0.05
0.00 0.00 0.00 0.00 0.00 0.00 0.03 0.06 0.06 0.10 0.14 0.14 0.16 0.23 0.23 0.18 0.12 0.11 0.10 0.08 0.04 0.03 0.02 0.01 0.02 0.03 0.06 0.08 0.10 0.12 0.15 0.19 0.25 0.29 0.28 0.20 0.14 0.12 0.16 0.20 0.22 0.23 0.25 0.29 0.24 0.22 0.14 0.09 0.06
0.00 0.00 0.00 0.00 0.00 0.00 0.01 0.04 0.05 0.08 0.10 0.11 0.15 0.23 0.25 0.18 0.13 0.12 0.11 0.10 0.06 0.04 0.02 0.01 0.03 0.04 0.07 0.09 0.10 0.13 0.17 0.21 0.27 0.32 0.28 0.20 0.15 0.13 0.16 0.22 0.24 0.27 0.29 0.28 0.23 0.21 0.15 0.13 0.12
0.00 0.00 0.00 0.00 0.00 0.00 0.01 0.02 0.03 0.06 0.10 0.09 0.15 0.27 0.31 0.20 0.17 0.16 0.17 0.15 0.09 0.07 0.04 0.02 0.03 0.04 0.11 0.17 0.13 0.12 0.15 0.20 0.26 0.30 0.27 0.20 0.16 0.18 0.22 0.23 0.26 0.28 0.25 0.20 0.18 0.16 0.14 0.16 0.19
0.00 0.00 0.00 0.00 0.00 0.00 0.01 0.02 0.03 0.06 0.11 0.11 0.13 0.27 0.38 0.32 0.26 0.25 0.23 0.22 0.14 0.15 0.11 0.05 0.04 0.03 0.07 0.10 0.10 0.11 0.12 0.17 0.22 0.27 0.30 0.24 0.19 0.26 0.30 0.28 0.29 0.31 0.25 0.19 0.18 0.18 0.15 0.20 0.25
0.00 0.00 0.00 0.00 0.01 0.00 0.01 0.02 0.02 0.05 0.11 0.12 0.10 0.19 0.38 0.49 0.42 0.40 0.33 0.34 0.31 0.37 0.45 0.22 0.13 0.06 0.04 0.04 0.06 0.08 0.10 0.13 0.16 0.17 0.19 0.18 0.20 0.24 0.26 0.23 0.22 0.23 0.17 0.12 0.12 0.13 0.13 0.11 0.09
0.00 0.00 0.00 0.00 0.01 0.01 0.01 0.02 0.03 0.05 0.09 0.09 0.08 0.13 0.29 0.36 0.38 0.48 0.44 0.50 0.55 0.69 0.83 0.60 0.26 0.10 0.07 0.06 0.05 0.07 0.06 0.10 0.09 0.08 0.11 0.14 0.24 0.30 0.28 0.18 0.15 0.11 0.07 0.05 0.04 0.03 0.02 0.01 0.01
0.00 0.00 0.00 0.00 0.00 0.01 0.01 0.01 0.03 0.03 0.05 0.06 0.09 0.12 0.17 0.22 0.32 0.47 0.59 0.96 0.98 0.86 0.82 0.62 0.26 0.18 0.16 0.12 0.10 0.10 0.08 0.09 0.09 0.14 0.12 0.20 0.41 0.46 0.32 0.27 0.15 0.08 0.06 0.04 0.04 0.03 0.03 0.02 0.03
0.00 0.00 0.00 0.00 0.00 0.00 0.01 0.01 0.03 0.03 0.04 0.05 0.11 0.19 0.19 0.18 0.25 0.33 0.50 1.02 1.21 0.83 0.58 0.36 0.32 0.35 0.33 0.25 0.25 0.26 0.24 0.26 0.26 0.30 0.27 0.38 0.44 0.32 0.24 0.27 0.20 0.14 0.11 0.12 0.12 0.07 0.05 0.05 0.07
0.00 0.00 0.00 0.00 0.00 0.00 0.01 0.01 0.02 0.03 0.03 0.06 0.13 0.26 0.34 0.26 0.23 0.34 0.56 0.74 0.80 0.73 0.57 0.47 0.45 0.43 0.48 0.54 0.54 0.63 0.60 0.48 0.41 0.45 0.40 0.51 0.61 0.49 0.46 0.47 0.37 0.35 0.32 0.32 0.24 0.17 0.14 0.12 0.11
0.00 0.00 0.00 0.00 0.00 0.00 0.00 0.01 0.01 0.02 0.03 0.05 0.10 0.25 0.32 0.32 0.36 0.43 0.64 0.89 0.92 0.92 0.81 0.63 0.62 0.57 0.57 0.74 0.74 0.69 0.72 0.61 0.51 0.51 0.52 0.58 0.61 0.59 0.62 0.56 0.58 0.48 0.45 0.41 0.34 0.25 0.25 0.24 0.23
0.00 0.00 0.00 0.00 0.00 0.00 0.00 0.01 0.01 0.02 0.03 0.04 0.08 0.19 0.24 0.27 0.46 0.58 0.78 1.07 1.18 1.25 1.09 0.76 0.67 0.61 0.58 0.60 0.61 0.63 0.60 0.61 0.64 0.67 0.61 0.58 0.66 0.83 0.86 0.77 0.70 0.56 0.52 0.54 0.53 0.46 0.41 0.36 0.36
0.00 0.00 0.00 0.00 0.00 0.00 0.00 0.01 0.02 0.02 0.03 0.05 0.09 0.18 0.27 0.32 0.41 0.56 0.75 1.11 1.35 1.56 1.48 1.06 0.73 0.79 0.79 0.68 0.57 0.55 0.57 0.67 0.70 0.88 0.91 0.76 0.69 0.84 0.92 0.97 0.87 0.73 0.63 0.64 0.60 0.58 0.54 0.52 0.52
0.00 0.00 0.00 0.00 0.00 0.00 0.00 0.02 0.03 0.04 0.04 0.06 0.11 0.17 0.26 0.34 0.39 0.49 0.73 1.15 1.71 2.05 1.85 1.29 0.85 0.95 1.02 0.96 0.85 0.79 0.77 0.79 0.80 0.86 0.97 0.97 0.94 0.95 1.03 1.07 0.99 0.88 0.81 0.89 0.90 0.87 0.81 0.77 0.73
0.00 0.00 0.00 0.00 0.00 0.00 0.01 0.03 0.04 0.04 0.05 0.08 0.12 0.18 0.23 0.29 0.37 0.49 0.78 1.24 1.96 2.64 2.33 1.61 1.24 1.25 1.27 1.26 1.30 1.39 1.43 1.34 1.25 1.18 1.15 1.13 1.19 1.18 1.21 1.28 1.27 1.18 1.20 1.16 1.03 1.08 1.10 1.09 1.00
0.00 0.00 0.00 0.01 0.00 0.00 0.01 0.04 0.04 0.05 0.07 0.09 0.14 0.21 0.20 0.27 0.38 0.56 0.95 1.56 2.25 2.96 2.71 2.19 1.81 1.73 1.64 1.56 1.62 1.73 1.79 1.79 1.79 1.76 1.68 1.56 1.53 1.59 1.68 1.75 1.74 1.63 1.59 1.52 1.48 1.42 1.19 1.02 0.92
0.00 0.00 0.01 0.00 0.01 0.01 0.03 0.05 0.08 0.09 0.10 0.13 0.17 0.20 0.22 0.28 0.40 0.71 1.17 1.73 2.09 2.27 2.27 2.30 2.21 2.11 2.00 1.94 1.93 2.08 2.27 2.33 2.29 2.27 2.17 2.12 2.14 2.22 2.33 2.29 2.22 2.00 1.87 1.77 1.64 1.44 1.23 1.03 0.91
0.00 0.00 0.01 0.01 0.02 0.03 0.05 0.09 0.13 0.14 0.15 0.20 0.28 0.30 0.29 0.34 0.46 0.79 1.14 1.49 1.79 2.05 2.22 2.28 2.18 2.30 2.47 2.67 2.90 3.11 3.30 3.27 3.16 3.08 2.99 2.88 2.81 2.72 2.64 2.53 2.36 2.17 2.02 1.79 1.61 1.48 1.36 1.21 1.05
0.00 0.00 0.01 0.03 0.04 0.06 0.08 0.16 0.19 0.20 0.23 0.24 0.27 0.34 0.35 0.37 0.49 0.76 0.93 1.11 1.41 1.78 2.02 2.16 2.35 2.74 3.16 3.60 4.14 4.47 4.30 4.02 3.89 3.62 3.50 3.31 3.06 2.92 2.82 2.55 2.35 2.16 1.98 1.84 1.66 1.50 1.40 1.24 1.07
0.01 0.01 0.01 0.02 0.03 0.08 0.09 0.20 0.29 0.31 0.32 0.32 0.34 0.35 0.35 0.36 0.41 0.60 0.82 0.99 1.22 1.61 1.97 2.25 2.61 3.10 3.67 4.11 4.54 4.81 4.82 4.58 4.35 3.90 3.53 3.12 2.79 2.62 2.48 2.28 2.07 1.94 1.80 1.64 1.51 1.44 1.33 1.17 0.99
0.01 0.02 0.01 0.01 0.02 0.05 0.09 0.20 0.40 0.45 0.38 0.36 0.34 0.31 0.28 0.30 0.34 0.44 0.59 0.80 1.07 1.44 1.84 2.20 2.55 3.10 3.61 4.08 4.42 4.66 4.75 4.60 4.25 3.65 3.12 2.75 2.46 2.26 2.05 1.83 1.68 1.57 1.44 1.28 1.11 1.02 0.94 0.85 0.72
0.00 0.01 0.02 0.03 0.04 0.07 0.07 0.17 0.46 0.65 0.52 0.37 0.33 0.31 0.29 0.28 0.31 0.41 0.54 0.69 0.95 1.23 1.56 1.90 2.24 2.88 3.48 3.95 4.31 4.59 4.58 4.28 3.75 3.16 2.69 2.42 2.21 2.02 1.81 1.62 1.40 1.25 1.10 0.91 0.75 0.67 0.62 0.58 0.53
0.00 0.02 0.08 0.10 0.10 0.10 0.08 0.21 0.52 0.63 0.55 0.44 0.36 0.33 0.30 0.27 0.29 0.36 0.50 0.63 0.89 1.15 1.43 1.79 2.11 2.52 2.98 3.33 3.50 3.64 3.68 3.50 3.23 2.87 2.48 2.16 1.95 1.75 1.54 1.27 1.05 0.88 0.78 0.68 0.58 0.50 0.44 0.40 0.36
0.01 0.03 0.09 0.13 0.12 0.12 0.21 0.42 0.62 0.59 0.56 0.48 0.37 0.30 0.28 0.27 0.30 0.37 0.51 0.64 0.78 0.98 1.25 1.61 1.88 2.12 2.33 2.47 2.61 2.58 2.53 2.43 2.30 2.05 1.76 1.52 1.31 1.15 0.98 0.78 0.68 0.60 0.53 0.47 0.42 0.38 0.33 0.30 0.28
0.01 0.02 0.03 0.06 0.07 0.16 0.40 0.59 0.80 0.73 0.69 0.52 0.40 0.33 0.32 0.34 0.36 0.44 0.55 0.64 0.74 0.87 1.05 1.22 1.36 1.52 1.57 1.52 1.50 1.55 1.55 1.49 1.37 1.21 1.02 0.86 0.70 0.59 0.52 0.44 0.39 0.34 0.33 0.31 0.30 0.29 0.28 0.27 0.26
0.02 0.02 0.04 0.09 0.13 0.23 0.39 0.66 0.95 1.00 0.91 0.70 0.53 0.44 0.40 0.40 0.44 0.50 0.59 0.63 0.69 0.76 0.91 0.95 0.95 0.95 1.00 1.05 1.04 1.00 0.99 0.97 0.93 0.87 0.80 0.70 0.57 0.46 0.38 0.34 0.33 0.30 0.28 0.27 0.27 0.27 0.26 0.26 0.25
0.05 0.05 0.05 0.10 0.13 0.25 0.48 0.86 1.02 1.15 1.06 0.92 0.79 0.62 0.53 0.50 0.55 0.61 0.62 0.59 0.59 0.62 0.66 0.69 0.70 0.70 0.71 0.76 0.78 0.76 0.69 0.64 0.63 0.63 0.60 0.55 0.48 0.40 0.34 0.29 0.27 0.26 0.24 0.24 0.24 0.23 0.21 0.20 0.18
0.05 0.06 0.08 0.15 0.20 0.24 0.48 1.09 1.11 1.34 1.29 1.10 0.94 0.74 0.68 0.64 0.63 0.63 0.59 0.55 0.54 0.57 0.60 0.59 0.62 0.62 0.63 0.61 0.60 0.58 0.51 0.46 0.45 0.45 0.44 0.41 0.39 0.36 0.34 0.32 0.31 0.27 0.23 0.21 0.21 0.20 0.18 0.17 0.16

GEFSSGP_prec_meanprecacc_114.txt.gz
Total_Precipitation_Accumulation
0.00 0.00 0.00 0.00 0.00 0.00 0.01 0.03 0.09 0.17 0.18 0.15 0.19 0.23 0.21 0.24 0.34 0.69 0.39 0.22 0.09 0.02 0.01 0.01 0.02 0.03 0.04 0.03 0.03 0.05 0.08 0.12 0.14 0.13 0.11 0.10 0.09 0.09 0.10 0.11 0.14 0.20 0.23 0.22 0.20 0.20 0.20 0.20 0.15
0.00 0.00 0.00 0.00 0.00 0.00 0.02 0.04 0.09 0.13 0.17 0.17 0.20 0.21 0.20 0.18 0.12 0.11 0.10 0.10 0.07 0.03 0.01 0.01 0.01 0.03 0.05 0.05 0.05 0.06 0.09 0.12 0.17 0.18 0.17 0.14 0.11 0.11 0.12 0.12 0.14 0.19 0.22 0.19 0.16 0.13 0.12 0.10 0.07
0.00 0.00 0.00 0.00 0.00 0.00 0.04 0.07 0.09 0.11 0.14 0.16 0.22 0.24 0.28 0.21 0.12 0.11 0.10 0.09 0.06 0.04 0.02 0.01 0.01 0.03 0.06 0.07 0.07 0.09 0.12 0.16 0.20 0.24 0.24 0.19 0.12 0.11 0.14 0.16 0.16 0.18 0.21 0.22 0.18 0.12 0.08 0.05 0.05
0.00 0.00 0.00 0.00 0.00 0.00 0.03 0.06 0.06 0.10 0.14 0.15 0.16 0.23 0.24 0.19 0.13 0.12 0.11 0.09 0.05 0.04 0.02 0.01 0.02 0.03 0.06 0.08 0.10 0.13 0.15 0.19 0.25 0.29 0.28 0.21 0.14 0.13 0.16 0.20 0.22 0.23 0.26 0.30 0.25 0.22 0.14 0.09 0.06
0.00 0.00 0.00 0.00 0.00 0.00 0.01 0.04 0.05 0.08 0.11 0.12 0.15 0.23 0.26 0.20 0.14 0.13 0.12 0.11 0.07 0.05 0.03 0.01 0.03 0.04 0.07 0.09 0.10 0.13 0.17 0.22 0.28 0.32 0.28 0.21 0.15 0.13 0.16 0.22 0.25 0.28 0.30 0.28 0.24 0.21 0.15 0.13 0.12
0.00 0.00 0.00 0.00 0.00 0.00 0.01 0.02 0.03 0.06 0.10 0.10 0.16 0.28 0.33 0.21 0.18 0.17 0.18 0.17 0.11 0.09 0.06 0.03 0.03 0.04 0.12 0.18 0.13 0.12 0.16 0.20 0.27 0.31 0.28 0.20 0.16 0.18 0.22 0.23 0.26 0.29 0.25 0.20 0.19 0.17 0.14 0.16 0.19
0.00 0.00 0.00 0.00 0.00 0.00 0.01 0.02 0.03 0.06 0.11 0.12 0.14 0.28 0.40 0.35 0.28 0.26 0.24 0.24 0.18 0.17 0.13 0.07 0.05 0.04 0.08 0.11 0.11 0.12 0.14 0.18 0.24 0.28 0.31 0.25 0.20 0.27 0.31 0.29 0.29 0.31 0.25 0.19 0.18 0.18 0.15 0.20 0.25
0.00 0.00 0.00 0.00 0.01 0.01 0.01 0.02 0.03 0.06 0.11 0.14 0.12 0.20 0.41 0.55 0.46 0.44 0.37 0.39 0.38 0.48 0.57 0.37 0.23 0.12 0.05 0.05 0.08 0.12 0.14 0.17 0.20 0.20 0.22 0.20 0.21 0.25 0.28 0.24 0.23 0.24 0.18 0.13 0.12 0.13 0.13 0.11 0.10
0.00 0.00 0.00 0.00 0.01 0.01 0.01 0.02 0.03 0.05 0.09 0.09 0.09 0.14 0.33 0.41 0.43 0.55 0.52 0.58 0.67 0.89 1.08 0.76 0.37 0.19 0.14 0.12 0.11 0.12 0.11 0.15 0.14 0.12 0.14 0.18 0.27 0.32 0.31 0.21 0.17 0.12 0.09 0.06 0.05 0.04 0.03 0.02 0.02
0.00 0.00 0.00 0.00 0.00 0.01 0.01 0.01 0.03 0.03 0.05 0.07 0.10 0.14 0.24 0.30 0.38 0.55 0.67 1.05 1.11 1.06 1.10 0.93 0.46 0.36 0.33 0.27 0.22 0.18 0.13 0.13 0.13 0.17 0.15 0.23 0.44 0.50 0.37 0.31 0.19 0.12 0.09 0.07 0.06 0.06 0.04 0.03 0.03
0.00 0.00 0.00 0.00 0.00 0.01 0.01 0.01 0.03 0.03 0.04 0.06 0.12 0.21 0.24 0.26 0.35 0.44 0.60 1.16 1.38 1.00 0.80 0.71 0.60 0.50 0.47 0.41 0.39 0.37 0.31 0.32 0.32 0.35 0.31 0.42 0.49 0.38 0.31 0.34 0.28 0.23 0.18 0.18 0.17 0.10 0.07 0.07 0.09
0.00 0.00 0.00 0.00 0.00 0.01 0.01 0.02 0.02 0.03 0.04 0.06 0.14 0.28 0.39 0.36 0.36 0.50 0.76 0.92 1.00 0.93 0.80 0.78 0.80 0.66 0.64 0.70 0.70 0.77 0.71 0.58 0.49 0.51 0.45 0.58 0.72 0.63 0.60 0.62 0.55 0.55 0.50 0.44 0.33 0.23 0.18 0.16 0.14
0.00 0.00 0.00 0.00 0.00 0.01 0.01 0.01 0.01 0.02 0.03 0.05 0.11 0.27 0.37 0.40 0.48 0.59 0.81 1.06 1.11 1.14 1.05 0.92 0.96 0.92 0.86 0.98 0.97 0.86 0.84 0.70 0.60 0.59 0.60 0.67 0.73 0.77 0.85 0.82 0.90 0.89 0.76 0.60 0.48 0.35 0.34 0.32 0.30
0.00 0.00 0.00 0.00 0.00 0.00 0.01 0.01 0.01 0.02 0.03 0.04 0.09 0.21 0.29 0.31 0.52 0.68 0.91 1.22 1.40 1.50 1.34 1.08 1.02 0.94 0.89 0.92 0.96 0.91 0.83 0.77 0.77 0.81 0.76 0.72 0.82 1.07 1.12 1.08 1.02 0.92 0.84 0.77 0.70 0.61 0.56 0.51 0.50
0.00 0.00 0.00 0.00 0.00 0.00 0.00 0.01 0.02 0.03 0.04 0.05 0.10 0.20 0.31 0.39 0.46 0.64 0.88 1.27 1.59 1.84 1.72 1.37 1.14 1.13 1.05 0.97 0.98 0.91 0.91 1.02 0.98 1.11 1.20 1.03 0.94 1.07 1.18 1.29 1.21 1.06 0.99 0.92 0.82 0.80 0.77 0.71 0.69
0.00 0.00 0.00 0.00 0.00 0.00 0.00 0.03 0.03 0.04 0.04 0.07 0.11 0.18 0.31 0.47 0.45 0.55 0.83 1.31 1.90 2.31 2.14 1.59 1.19 1.27 1.32 1.32 1.25 1.22 1.17 1.19 1.20 1.17 1.29 1.28 1.32 1.27 1.28 1.33 1.24 1.14 1.10 1.19 1.17 1.15 1.11 1.01 0.94
0.00 0.00 0.00 0.01 0.00 0.00 0.01 0.04 0.05 0.05 0.06 0.08 0.13 0.21 0.33 0.37 0.42 0.54 0.85 1.37 2.15 2.86 2.62 1.96 1.64 1.64 1.64 1.68 1.80 1.92 2.01 1.84 1.70 1.61 1.54 1.48 1.52 1.48 1.48 1.55 1.51 1.44 1.48 1.45 1.31 1.33 1.37 1.36 1.24
0.00 0.00 0.00 0.01 0.00 0.00 0.02 0.04 0.06 0.07 0.08 0.10 0.15 0.25 0.27 0.32 0.42 0.60 1.00 1.66 2.37 3.10 2.91 2.46 2.15 2.17 2.01 1.94 2.07 2.23 2.34 2.33 2.31 2.30 2.17 2.00 1.95 1.97 2.01 2.07 2.03 1.87 1.83 1.78 1.76 1.71 1.47 1.26 1.12
0.00 0.00 0.01 0.01 0.01 0.01 0.03 0.07 0.10 0.11 0.12 0.14 0.19 0.27 0.32 0.34 0.43 0.75 1.21 1.77 2.17 2.37 2.41 2.48 2.45 2.44 2.39 2.36 2.41 2.59 2.75 2.78 2.73 2.70 2.67 2.65 2.61 2.61 2.66 2.60 2.53 2.29 2.11 1.99 1.88 1.73 1.53 1.32 1.14
0.00 0.00 0.01 0.02 0.02 0.03 0.05 0.11 0.17 0.18 0.19 0.23 0.32 0.34 0.34 0.38 0.49 0.83 1.17 1.54 1.86 2.12 2.31 2.42 2.35 2.53 2.74 3.03 3.38 3.66 3.83 3.73 3.59 3.49 3.35 3.27 3.20 3.09 2.95 2.84 2.67 2.48 2.26 1.99 1.80 1.67 1.57 1.43 1.26
0.00 0.00 0.01 0.04 0.06 0.07 0.09 0.18 0.23 0.25 0.28 0.31 0.35 0.41 0.42 0.43 0.55 0.82 0.98 1.17 1.48 1.84 2.09 2.25 2.44 2.86 3.32 3.80 4.42 4.83 4.71 4.43 4.26 3.95 3.79 3.54 3.29 3.19 3.09 2.78 2.59 2.42 2.22 2.04 1.83 1.67 1.57 1.43 1.26
0.01 0.01 0.02 0.03 0.04 0.08 0.09 0.22 0.33 0.38 0.41 0.41 0.42 0.41 0.42 0.42 0.47 0.65 0.88 1.06 1.29 1.68 2.05 2.33 2.69 3.20 3.79 4.26 4.70 5.00 5.04 4.84 4.60 4.14 3.73 3.29 2.96 2.78 2.66 2.46 2.23 2.10 1.96 1.80 1.64 1.57 1.45 1.31 1.14
0.01 0.02 0.03 0.02 0.02 0.05 0.10 0.22 0.45 0.51 0.46 0.44 0.42 0.38 0.34 0.34 0.38 0.48 0.64 0.85 1.13 1.53 1.96 2.31 2.63 3.19 3.72 4.19 4.53 4.77 4.88 4.75 4.44 3.83 3.26 2.88 2.59 2.36 2.14 1.93 1.79 1.71 1.56 1.37 1.19 1.10 1.03 0.95 0.84
0.00 0.01 0.03 0.03 0.04 0.09 0.09 0.21 0.53 0.74 0.65 0.51 0.48 0.41 0.36 0.32 0.35 0.44 0.56 0.72 0.99 1.31 1.66 2.00 2.33 2.98 3.61 4.08 4.42 4.68 4.67 4.39 3.90 3.34 2.84 2.55 2.33 2.11 1.89 1.71 1.50 1.35 1.20 1.01 0.83 0.74 0.72 0.72 0.70
0.01 0.02 0.09 0.11 0.12 0.12 0.11 0.28 0.62 0.75 0.68 0.57 0.51 0.42 0.35 0.30 0.31 0.39 0.52 0.64 0.91 1.21 1.50 1.85 2.18 2.58 3.04 3.40 3.58 3.72 3.76 3.60 3.36 3.02 2.62 2.29 2.08 1.88 1.64 1.36 1.14 0.98 0.89 0.79 0.68 0.60 0.54 0.52 0.52
0.01 0.03 0.10 0.15 0.15 0.16 0.25 0.52 0.79 0.76 0.69 0.62 0.54 0.42 0.36 0.32 0.33 0.39 0.53 0.66 0.80 1.03 1.32 1.66 1.93 2.18 2.38 2.53 2.68 2.66 2.62 2.55 2.46 2.18 1.86 1.61 1.40 1.25 1.08 0.89 0.80 0.71 0.63 0.58 0.54 0.49 0.45 0.43 0.44
0.02 0.03 0.04 0.07 0.09 0.19 0.47 0.69 0.93 0.86 0.85 0.74 0.63 0.52 0.43 0.38 0.38 0.46 0.59 0.68 0.77 0.90 1.11 1.28 1.42 1.57 1.63 1.59 1.58 1.63 1.64 1.58 1.47 1.32 1.11 0.92 0.75 0.65 0.59 0.51 0.46 0.41 0.39 0.38 0.38 0.38 0.40 0.40 0.41
0.02 0.03 0.05 0.10 0.16 0.27 0.46 0.75 1.06 1.11 1.05 0.83 0.67 0.56 0.46 0.44 0.46 0.52 0.62 0.69 0.73 0.79 0.95 1.05 1.06 1.03 1.05 1.10 1.09 1.06 1.05 1.03 0.99 0.92 0.84 0.73 0.61 0.50 0.41 0.37 0.35 0.32 0.30 0.31 0.32 0.34 0.36 0.39 0.37
0.06 0.06 0.06 0.12 0.17 0.31 0.56 0.98 1.11 1.26 1.20 1.00 0.85 0.66 0.56 0.53 0.56 0.63 0.63 0.61 0.61 0.64 0.67 0.71 0.76 0.79 0.80 0.82 0.83 0.81 0.74 0.69 0.66 0.66 0.62 0.57 0.49 0.42 0.37 0.32 0.29 0.28 0.26 0.25 0.27 0.28 0.29 0.33 0.34
0.06 0.07 0.10 0.18 0.24 0.28 0.53 1.16 1.17 1.42 1.38 1.18 0.99 0.77 0.70 0.67 0.66 0.65 0.61 0.57 0.56 0.60 0.62 0.62 0.64 0.65 0.67 0.67 0.64 0.62 0.54 0.50 0.48 0.47 0.46 0.42 0.40 0.38 0.36 0.34 0.33 0.30 0.26 0.23 0.24 0.25 0.24 0.25 0.25

GEFSSGP_prec_meanprecacc_120.txt.gz
Total_Precipitation_Accumulation
0.00 0.00 0.00 0.00 0.00 0.00 0.01 0.03 0.09 0.18 0.19 0.16 0.19 0.24 0.22 0.24 0.34 0.70 0.39 0.22 0.10 0.03 0.02 0.02 0.02 0.03 0.04 0.03 0.03 0.05 0.08 0.12 0.14 0.13 0.11 0.10 0.09 0.10 0.10 0.11 0.14 0.20 0.24 0.22 0.20 0.20 0.21 0.21 0.16
0.00 0.00 0.00 0.00 0.00 0.00 0.02 0.04 0.09 0.13 0.17 0.18 0.20 0.21 0.20 0.18 0.12 0.11 0.10 0.10 0.08 0.04 0.02 0.02 0.02 0.03 0.05 0.05 0.05 0.06 0.09 0.13 0.17 0.18 0.17 0.14 0.11 0.11 0.12 0.12 0.14 0.20 0.22 0.20 0.16 0.14 0.13 0.11 0.08
0.00 0.00 0.00 0.00 0.00 0.00 0.04 0.07 0.09 0.12 0.16 0.18 0.24 0.25 0.28 0.22 0.12 0.12 0.11 0.09 0.06 0.04 0.02 0.02 0.02 0.03 0.06 0.07 0.08 0.09 0.12 0.16 0.20 0.24 0.25 0.19 0.13 0.11 0.14 0.16 0.17 0.18 0.22 0.22 0.18 0.13 0.09 0.06 0.05
0.00 0.00 0.00 0.00 0.00 0.00 0.03 0.06 0.06 0.11 0.15 0.16 0.17 0.24 0.25 0.20 0.14 0.12 0.11 0.09 0.05 0.04 0.03 0.02 0.02 0.03 0.06 0.09 0.10 0.13 0.15 0.19 0.25 0.29 0.29 0.21 0.14 0.13 0.16 0.20 0.22 0.23 0.26 0.30 0.25 0.22 0.15 0.10 0.07
0.00 0.00 0.00 0.00 0.00 0.00 0.01 0.04 0.06 0.09 0.11 0.12 0.15 0.23 0.27 0.21 0.16 0.13 0.12 0.11 0.08 0.06 0.06 0.05 0.04 0.04 0.07 0.10 0.10 0.13 0.17 0.22 0.28 0.32 0.28 0.21 0.15 0.13 0.16 0.22 0.25 0.28 0.30 0.29 0.24 0.21 0.16 0.14 0.13
0.00 0.00 0.00 0.00 0.00 0.00 0.01 0.02 0.03 0.07 0.10 0.11 0.16 0.29 0.35 0.23 0.19 0.18 0.19 0.19 0.14 0.12 0.10 0.07 0.06 0.06 0.13 0.18 0.14 0.12 0.16 0.21 0.27 0.32 0.28 0.21 0.17 0.18 0.22 0.23 0.27 0.29 0.25 0.21 0.19 0.17 0.15 0.16 0.21
0.00 0.00 0.00 0.00 0.00 0.00 0.01 0.02 0.03 0.06 0.11 0.12 0.14 0.28 0.42 0.38 0.31 0.29 0.27 0.27 0.21 0.21 0.17 0.11 0.09 0.08 0.11 0.12 0.12 0.15 0.16 0.20 0.26 0.29 0.32 0.26 0.21 0.27 0.31 0.29 0.30 0.32 0.26 0.20 0.19 0.19 0.16 0.21 0.27
0.00 0.00 0.00 0.00 0.01 0.01 0.01 0.02 0.03 0.06 0.11 0.14 0.12 0.20 0.43 0.58 0.50 0.48 0.40 0.43 0.43 0.54 0.62 0.41 0.28 0.18 0.11 0.10 0.12 0.14 0.16 0.19 0.22 0.23 0.24 0.23 0.23 0.26 0.28 0.25 0.24 0.24 0.19 0.14 0.13 0.14 0.14 0.13 0.12
0.00 0.00 0.00 0.00 0.01 0.01 0.01 0.03 0.04 0.06 0.10 0.10 0.09 0.15 0.34 0.44 0.47 0.59 0.58 0.65 0.74 0.99 1.16 0.84 0.46 0.29 0.24 0.21 0.18 0.18 0.15 0.18 0.16 0.15 0.18 0.22 0.30 0.34 0.32 0.22 0.19 0.14 0.10 0.08 0.07 0.06 0.05 0.04 0.04
0.00 0.00 0.00 0.00 0.00 0.01 0.01 0.02 0.03 0.04 0.06 0.08 0.12 0.16 0.27 0.34 0.43 0.60 0.73 1.10 1.16 1.11 1.15 0.99 0.55 0.50 0.54 0.44 0.33 0.27 0.20 0.18 0.17 0.20 0.18 0.25 0.46 0.52 0.38 0.33 0.20 0.14 0.12 0.10 0.10 0.09 0.07 0.05 0.05
0.00 0.00 0.00 0.00 0.00 0.01 0.01 0.02 0.03 0.04 0.05 0.07 0.15 0.25 0.28 0.31 0.41 0.51 0.68 1.24 1.45 1.07 0.87 0.78 0.67 0.58 0.63 0.59 0.52 0.46 0.38 0.39 0.39 0.42 0.36 0.45 0.51 0.40 0.33 0.36 0.30 0.26 0.21 0.21 0.20 0.13 0.10 0.09 0.10
0.00 0.00 0.00 0.00 0.00 0.01 0.01 0.02 0.03 0.03 0.05 0.08 0.16 0.30 0.42 0.40 0.41 0.57 0.85 1.00 1.08 1.00 0.89 0.87 0.89 0.76 0.76 0.86 0.83 0.87 0.79 0.66 0.56 0.57 0.52 0.63 0.75 0.67 0.63 0.65 0.58 0.59 0.54 0.48 0.36 0.27 0.21 0.17 0.16
0.00 0.00 0.00 0.00 0.01 0.01 0.01 0.01 0.02 0.03 0.04 0.06 0.13 0.29 0.40 0.43 0.51 0.63 0.88 1.13 1.18 1.23 1.15 1.02 1.06 1.03 0.97 1.11 1.12 1.01 0.96 0.81 0.69 0.67 0.68 0.74 0.80 0.84 0.91 0.88 0.97 0.96 0.82 0.64 0.53 0.41 0.38 0.36 0.33
0.00 0.00 0.00 0.00 0.01 0.01 0.01 0.01 0.02 0.03 0.04 0.06 0.11 0.22 0.31 0.33 0.55 0.72 0.96 1.27 1.46 1.58 1.45 1.18 1.12 1.07 1.01 1.06 1.14 1.11 1.01 0.92 0.89 0.92 0.87 0.83 0.92 1.16 1.22 1.18 1.12 1.02 0.92 0.85 0.78 0.70 0.65 0.59 0.57
0.00 0.00 0.00 0.00 0.00 0.01 0.01 0.01 0.03 0.04 0.04 0.06 0.11 0.21 0.32 0.42 0.51 0.68 0.91 1.31 1.67 1.92 1.85 1.55 1.32 1.30 1.23 1.16 1.20 1.14 1.12 1.24 1.18 1.28 1.35 1.18 1.07 1.20 1.30 1.41 1.33 1.19 1.14 1.05 0.93 0.92 0.87 0.81 0.78
0.00 0.00 0.00 0.00 0.00 0.00 0.00 0.03 0.04 0.05 0.05 0.07 0.12 0.19 0.32 0.50 0.49 0.57 0.84 1.33 1.96 2.39 2.27 1.75 1.35 1.45 1.53 1.55 1.50 1.51 1.49 1.51 1.47 1.40 1.49 1.46 1.49 1.45 1.46 1.49 1.38 1.29 1.26 1.34 1.33 1.30 1.25 1.13 1.06
0.00 0.00 0.00 0.01 0.00 0.00 0.01 0.04 0.06 0.06 0.07 0.09 0.14 0.22 0.34 0.38 0.43 0.55 0.87 1.40 2.18 2.90 2.68 2.05 1.75 1.81 1.86 1.92 2.06 2.17 2.27 2.17 2.07 1.93 1.82 1.75 1.79 1.77 1.77 1.81 1.72 1.64 1.67 1.66 1.49 1.49 1.52 1.50 1.38
0.00 0.00 0.00 0.01 0.00 0.00 0.02 0.05 0.07 0.08 0.09 0.11 0.16 0.26 0.28 0.33 0.43 0.61 1.02 1.69 2.40 3.13 2.95 2.52 2.23 2.30 2.24 2.19 2.35 2.49 2.58 2.60 2.63 2.61 2.46 2.28 2.23 2.27 2.34 2.40 2.31 2.13 2.07 2.02 1.99 1.91 1.66 1.46 1.33
0.00 0.00 0.01 0.01 0.01 0.01 0.03 0.08 0.12 0.12 0.13 0.15 0.20 0.29 0.33 0.35 0.44 0.76 1.22 1.80 2.22 2.45 2.49 2.57 2.53 2.54 2.57 2.57 2.61 2.80 3.00 3.06 3.01 3.02 3.00 2.92 2.86 2.89 2.97 2.93 2.85 2.60 2.39 2.23 2.11 1.96 1.76 1.53 1.33
0.00 0.00 0.01 0.02 0.03 0.04 0.05 0.12 0.18 0.19 0.20 0.25 0.34 0.37 0.36 0.40 0.50 0.84 1.19 1.57 1.91 2.20 2.38 2.49 2.44 2.62 2.85 3.17 3.55 3.87 4.09 4.00 3.84 3.75 3.63 3.52 3.44 3.35 3.24 3.16 3.00 2.77 2.55 2.26 2.05 1.92 1.79 1.64 1.45
0.00 0.00 0.01 0.04 0.06 0.07 0.09 0.19 0.24 0.26 0.30 0.33 0.38 0.44 0.44 0.45 0.57 0.83 1.01 1.22 1.52 1.88 2.13 2.31 2.52 2.94 3.41 3.90 4.53 4.98 4.91 4.62 4.45 4.16 4.04 3.77 3.49 3.41 3.38 3.12 2.93 2.74 2.52 2.32 2.07 1.92 1.83 1.64 1.47
0.01 0.01 0.02 0.03 0.05 0.09 0.10 0.22 0.35 0.40 0.42 0.43 0.44 0.43 0.44 0.44 0.49 0.68 0.91 1.11 1.35 1.73 2.09 2.39 2.76 3.27 3.87 4.35 4.80 5.11 5.15 4.95 4.71 4.26 3.89 3.48 3.11 2.92 2.84 2.74 2.55 2.41 2.25 2.06 1.90 1.82 1.71 1.55 1.34
0.01 0.02 0.03 0.02 0.02 0.05 0.11 0.22 0.46 0.52 0.47 0.46 0.44 0.40 0.37 0.36 0.40 0.50 0.67 0.89 1.19 1.59 2.02 2.38 2.71 3.26 3.81 4.31 4.66 4.88 4.98 4.86 4.54 3.93 3.37 3.00 2.70 2.47 2.25 2.09 1.99 1.92 1.80 1.58 1.42 1.37 1.30 1.20 1.07
0.00 0.01 0.03 0.04 0.04 0.09 0.09 0.21 0.53 0.74 0.66 0.53 0.49 0.43 0.38 0.35 0.37 0.46 0.58 0.74 1.03 1.37 1.73 2.07 2.43 3.06 3.70 4.21 4.56 4.80 4.80 4.51 4.00 3.43 2.92 2.64 2.42 2.19 1.98 1.83 1.64 1.50 1.37 1.18 0.99 0.92 0.93 0.94 0.92
0.01 0.02 0.09 0.12 0.12 0.12 0.11 0.28 0.63 0.76 0.70 0.59 0.52 0.45 0.40 0.34 0.34 0.41 0.54 0.66 0.93 1.25 1.54 1.89 2.25 2.66 3.12 3.50 3.73 3.88 3.88 3.67 3.42 3.08 2.68 2.36 2.17 1.96 1.71 1.45 1.26 1.12 1.03 0.95 0.82 0.72 0.69 0.69 0.70
0.01 0.03 0.10 0.15 0.15 0.16 0.25 0.52 0.80 0.77 0.70 0.64 0.56 0.47 0.42 0.37 0.37 0.42 0.55 0.68 0.81 1.04 1.33 1.67 1.95 2.22 2.43 2.59 2.78 2.78 2.74 2.67 2.55 2.25 1.93 1.68 1.47 1.34 1.17 0.99 0.91 0.82 0.76 0.71 0.66 0.59 0.56 0.55 0.57
0.02 0.03 0.04 0.07 0.09 0.19 0.47 0.69 0.94 0.87 0.87 0.76 0.66 0.59 0.52 0.45 0.43 0.50 0.61 0.69 0.79 0.92 1.12 1.29 1.43 1.59 1.65 1.63 1.64 1.70 1.73 1.69 1.57 1.41 1.21 0.98 0.81 0.73 0.66 0.60 0.57 0.50 0.49 0.50 0.50 0.49 0.50 0.50 0.50
0.03 0.03 0.05 0.10 0.16 0.27 0.46 0.75 1.06 1.12 1.07 0.85 0.69 0.58 0.49 0.47 0.48 0.54 0.63 0.71 0.76 0.81 0.98 1.07 1.08 1.05 1.08 1.13 1.13 1.10 1.11 1.11 1.07 1.00 0.91 0.79 0.67 0.56 0.46 0.42 0.42 0.38 0.36 0.36 0.39 0.42 0.44 0.47 0.46
0.06 0.06 0.07 0.12 0.17 0.31 0.56 0.99 1.11 1.27 1.22 1.02 0.87 0.68 0.57 0.55 0.58 0.64 0.65 0.63 0.63 0.66 0.70 0.75 0.80 0.83 0.84 0.85 0.85 0.84 0.78 0.73 0.72 0.73 0.69 0.62 0.55 0.48 0.41 0.35 0.34 0.32 0.29 0.29 0.31 0.33 0.35 0.40 0.41
0.07 0.08 0.10 0.19 0.24 0.28 0.53 1.16 1.18 1.43 1.38 1.20 1.01 0.79 0.72 0.70 0.68 0.66 0.63 0.59 0.58 0.62 0.65 0.65 0.67 0.67 0.69 0.69 0.66 0.64 0.58 0.53 0.53 0.52 0.51 0.46 0.43 0.42 0.40 0.37 0.36 0.32 0.29 0.26 0.27 0.28 0.28 0.29 0.29

GEFSSGP_prec_meanprecacc_126.txt.gz
Total_Precipitation_Accumulation
0.00 0.00 0.00 0.00 0.00 0.00 0.01 0.03 0.09 0.18 0.19 0.16 0.19 0.24 0.22 0.24 0.35 0.71 0.40 0.23 0.11 0.03 0.03 0.02 0.03 0.04 0.05 0.04 0.04 0.05 0.08 0.12 0.14 0.14 0.12 0.10 0.10 0.10 0.11 0.12 0.15 0.21 0.25 0.23 0.21 0.21 0.22 0.21 0.16
0.00 0.00 0.00 0.00 0.00 0.00 0.02 0.04 0.09 0.14 0.17 0.18 0.21 0.22 0.21 0.18 0.12 0.11 0.11 0.11 0.09 0.04 0.04 0.03 0.03 0.04 0.06 0.05 0.06 0.06 0.09 0.13 0.18 0.19 0.17 0.14 0.11 0.11 0.12 0.13 0.14 0.20 0.23 0.20 0.17 0.14 0.13 0.11 0.08
0.00 0.00 0.00 0.00 0.00 0.00 0.04 0.07 0.09 0.12 0.16 0.18 0.24 0.25 0.28 0.22 0.13 0.12 0.11 0.10 0.07 0.05 0.03 0.03 0.02 0.04 0.07 0.08 0.09 0.09 0.12 0.17 0.21 0.24 0.25 0.19 0.13 0.11 0.15 0.16 0.17 0.18 0.22 0.23 0.19 0.13 0.09 0.07 0.06
0.00 0.00 0.00 0.00 0.00 0.00 0.03 0.06 0.06 0.11 0.16 0.17 0.18 0.25 0.25 0.21 0.15 0.13 0.11 0.09 0.05 0.05 0.05 0.04 0.04 0.04 0.07 0.09 0.11 0.14 0.16 0.20 0.26 0.30 0.29 0.21 0.14 0.13 0.16 0.20 0.23 0.24 0.26 0.30 0.26 0.22 0.15 0.10 0.07
0.00 0.00 0.00 0.00 0.00 0.00 0.01 0.04 0.06 0.09 0.11 0.13 0.16 0.24 0.28 0.22 0.16 0.14 0.13 0.13 0.10 0.08 0.09 0.08 0.07 0.06 0.08 0.10 0.10 0.13 0.18 0.22 0.29 0.33 0.29 0.21 0.16 0.14 0.16 0.22 0.25 0.28 0.31 0.29 0.25 0.22 0.16 0.14 0.14
0.00 0.00 0.00 0.00 0.00 0.00 0.01 0.02 0.03 0.07 0.10 0.11 0.17 0.29 0.36 0.25 0.21 0.19 0.21 0.21 0.15 0.13 0.12 0.09 0.08 0.08 0.13 0.19 0.14 0.13 0.17 0.21 0.28 0.32 0.29 0.21 0.17 0.18 0.22 0.24 0.27 0.30 0.26 0.22 0.20 0.18 0.15 0.17 0.22
0.00 0.00 0.00 0.00 0.00 0.00 0.01 0.02 0.03 0.06 0.11 0.12 0.15 0.29 0.44 0.40 0.32 0.30 0.28 0.27 0.22 0.23 0.19 0.13 0.12 0.11 0.13 0.13 0.13 0.15 0.17 0.21 0.26 0.30 0.33 0.26 0.21 0.28 0.32 0.30 0.30 0.33 0.27 0.21 0.20 0.20 0.17 0.23 0.28
0.00 0.00 0.00 0.00 0.01 0.01 0.01 0.02 0.03 0.07 0.12 0.14 0.12 0.21 0.44 0.59 0.51 0.48 0.41 0.43 0.44 0.56 0.65 0.44 0.31 0.21 0.13 0.11 0.14 0.16 0.17 0.20 0.23 0.24 0.25 0.25 0.25 0.27 0.29 0.27 0.26 0.26 0.21 0.16 0.15 0.17 0.16 0.15 0.15
0.00 0.00 0.00 0.00 0.01 0.01 0.01 0.03 0.04 0.06 0.10 0.10 0.09 0.16 0.35 0.45 0.48 0.60 0.59 0.66 0.75 1.00 1.19 0.89 0.50 0.31 0.26 0.22 0.19 0.20 0.17 0.21 0.19 0.17 0.19 0.24 0.33 0.37 0.35 0.25 0.22 0.18 0.14 0.12 0.11 0.10 0.08 0.07 0.07
0.00 0.00 0.00 0.00 0.00 0.01 0.01 0.02 0.04 0.05 0.07 0.09 0.13 0.19 0.31 0.41 0.49 0.64 0.77 1.14 1.19 1.14 1.18 1.02 0.58 0.54 0.59 0.49 0.39 0.32 0.24 0.22 0.20 0.24 0.21 0.29 0.51 0.58 0.43 0.38 0.25 0.19 0.17 0.16 0.15 0.14 0.11 0.08 0.08
0.00 0.00 0.00 0.00 0.00 0.01 0.01 0.02 0.03 0.04 0.05 0.08 0.17 0.29 0.37 0.45 0.50 0.59 0.75 1.28 1.49 1.11 0.91 0.81 0.71 0.64 0.71 0.67 0.59 0.54 0.46 0.46 0.44 0.47 0.42 0.51 0.57 0.46 0.40 0.43 0.36 0.33 0.29 0.28 0.29 0.21 0.15 0.14 0.16
0.00 0.00 0.00 0.00 0.00 0.01 0.01 0.02 0.03 0.04 0.05 0.09 0.17 0.32 0.47 0.48 0.44 0.60 0.88 1.03 1.10 1.03 0.93 0.93 0.95 0.84 0.86 0.94 0.90 0.96 0.90 0.76 0.63 0.62 0.57 0.69 0.82 0.74 0.70 0.72 0.65 0.68 0.65 0.59 0.46 0.37 0.31 0.26 0.23
0.00 0.00 0.00 0.00 0.01 0.01 0.01 0.02 0.02 0.03 0.04 0.07 0.14 0.30 0.41 0.44 0.53 0.65 0.90 1.15 1.20 1.25 1.17 1.05 1.11 1.09 1.02 1.17 1.19 1.11 1.07 0.91 0.76 0.74 0.74 0.82 0.88 0.92 1.01 0.99 1.08 1.07 0.94 0.75 0.63 0.49 0.48 0.46 0.41
0.00 0.00 0.00 0.01 0.01 0.01 0.01 0.01 0.02 0.04 0.05 0.07 0.11 0.23 0.32 0.35 0.56 0.72 0.96 1.28 1.47 1.60 1.47 1.20 1.16 1.11 1.07 1.13 1.24 1.21 1.11 1.01 0.99 1.01 0.96 0.92 1.02 1.26 1.33 1.29 1.25 1.16 1.05 0.97 0.89 0.78 0.74 0.69 0.67
0.00 0.00 0.01 0.00 0.00 0.01 0.01 0.01 0.03 0.04 0.05 0.07 0.12 0.22 0.33 0.44 0.52 0.69 0.92 1.32 1.69 1.94 1.87 1.58 1.34 1.33 1.28 1.23 1.28 1.23 1.23 1.35 1.30 1.41 1.48 1.31 1.20 1.31 1.42 1.52 1.45 1.32 1.27 1.17 1.05 1.03 0.99 0.91 0.88
0.00 0.00 0.01 0.01 0.00 0.00 0.01 0.03 0.04 0.05 0.06 0.08 0.13 0.20 0.33 0.50 0.49 0.58 0.85 1.34 1.98 2.40 2.29 1.77 1.38 1.49 1.57 1.63 1.61 1.62 1.60 1.64 1.62 1.56 1.65 1.61 1.62 1.56 1.56 1.59 1.47 1.38 1.36 1.45 1.44 1.42 1.36 1.24 1.17
0.00 0.00 0.01 0.01 0.00 0.00 0.01 0.04 0.07 0.06 0.07 0.09 0.15 0.23 0.35 0.39 0.44 0.56 0.88 1.41 2.19 2.92 2.70 2.07 1.78 1.86 1.92 2.00 2.15 2.26 2.37 2.29 2.21 2.10 2.00 1.91 1.95 1.90 1.89 1.94 1.83 1.74 1.77 1.76 1.59 1.60 1.63 1.62 1.50
0.00 0.00 0.00 0.01 0.00 0.00 0.02 0.05 0.07 0.08 0.10 0.12 0.16 0.27 0.28 0.34 0.44 0.62 1.03 1.70 2.41 3.15 2.98 2.54 2.25 2.34 2.29 2.26 2.43 2.57 2.66 2.68 2.73 2.75 2.60 2.42 2.36 2.39 2.45 2.51 2.42 2.22 2.16 2.12 2.10 2.02 1.78 1.58 1.46
0.00 0.00 0.01 0.01 0.01 0.01 0.03 0.08 0.12 0.13 0.13 0.16 0.21 0.29 0.34 0.36 0.45 0.77 1.23 1.81 2.23 2.47 2.52 2.60 2.56 2.58 2.62 2.63 2.67 2.86 3.06 3.14 3.12 3.18 3.16 3.04 2.98 3.00 3.08 3.04 2.95 2.69 2.49 2.35 2.24 2.11 1.90 1.67 1.47
0.00 0.00 0.01 0.03 0.03 0.04 0.05 0.12 0.18 0.19 0.20 0.25 0.34 0.37 0.37 0.41 0.51 0.84 1.19 1.57 1.93 2.22 2.40 2.51 2.46 2.64 2.89 3.21 3.61 3.93 4.15 4.08 3.96 3.89 3.80 3.67 3.57 3.47 3.36 3.28 3.10 2.87 2.66 2.41 2.23 2.10 1.97 1.80 1.60
0.00 0.00 0.01 0.04 0.06 0.07 0.09 0.20 0.24 0.26 0.30 0.33 0.38 0.44 0.45 0.46 0.58 0.84 1.02 1.23 1.53 1.89 2.15 2.33 2.54 2.96 3.43 3.92 4.57 5.03 4.98 4.68 4.53 4.25 4.15 3.91 3.63 3.55 3.53 3.25 3.05 2.85 2.63 2.45 2.23 2.12 2.03 1.82 1.65
0.01 0.01 0.02 0.03 0.05 0.09 0.10 0.23 0.35 0.40 0.43 0.44 0.45 0.44 0.44 0.45 0.50 0.69 0.92 1.12 1.36 1.74 2.11 2.41 2.78 3.28 3.89 4.37 4.83 5.14 5.19 5.00 4.76 4.32 3.96 3.58 3.25 3.06 2.95 2.85 2.66 2.51 2.34 2.17 2.03 1.99 1.90 1.73 1.51
0.01 0.02 0.03 0.02 0.02 0.05 0.11 0.23 0.46 0.53 0.48 0.47 0.44 0.41 0.37 0.38 0.41 0.52 0.68 0.90 1.20 1.61 2.04 2.40 2.73 3.29 3.84 4.35 4.71 4.93 5.05 4.94 4.61 4.00 3.43 3.07 2.78 2.57 2.36 2.19 2.10 2.05 1.90 1.69 1.54 1.51 1.48 1.38 1.26
0.00 0.01 0.03 0.04 0.04 0.09 0.09 0.22 0.54 0.75 0.66 0.54 0.50 0.43 0.39 0.36 0.39 0.47 0.60 0.75 1.04 1.39 1.75 2.11 2.45 3.10 3.74 4.26 4.64 4.88 4.91 4.63 4.08 3.51 2.99 2.69 2.47 2.25 2.05 1.91 1.73 1.60 1.48 1.30 1.11 1.03 1.07 1.11 1.09
0.01 0.02 0.09 0.12 0.12 0.12 0.11 0.28 0.63 0.76 0.70 0.60 0.54 0.46 0.41 0.36 0.38 0.44 0.56 0.67 0.94 1.26 1.56 1.91 2.27 2.71 3.19 3.57 3.79 3.94 3.96 3.78 3.49 3.14 2.73 2.41 2.21 2.00 1.76 1.50 1.33 1.21 1.14 1.08 0.97 0.85 0.81 0.85 0.88
0.01 0.03 0.11 0.16 0.16 0.16 0.25 0.52 0.80 0.77 0.71 0.65 0.57 0.49 0.45 0.43 0.44 0.48 0.58 0.69 0.81 1.05 1.34 1.68 1.97 2.25 2.48 2.64 2.82 2.82 2.78 2.71 2.59 2.29 1.97 1.71 1.50 1.37 1.20 1.02 0.96 0.90 0.88 0.85 0.82 0.74 0.69 0.70 0.75
0.02 0.03 0.04 0.07 0.09 0.19 0.47 0.69 0.94 0.87 0.87 0.76 0.67 0.60 0.54 0.51 0.50 0.55 0.63 0.70 0.81 0.94 1.14 1.32 1.45 1.61 1.67 1.65 1.66 1.71 1.75 1.72 1.61 1.44 1.23 1.00 0.84 0.75 0.69 0.63 0.61 0.54 0.56 0.61 0.63 0.64 0.64 0.63 0.64
0.03 0.03 0.05 0.10 0.16 0.28 0.47 0.76 1.07 1.13 1.07 0.86 0.70 0.59 0.50 0.49 0.50 0.55 0.65 0.72 0.78 0.84 1.01 1.10 1.10 1.07 1.10 1.15 1.15 1.12 1.13 1.13 1.11 1.05 0.94 0.81 0.69 0.59 0.50 0.47 0.47 0.43 0.41 0.42 0.46 0.50 0.53 0.57 0.56
0.06 0.06 0.07 0.13 0.17 0.32 0.57 0.99 1.11 1.28 1.22 1.02 0.87 0.68 0.58 0.55 0.59 0.65 0.66 0.64 0.65 0.68 0.72 0.78 0.82 0.85 0.85 0.86 0.87 0.86 0.80 0.75 0.74 0.76 0.73 0.65 0.57 0.50 0.44 0.40 0.39 0.38 0.34 0.33 0.35 0.37 0.39 0.45 0.47
0.07 0.08 0.10 0.20 0.25 0.29 0.54 1.17 1.18 1.43 1.39 1.20 1.01 0.79 0.72 0.71 0.69 0.66 0.63 0.60 0.60 0.64 0.68 0.69 0.70 0.69 0.71 0.70 0.68 0.66 0.59 0.56 0.56 0.55 0.54 0.49 0.46 0.45 0.45 0.43 0.41 0.37 0.33 0.30 0.30 0.31 0.31 0.33 0.34

GEFSSGP_prec_meanprecacc_132.txt.gz
Total_Precipitation_Accumulation
0.00 0.00 0.00 0.00 0.00 0.00 0.01 0.03 0.09 0.18 0.19 0.16 0.20 0.24 0.23 0.26 0.39 0.80 0.44 0.23 0.11 0.04 0.03 0.03 0.04 0.05 0.07 0.05 0.04 0.06 0.09 0.13 0.14 0.14 0.12 0.10 0.10 0.10 0.11 0.12 0.15 0.21 0.25 0.24 0.22 0.22 0.22 0.22 0.17
0.00 0.00 0.00 0.00 0.00 0.00 0.02 0.04 0.09 0.14 0.17 0.18 0.22 0.22 0.21 0.19 0.13 0.12 0.12 0.12 0.09 0.05 0.04 0.03 0.03 0.05 0.07 0.07 0.08 0.08 0.11 0.14 0.18 0.19 0.17 0.14 0.12 0.11 0.12 0.13 0.15 0.21 0.24 0.21 0.18 0.15 0.14 0.12 0.09
0.00 0.00 0.00 0.00 0.00 0.00 0.04 0.07 0.09 0.12 0.16 0.19 0.25 0.26 0.29 0.25 0.14 0.12 0.12 0.11 0.08 0.06 0.04 0.03 0.03 0.05 0.08 0.09 0.10 0.12 0.15 0.19 0.22 0.25 0.25 0.20 0.13 0.12 0.15 0.17 0.17 0.19 0.23 0.24 0.20 0.14 0.09 0.07 0.06
0.00 0.00 0.00 0.00 0.00 0.00 0.03 0.06 0.06 0.11 0.16 0.18 0.18 0.25 0.26 0.23 0.17 0.13 0.12 0.11 0.07 0.06 0.06 0.04 0.05 0.05 0.08 0.10 0.12 0.16 0.19 0.22 0.27 0.31 0.30 0.22 0.15 0.14 0.17 0.21 0.23 0.24 0.27 0.32 0.27 0.23 0.16 0.11 0.08
0.00 0.00 0.00 0.00 0.00 0.00 0.01 0.04 0.06 0.09 0.12 0.14 0.18 0.27 0.31 0.25 0.20 0.15 0.14 0.15 0.12 0.10 0.11 0.09 0.07 0.06 0.09 0.10 0.11 0.15 0.20 0.25 0.31 0.36 0.31 0.23 0.17 0.15 0.17 0.23 0.26 0.29 0.32 0.31 0.26 0.22 0.17 0.15 0.15
0.00 0.00 0.00 0.00 0.00 0.00 0.01 0.02 0.03 0.07 0.11 0.12 0.22 0.35 0.46 0.30 0.24 0.20 0.22 0.23 0.17 0.14 0.13 0.10 0.08 0.08 0.14 0.19 0.15 0.15 0.19 0.24 0.31 0.36 0.32 0.24 0.19 0.20 0.24 0.25 0.29 0.31 0.28 0.23 0.21 0.19 0.16 0.18 0.22
0.00 0.00 0.00 0.00 0.00 0.00 0.01 0.02 0.03 0.06 0.12 0.16 0.27 0.39 0.58 0.50 0.35 0.31 0.28 0.28 0.23 0.24 0.20 0.14 0.13 0.11 0.13 0.14 0.14 0.17 0.19 0.23 0.29 0.34 0.37 0.30 0.24 0.30 0.34 0.33 0.34 0.36 0.29 0.23 0.22 0.22 0.18 0.23 0.29
0.00 0.00 0.00 0.00 0.01 0.01 0.01 0.02 0.04 0.09 0.20 0.27 0.32 0.34 0.66 0.77 0.56 0.50 0.41 0.43 0.45 0.57 0.66 0.45 0.32 0.21 0.14 0.12 0.14 0.17 0.19 0.22 0.26 0.27 0.28 0.27 0.27 0.29 0.32 0.29 0.30 0.30 0.23 0.19 0.17 0.19 0.18 0.16 0.15
0.00 0.00 0.00 0.00 0.01 0.01 0.01 0.03 0.04 0.12 0.26 0.25 0.24 0.25 0.49 0.55 0.55 0.66 0.63 0.68 0.77 1.03 1.23 0.92 0.53 0.34 0.27 0.24 0.21 0.21 0.18 0.22 0.21 0.19 0.21 0.27 0.37 0.44 0.42 0.28 0.26 0.21 0.17 0.15 0.14 0.12 0.11 0.08 0.08
0.00 0.00 0.00 0.00 0.00 0.01 0.01 0.02 0.04 0.07 0.20 0.21 0.21 0.25 0.43 0.54 0.56 0.72 0.85 1.21 1.25 1.20 1.26 1.09 0.70 0.68 0.66 0.59 0.50 0.38 0.29 0.27 0.24 0.30 0.28 0.37 0.63 0.72 0.54 0.49 0.33 0.25 0.22 0.20 0.18 0.17 0.14 0.09 0.10
0.00 0.00 0.00 0.00 0.00 0.01 0.02 0.03 0.06 0.09 0.19 0.21 0.25 0.35 0.43 0.53 0.56 0.67 0.90 1.39 1.55 1.19 1.01 0.88 0.80 0.76 0.83 0.81 0.77 0.66 0.57 0.60 0.56 0.59 0.57 0.67 0.74 0.62 0.53 0.61 0.51 0.45 0.37 0.35 0.36 0.25 0.18 0.18 0.21
0.00 0.00 0.00 0.00 0.00 0.01 0.06 0.11 0.08 0.11 0.26 0.32 0.30 0.38 0.51 0.52 0.50 0.70 1.10 1.18 1.20 1.13 1.06 1.01 1.05 0.93 0.96 1.09 1.05 1.07 1.01 0.89 0.77 0.79 0.74 0.89 1.01 0.92 0.91 0.93 0.86 0.89 0.85 0.77 0.64 0.49 0.39 0.32 0.29
0.00 0.00 0.00 0.00 0.01 0.02 0.08 0.19 0.09 0.08 0.17 0.20 0.24 0.37 0.49 0.54 0.64 0.82 1.10 1.31 1.33 1.36 1.28 1.13 1.16 1.14 1.09 1.27 1.33 1.25 1.23 1.07 0.90 0.86 0.88 0.98 1.06 1.12 1.25 1.22 1.30 1.29 1.18 0.99 0.84 0.66 0.62 0.57 0.49
0.00 0.00 0.00 0.01 0.01 0.05 0.03 0.06 0.05 0.06 0.09 0.14 0.16 0.28 0.40 0.48 0.70 0.91 1.11 1.40 1.58 1.70 1.53 1.26 1.21 1.18 1.14 1.22 1.36 1.37 1.28 1.19 1.14 1.16 1.09 1.07 1.19 1.45 1.53 1.50 1.44 1.35 1.25 1.21 1.12 0.98 0.94 0.87 0.81
0.00 0.00 0.01 0.01 0.01 0.02 0.01 0.02 0.03 0.05 0.07 0.09 0.14 0.25 0.41 0.55 0.64 0.86 1.05 1.43 1.76 2.00 1.92 1.62 1.38 1.37 1.34 1.30 1.36 1.33 1.35 1.49 1.43 1.52 1.57 1.39 1.29 1.45 1.57 1.70 1.61 1.50 1.46 1.42 1.30 1.25 1.22 1.12 1.07
0.00 0.00 0.01 0.01 0.01 0.00 0.01 0.04 0.06 0.06 0.07 0.09 0.15 0.22 0.36 0.57 0.56 0.66 0.94 1.41 2.03 2.44 2.33 1.81 1.42 1.54 1.62 1.70 1.68 1.70 1.70 1.76 1.74 1.64 1.73 1.69 1.71 1.67 1.68 1.72 1.63 1.55 1.54 1.65 1.66 1.63 1.58 1.48 1.41
0.01 0.00 0.01 0.01 0.01 0.00 0.01 0.06 0.09 0.08 0.10 0.10 0.16 0.27 0.38 0.42 0.46 0.61 0.95 1.52 2.25 2.95 2.75 2.12 1.82 1.90 1.97 2.07 2.22 2.33 2.45 2.38 2.30 2.19 2.09 2.00 2.05 2.02 2.01 2.07 1.99 1.90 1.95 1.94 1.78 1.81 1.84 1.85 1.73
0.01 0.00 0.01 0.01 0.01 0.00 0.02 0.07 0.08 0.09 0.12 0.14 0.18 0.29 0.31 0.36 0.45 0.64 1.05 1.74 2.45 3.18 3.01 2.58 2.29 2.38 2.34 2.32 2.51 2.64 2.73 2.76 2.82 2.84 2.69 2.52 2.46 2.50 2.58 2.64 2.58 2.39 2.34 2.34 2.34 2.26 1.98 1.80 1.69
0.00 0.00 0.01 0.01 0.02 0.02 0.04 0.09 0.12 0.13 0.15 0.20 0.24 0.31 0.36 0.38 0.47 0.78 1.24 1.81 2.24 2.48 2.54 2.62 2.59 2.61 2.66 2.68 2.74 2.92 3.12 3.19 3.18 3.24 3.23 3.11 3.05 3.09 3.19 3.17 3.09 2.84 2.64 2.53 2.47 2.36 2.14 1.88 1.69
0.01 0.00 0.01 0.03 0.04 0.04 0.08 0.14 0.19 0.20 0.21 0.27 0.38 0.39 0.39 0.43 0.54 0.86 1.20 1.59 1.94 2.24 2.42 2.54 2.49 2.68 2.92 3.26 3.69 4.02 4.23 4.14 4.03 3.96 3.86 3.73 3.63 3.54 3.45 3.39 3.21 2.99 2.79 2.56 2.41 2.32 2.21 2.02 1.82
0.01 0.01 0.02 0.04 0.06 0.08 0.11 0.22 0.26 0.27 0.31 0.34 0.40 0.46 0.46 0.48 0.60 0.86 1.02 1.23 1.54 1.90 2.17 2.35 2.57 2.99 3.46 3.97 4.66 5.13 5.05 4.74 4.58 4.31 4.21 3.99 3.70 3.62 3.61 3.34 3.14 2.94 2.74 2.57 2.37 2.29 2.25 2.04 1.89
0.01 0.01 0.03 0.04 0.05 0.09 0.10 0.26 0.41 0.42 0.44 0.45 0.47 0.46 0.46 0.46 0.51 0.70 0.93 1.13 1.37 1.75 2.11 2.42 2.80 3.32 3.93 4.41 4.87 5.19 5.23 5.04 4.82 4.37 4.01 3.62 3.30 3.11 3.01 2.91 2.73 2.59 2.42 2.25 2.11 2.11 2.07 1.92 1.73
0.01 0.02 0.03 0.02 0.02 0.06 0.11 0.25 0.53 0.59 0.55 0.53 0.49 0.44 0.40 0.39 0.42 0.52 0.69 0.90 1.21 1.61 2.04 2.41 2.75 3.32 3.88 4.40 4.76 4.97 5.09 4.99 4.68 4.07 3.49 3.12 2.84 2.62 2.41 2.24 2.15 2.10 1.97 1.76 1.61 1.59 1.58 1.52 1.42
0.00 0.01 0.03 0.04 0.05 0.10 0.11 0.25 0.66 0.90 0.79 0.63 0.56 0.47 0.41 0.37 0.39 0.48 0.60 0.76 1.05 1.39 1.76 2.12 2.47 3.12 3.77 4.30 4.69 4.92 4.95 4.68 4.14 3.56 3.04 2.74 2.52 2.29 2.10 1.97 1.79 1.67 1.53 1.35 1.17 1.10 1.15 1.20 1.22
0.01 0.02 0.11 0.16 0.17 0.19 0.16 0.31 0.70 0.81 0.76 0.68 0.59 0.49 0.42 0.37 0.39 0.44 0.57 0.68 0.94 1.26 1.57 1.93 2.30 2.73 3.21 3.60 3.83 3.98 4.00 3.82 3.53 3.17 2.76 2.44 2.24 2.03 1.78 1.54 1.37 1.27 1.20 1.13 1.01 0.90 0.87 0.93 0.97
0.01 0.04 0.13 0.20 0.21 0.23 0.32 0.60 0.87 0.80 0.72 0.67 0.59 0.50 0.45 0.43 0.46 0.50 0.60 0.69 0.82 1.05 1.35 1.70 2.00 2.29 2.52 2.67 2.85 2.86 2.80 2.74 2.61 2.31 1.98 1.73 1.52 1.39 1.22 1.04 0.98 0.93 0.91 0.90 0.87 0.78 0.73 0.76 0.82
0.02 0.04 0.04 0.09 0.11 0.23 0.51 0.75 1.00 0.90 0.88 0.77 0.68 0.61 0.55 0.51 0.51 0.56 0.65 0.71 0.81 0.95 1.15 1.34 1.48 1.65 1.71 1.67 1.68 1.73 1.76 1.74 1.62 1.46 1.24 1.02 0.85 0.76 0.70 0.64 0.62 0.56 0.59 0.65 0.68 0.69 0.69 0.69 0.71
0.03 0.03 0.05 0.12 0.19 0.32 0.51 0.82 1.16 1.21 1.11 0.87 0.70 0.59 0.50 0.49 0.51 0.55 0.65 0.72 0.78 0.84 1.01 1.12 1.13 1.10 1.13 1.17 1.17 1.13 1.15 1.14 1.12 1.06 0.96 0.83 0.71 0.60 0.51 0.48 0.48 0.44 0.43 0.45 0.50 0.55 0.59 0.64 0.63
0.06 0.07 0.08 0.14 0.19 0.36 0.63 1.07 1.18 1.34 1.26 1.04 0.88 0.68 0.58 0.56 0.59 0.65 0.66 0.64 0.66 0.68 0.73 0.79 0.84 0.87 0.87 0.88 0.90 0.88 0.81 0.76 0.75 0.77 0.75 0.68 0.60 0.53 0.46 0.41 0.40 0.39 0.36 0.35 0.38 0.41 0.44 0.51 0.54
0.07 0.08 0.11 0.22 0.27 0.32 0.59 1.24 1.22 1.47 1.43 1.22 1.03 0.80 0.72 0.71 0.69 0.67 0.63 0.60 0.61 0.65 0.68 0.69 0.71 0.70 0.73 0.73 0.71 0.70 0.61 0.57 0.57 0.57 0.56 0.51 0.48 0.47 0.46 0.45 0.43 0.38 0.34 0.32 0.33 0.34 0.34 0.37 0.39

GEFSSGP_prec_meanprecacc_138.txt.gz
Total_Precipitation_Accumulation
0.00 0.00 0.00 0.00 0.00 0.00 0.01 0.03 0.09 0.21 0.22 0.17 0.21 0.25 0.25 0.27 0.41 0.86 0.50 0.27 0.12 0.04 0.03 0.03 0.04 0.05 0.07 0.05 0.04 0.06 0.09 0.13 0.14 0.14 0.12 0.10 0.10 0.10 0.11 0.12 0.15 0.22 0.26 0.24 0.22 0.22 0.23 0.22 0.18
0.00 0.00 0.00 0.00 0.00 0.00 0.02 0.04 0.09 0.14 0.19 0.19 0.23 0.28 0.29 0.22 0.16 0.15 0.15 0.15 0.10 0.05 0.04 0.03 0.03 0.05 0.07 0.07 0.08 0.08 0.11 0.14 0.18 0.19 0.17 0.15 0.12 0.11 0.12 0.13 0.15 0.21 0.24 0.22 0.18 0.16 0.15 0.12 0.09
0.00 0.00 0.00 0.00 0.00 0.00 0.04 0.08 0.10 0.13 0.18 0.21 0.29 0.37 0.35 0.29 0.19 0.17 0.16 0.14 0.09 0.06 0.04 0.03 0.03 0.05 0.08 0.09 0.10 0.12 0.15 0.19 0.22 0.25 0.25 0.20 0.13 0.12 0.15 0.17 0.18 0.19 0.23 0.25 0.20 0.14 0.10 0.07 0.07
0.00 0.00 0.00 0.00 0.00 0.00 0.03 0.07 0.08 0.14 0.18 0.20 0.22 0.32 0.32 0.29 0.24 0.20 0.17 0.14 0.08 0.07 0.06 0.04 0.05 0.05 0.08 0.11 0.12 0.16 0.19 0.23 0.28 0.32 0.30 0.22 0.16 0.14 0.17 0.21 0.24 0.25 0.27 0.32 0.27 0.24 0.16 0.11 0.08
0.00 0.00 0.00 0.00 0.00 0.00 0.01 0.04 0.06 0.10 0.15 0.18 0.20 0.33 0.43 0.42 0.35 0.25 0.22 0.21 0.14 0.11 0.11 0.09 0.08 0.07 0.09 0.11 0.11 0.16 0.21 0.26 0.32 0.36 0.31 0.24 0.18 0.16 0.18 0.24 0.26 0.30 0.32 0.31 0.27 0.23 0.17 0.16 0.15
0.00 0.00 0.00 0.00 0.00 0.00 0.01 0.03 0.04 0.09 0.13 0.16 0.27 0.44 0.62 0.52 0.44 0.36 0.33 0.31 0.20 0.15 0.14 0.10 0.09 0.09 0.15 0.20 0.16 0.15 0.20 0.25 0.32 0.37 0.33 0.25 0.21 0.22 0.25 0.27 0.30 0.32 0.29 0.24 0.22 0.19 0.17 0.19 0.23
0.00 0.00 0.00 0.00 0.00 0.00 0.02 0.03 0.04 0.07 0.14 0.19 0.35 0.52 0.72 0.71 0.55 0.45 0.43 0.40 0.29 0.26 0.21 0.15 0.14 0.12 0.14 0.15 0.14 0.17 0.19 0.24 0.30 0.35 0.38 0.31 0.25 0.32 0.36 0.35 0.36 0.37 0.31 0.25 0.23 0.23 0.19 0.24 0.30
0.00 0.00 0.00 0.00 0.01 0.01 0.02 0.04 0.05 0.11 0.23 0.34 0.47 0.49 0.85 1.00 0.78 0.68 0.59 0.58 0.55 0.63 0.68 0.46 0.33 0.22 0.15 0.13 0.15 0.18 0.20 0.24 0.27 0.28 0.29 0.29 0.29 0.31 0.34 0.31 0.31 0.31 0.25 0.20 0.19 0.20 0.19 0.17 0.16
0.00 0.00 0.00 0.00 0.01 0.02 0.03 0.04 0.06 0.14 0.31 0.38 0.46 0.50 0.74 0.73 0.78 0.88 0.85 0.97 1.01 1.15 1.29 0.96 0.57 0.38 0.31 0.26 0.22 0.22 0.20 0.24 0.22 0.20 0.23 0.28 0.38 0.46 0.46 0.32 0.30 0.26 0.20 0.18 0.17 0.15 0.13 0.10 0.09
0.00 0.00 0.00 0.00 0.01 0.02 0.03 0.05 0.12 0.14 0.27 0.33 0.38 0.44 0.62 0.75 0.83 1.00 1.15 1.72 1.64 1.44 1.40 1.20 0.79 0.81 0.81 0.64 0.53 0.41 0.31 0.29 0.27 0.33 0.31 0.40 0.66 0.76 0.60 0.57 0.42 0.35 0.29 0.25 0.23 0.21 0.16 0.11 0.12
0.00 0.00 0.00 0.01 0.01 0.02 0.03 0.07 0.15 0.20 0.29 0.31 0.39 0.54 0.67 0.82 0.86 0.99 1.25 1.81 1.95 1.57 1.26 1.03 0.93 0.87 0.97 0.92 0.86 0.73 0.64 0.66 0.62 0.65 0.63 0.73 0.81 0.70 0.62 0.71 0.62 0.57 0.48 0.44 0.42 0.31 0.23 0.23 0.27
0.00 0.00 0.00 0.01 0.02 0.03 0.07 0.14 0.17 0.23 0.37 0.46 0.45 0.56 0.74 0.79 0.77 1.02 1.52 1.60 1.54 1.41 1.32 1.26 1.23 1.10 1.09 1.26 1.26 1.19 1.12 1.00 0.87 0.87 0.83 0.99 1.11 1.04 1.07 1.08 1.02 1.09 1.03 0.87 0.71 0.55 0.44 0.39 0.35
0.00 0.00 0.01 0.01 0.02 0.03 0.12 0.24 0.18 0.17 0.25 0.33 0.37 0.48 0.63 0.75 0.93 1.27 1.56 1.69 1.66 1.64 1.50 1.38 1.41 1.32 1.22 1.44 1.57 1.44 1.37 1.22 1.06 1.03 1.06 1.14 1.20 1.25 1.39 1.39 1.48 1.46 1.34 1.11 0.93 0.74 0.70 0.64 0.56
0.00 0.00 0.01 0.01 0.02 0.06 0.07 0.12 0.09 0.13 0.16 0.21 0.23 0.38 0.55 0.70 0.98 1.24 1.42 1.65 1.80 1.97 1.73 1.46 1.41 1.33 1.28 1.36 1.48 1.48 1.39 1.40 1.41 1.39 1.33 1.29 1.37 1.57 1.63 1.63 1.57 1.47 1.36 1.32 1.26 1.10 1.06 0.97 0.92
0.00 0.01 0.01 0.01 0.01 0.03 0.02 0.05 0.06 0.08 0.11 0.13 0.19 0.35 0.57 0.84 0.91 1.08 1.34 1.72 1.94 2.14 2.08 1.77 1.61 1.53 1.50 1.44 1.44 1.40 1.43 1.60 1.58 1.66 1.71 1.54 1.45 1.54 1.63 1.78 1.71 1.58 1.54 1.52 1.45 1.43 1.40 1.31 1.21
0.01 0.01 0.02 0.02 0.01 0.01 0.01 0.06 0.08 0.08 0.08 0.11 0.18 0.27 0.50 0.84 0.79 0.85 1.15 1.63 2.19 2.55 2.44 1.90 1.58 1.69 1.75 1.82 1.79 1.78 1.75 1.82 1.81 1.72 1.81 1.78 1.80 1.74 1.73 1.76 1.69 1.61 1.61 1.75 1.76 1.75 1.69 1.59 1.52
0.02 0.01 0.02 0.02 0.02 0.01 0.03 0.10 0.12 0.10 0.11 0.12 0.19 0.34 0.46 0.53 0.55 0.70 1.06 1.63 2.37 3.05 2.84 2.18 1.89 1.99 2.08 2.14 2.30 2.40 2.51 2.43 2.36 2.25 2.15 2.06 2.12 2.09 2.06 2.11 2.04 1.96 2.01 2.01 1.85 1.90 1.94 1.95 1.84
0.02 0.01 0.01 0.02 0.02 0.03 0.05 0.11 0.13 0.14 0.15 0.18 0.22 0.35 0.35 0.40 0.50 0.69 1.10 1.79 2.50 3.23 3.06 2.63 2.35 2.46 2.41 2.38 2.56 2.69 2.78 2.82 2.89 2.93 2.80 2.59 2.51 2.54 2.62 2.68 2.61 2.43 2.40 2.40 2.41 2.33 2.08 1.91 1.83
0.00 0.00 0.01 0.02 0.03 0.04 0.08 0.14 0.18 0.20 0.20 0.29 0.37 0.41 0.40 0.42 0.52 0.83 1.28 1.85 2.28 2.51 2.57 2.66 2.64 2.67 2.72 2.73 2.78 2.96 3.15 3.23 3.22 3.31 3.33 3.19 3.09 3.12 3.24 3.21 3.12 2.87 2.68 2.58 2.53 2.44 2.23 1.99 1.82
0.01 0.01 0.02 0.04 0.05 0.06 0.12 0.21 0.26 0.29 0.29 0.37 0.51 0.51 0.46 0.47 0.57 0.91 1.27 1.64 1.97 2.26 2.44 2.56 2.53 2.72 2.96 3.30 3.72 4.05 4.25 4.17 4.06 4.00 3.91 3.78 3.66 3.57 3.49 3.44 3.25 3.03 2.83 2.62 2.46 2.38 2.28 2.11 1.94
0.02 0.01 0.04 0.06 0.08 0.10 0.16 0.31 0.34 0.39 0.42 0.45 0.49 0.55 0.54 0.50 0.63 0.89 1.08 1.32 1.58 1.93 2.19 2.37 2.60 3.03 3.49 4.00 4.69 5.16 5.08 4.76 4.61 4.34 4.24 4.01 3.72 3.65 3.63 3.37 3.18 2.99 2.79 2.64 2.44 2.36 2.31 2.12 1.99
0.02 0.02 0.04 0.05 0.06 0.12 0.15 0.36 0.56 0.57 0.65 0.62 0.59 0.54 0.53 0.50 0.54 0.72 0.96 1.17 1.40 1.77 2.14 2.44 2.82 3.34 3.95 4.44 4.90 5.21 5.25 5.06 4.84 4.40 4.04 3.65 3.32 3.14 3.03 2.93 2.75 2.63 2.49 2.34 2.20 2.18 2.12 1.97 1.79
0.01 0.02 0.03 0.03 0.03 0.08 0.14 0.29 0.64 0.78 0.81 0.79 0.65 0.55 0.46 0.43 0.45 0.54 0.70 0.93 1.22 1.63 2.07 2.43 2.77 3.34 3.90 4.42 4.78 4.99 5.11 5.01 4.69 4.09 3.51 3.15 2.86 2.64 2.43 2.25 2.16 2.12 2.01 1.83 1.68 1.64 1.61 1.54 1.46
0.01 0.01 0.03 0.04 0.06 0.12 0.13 0.29 0.74 1.03 0.95 0.80 0.71 0.61 0.49 0.41 0.41 0.49 0.60 0.76 1.05 1.40 1.77 2.14 2.49 3.14 3.78 4.31 4.70 4.94 4.97 4.69 4.16 3.57 3.06 2.77 2.54 2.31 2.11 1.98 1.80 1.68 1.55 1.38 1.21 1.16 1.19 1.24 1.25
0.01 0.03 0.12 0.18 0.20 0.23 0.19 0.35 0.76 0.88 0.85 0.82 0.72 0.61 0.49 0.42 0.42 0.46 0.57 0.68 0.94 1.27 1.58 1.93 2.30 2.74 3.22 3.61 3.85 4.00 4.02 3.84 3.54 3.18 2.77 2.45 2.25 2.04 1.80 1.55 1.39 1.28 1.22 1.14 1.03 0.93 0.92 0.98 1.02
0.02 0.04 0.15 0.23 0.26 0.29 0.37 0.68 1.00 0.89 0.82 0.77 0.70 0.59 0.50 0.46 0.48 0.51 0.60 0.70 0.82 1.05 1.35 1.70 2.00 2.29 2.53 2.69 2.87 2.88 2.83 2.76 2.63 2.33 1.99 1.74 1.52 1.39 1.22 1.05 0.98 0.93 0.92 0.91 0.88 0.80 0.76 0.79 0.88
0.03 0.05 0.05 0.11 0.14 0.31 0.60 0.83 1.12 1.03 1.02 0.88 0.76 0.67 0.58 0.54 0.52 0.57 0.66 0.71 0.81 0.95 1.15 1.35 1.48 1.67 1.74 1.70 1.71 1.75 1.78 1.75 1.63 1.47 1.25 1.02 0.85 0.76 0.70 0.64 0.62 0.57 0.60 0.66 0.69 0.70 0.71 0.71 0.73
0.03 0.04 0.06 0.14 0.23 0.39 0.62 0.94 1.29 1.35 1.25 1.00 0.79 0.65 0.54 0.52 0.52 0.57 0.66 0.73 0.79 0.85 1.02 1.13 1.13 1.12 1.16 1.19 1.19 1.15 1.16 1.15 1.13 1.07 0.97 0.83 0.71 0.60 0.51 0.48 0.49 0.44 0.43 0.46 0.50 0.55 0.60 0.65 0.65
0.07 0.07 0.08 0.15 0.22 0.40 0.69 1.14 1.25 1.44 1.36 1.17 1.02 0.77 0.65 0.60 0.62 0.67 0.67 0.65 0.66 0.69 0.73 0.79 0.84 0.87 0.88 0.89 0.91 0.89 0.81 0.77 0.75 0.77 0.75 0.68 0.60 0.53 0.46 0.42 0.41 0.40 0.37 0.36 0.38 0.41 0.45 0.52 0.55
0.08 0.09 0.12 0.24 0.29 0.35 0.62 1.29 1.28 1.55 1.53 1.31 1.13 0.89 0.81 0.77 0.72 0.68 0.64 0.61 0.61 0.66 0.69 0.69 0.71 0.71 0.73 0.73 0.71 0.71 0.63 0.58 0.57 0.57 0.56 0.52 0.48 0.48 0.47 0.45 0.43 0.39 0.35 0.32 0.33 0.34 0.34 0.37 0.40